<?xml version="1.0" encoding="UTF-8" standalone="no" ?>
<gpx xmlns="http://www.topografix.com/GPX/1/1" xmlns:xsi="http://www.w3.org/2001/XMLSchema-instance" xsi:schemaLocation="http://www.topografix.com/GPX/1/1 http://www.topografix.com/GPX/1/1/gpx.xsd" version="1.1" creator="VisuGPX - https://www.visugpx.com">
  <metadata>
    <name>Vélo bleu - Circuit 45</name>
    <desc><![CDATA[Petit patrimoine sur ce circuit :
- Chapelle de Presles à Marcilly-en-Bassigny, Chapelle St-Gengoulf à Varennes-sur-AmanceChapelle St-Didier à Hortes
- Lavoirs de Chézeaux, Bize, Maizières-sur-Amance, Hortes, Celsoy, Troischamps
- Frontons dits "compagnoniques" à Chézeaux]]></desc>
  </metadata>
  <trk>
    <name><![CDATA[Sortie vélo le matin]]></name>
    <trkseg>
      <trkpt lat="47.89608" lon="5.5221">
        <ele>333.8</ele>
        <time>2024-09-01T06:54:57Z</time>
      </trkpt>
      <trkpt lat="47.89609" lon="5.5221">
        <ele>333.8</ele>
        <time>2024-09-01T06:54:58Z</time>
      </trkpt>
      <trkpt lat="47.89631" lon="5.52213">
        <ele>334.7</ele>
        <time>2024-09-01T06:58:14Z</time>
      </trkpt>
      <trkpt lat="47.89635" lon="5.52208">
        <ele>334.7</ele>
        <time>2024-09-01T06:58:16Z</time>
      </trkpt>
      <trkpt lat="47.89653" lon="5.52198">
        <ele>334.9</ele>
        <time>2024-09-01T06:58:23Z</time>
      </trkpt>
      <trkpt lat="47.89671" lon="5.52209">
        <ele>335.2</ele>
        <time>2024-09-01T06:58:30Z</time>
      </trkpt>
      <trkpt lat="47.89678" lon="5.52234">
        <ele>335.6</ele>
        <time>2024-09-01T06:58:36Z</time>
      </trkpt>
      <trkpt lat="47.8969" lon="5.52277">
        <ele>336.5</ele>
        <time>2024-09-01T06:58:45Z</time>
      </trkpt>
      <trkpt lat="47.89696" lon="5.523">
        <ele>337</ele>
        <time>2024-09-01T06:58:51Z</time>
      </trkpt>
      <trkpt lat="47.89703" lon="5.52323">
        <ele>337.4</ele>
        <time>2024-09-01T06:58:58Z</time>
      </trkpt>
      <trkpt lat="47.8971" lon="5.52348">
        <ele>337.7</ele>
        <time>2024-09-01T06:59:04Z</time>
      </trkpt>
      <trkpt lat="47.89719" lon="5.52377">
        <ele>338</ele>
        <time>2024-09-01T06:59:10Z</time>
      </trkpt>
      <trkpt lat="47.89726" lon="5.524">
        <ele>338.2</ele>
        <time>2024-09-01T06:59:14Z</time>
      </trkpt>
      <trkpt lat="47.89732" lon="5.52416">
        <ele>338.4</ele>
        <time>2024-09-01T06:59:17Z</time>
      </trkpt>
      <trkpt lat="47.89744" lon="5.52456">
        <ele>338.8</ele>
        <time>2024-09-01T06:59:24Z</time>
      </trkpt>
      <trkpt lat="47.89753" lon="5.52479">
        <ele>339</ele>
        <time>2024-09-01T06:59:28Z</time>
      </trkpt>
      <trkpt lat="47.89761" lon="5.52493">
        <ele>339.2</ele>
        <time>2024-09-01T06:59:31Z</time>
      </trkpt>
      <trkpt lat="47.89764" lon="5.52497">
        <ele>339.3</ele>
        <time>2024-09-01T06:59:32Z</time>
      </trkpt>
      <trkpt lat="47.89778" lon="5.52513">
        <ele>339.5</ele>
        <time>2024-09-01T06:59:36Z</time>
      </trkpt>
      <trkpt lat="47.89807" lon="5.52548">
        <ele>340.2</ele>
        <time>2024-09-01T06:59:44Z</time>
      </trkpt>
      <trkpt lat="47.89837" lon="5.52585">
        <ele>340.8</ele>
        <time>2024-09-01T06:59:52Z</time>
      </trkpt>
      <trkpt lat="47.89851" lon="5.52602">
        <ele>341.1</ele>
        <time>2024-09-01T06:59:56Z</time>
      </trkpt>
      <trkpt lat="47.89862" lon="5.52619">
        <ele>341.3</ele>
        <time>2024-09-01T06:59:59Z</time>
      </trkpt>
      <trkpt lat="47.89864" lon="5.52632">
        <ele>341.4</ele>
        <time>2024-09-01T07:00:01Z</time>
      </trkpt>
      <trkpt lat="47.89866" lon="5.52646">
        <ele>341.6</ele>
        <time>2024-09-01T07:00:03Z</time>
      </trkpt>
      <trkpt lat="47.89864" lon="5.52699">
        <ele>342</ele>
        <time>2024-09-01T07:00:10Z</time>
      </trkpt>
      <trkpt lat="47.89858" lon="5.52762">
        <ele>342.2</ele>
        <time>2024-09-01T07:00:18Z</time>
      </trkpt>
      <trkpt lat="47.89853" lon="5.52827">
        <ele>342.1</ele>
        <time>2024-09-01T07:00:26Z</time>
      </trkpt>
      <trkpt lat="47.89854" lon="5.52844">
        <ele>342.1</ele>
        <time>2024-09-01T07:00:28Z</time>
      </trkpt>
      <trkpt lat="47.89856" lon="5.52859">
        <ele>342.1</ele>
        <time>2024-09-01T07:00:30Z</time>
      </trkpt>
      <trkpt lat="47.89857" lon="5.52867">
        <ele>342.1</ele>
        <time>2024-09-01T07:00:31Z</time>
      </trkpt>
      <trkpt lat="47.8986" lon="5.52875">
        <ele>342</ele>
        <time>2024-09-01T07:00:32Z</time>
      </trkpt>
      <trkpt lat="47.89873" lon="5.52906">
        <ele>341.8</ele>
        <time>2024-09-01T07:00:36Z</time>
      </trkpt>
      <trkpt lat="47.89903" lon="5.5298">
        <ele>341</ele>
        <time>2024-09-01T07:00:45Z</time>
      </trkpt>
      <trkpt lat="47.89935" lon="5.53057">
        <ele>339.8</ele>
        <time>2024-09-01T07:00:54Z</time>
      </trkpt>
      <trkpt lat="47.89939" lon="5.53066">
        <ele>339.6</ele>
        <time>2024-09-01T07:00:55Z</time>
      </trkpt>
      <trkpt lat="47.89974" lon="5.53137">
        <ele>338.2</ele>
        <time>2024-09-01T07:01:03Z</time>
      </trkpt>
      <trkpt lat="47.90009" lon="5.53199">
        <ele>336.3</ele>
        <time>2024-09-01T07:01:10Z</time>
      </trkpt>
      <trkpt lat="47.9002" lon="5.53218">
        <ele>335.8</ele>
        <time>2024-09-01T07:01:12Z</time>
      </trkpt>
      <trkpt lat="47.90058" lon="5.53283">
        <ele>334.1</ele>
        <time>2024-09-01T07:01:19Z</time>
      </trkpt>
      <trkpt lat="47.90063" lon="5.53292">
        <ele>333.9</ele>
        <time>2024-09-01T07:01:20Z</time>
      </trkpt>
      <trkpt lat="47.90101" lon="5.53354">
        <ele>332.7</ele>
        <time>2024-09-01T07:01:27Z</time>
      </trkpt>
      <trkpt lat="47.90107" lon="5.53363">
        <ele>332.4</ele>
        <time>2024-09-01T07:01:28Z</time>
      </trkpt>
      <trkpt lat="47.90144" lon="5.53425">
        <ele>330.9</ele>
        <time>2024-09-01T07:01:35Z</time>
      </trkpt>
      <trkpt lat="47.90155" lon="5.53443">
        <ele>330.4</ele>
        <time>2024-09-01T07:01:37Z</time>
      </trkpt>
      <trkpt lat="47.90193" lon="5.53505">
        <ele>327.4</ele>
        <time>2024-09-01T07:01:44Z</time>
      </trkpt>
      <trkpt lat="47.90198" lon="5.53514">
        <ele>326.9</ele>
        <time>2024-09-01T07:01:45Z</time>
      </trkpt>
      <trkpt lat="47.90203" lon="5.53524">
        <ele>326.3</ele>
        <time>2024-09-01T07:01:46Z</time>
      </trkpt>
      <trkpt lat="47.90213" lon="5.53558">
        <ele>324.4</ele>
        <time>2024-09-01T07:01:49Z</time>
      </trkpt>
      <trkpt lat="47.90217" lon="5.53583">
        <ele>323.1</ele>
        <time>2024-09-01T07:01:51Z</time>
      </trkpt>
      <trkpt lat="47.90216" lon="5.5361">
        <ele>321.7</ele>
        <time>2024-09-01T07:01:53Z</time>
      </trkpt>
      <trkpt lat="47.90215" lon="5.53623">
        <ele>320.9</ele>
        <time>2024-09-01T07:01:54Z</time>
      </trkpt>
      <trkpt lat="47.90208" lon="5.53648">
        <ele>319.4</ele>
        <time>2024-09-01T07:01:56Z</time>
      </trkpt>
      <trkpt lat="47.90185" lon="5.53709">
        <ele>315.4</ele>
        <time>2024-09-01T07:02:01Z</time>
      </trkpt>
      <trkpt lat="47.90155" lon="5.53787">
        <ele>311</ele>
        <time>2024-09-01T07:02:07Z</time>
      </trkpt>
      <trkpt lat="47.90146" lon="5.53811">
        <ele>309.6</ele>
        <time>2024-09-01T07:02:09Z</time>
      </trkpt>
      <trkpt lat="47.90118" lon="5.53886">
        <ele>305.1</ele>
        <time>2024-09-01T07:02:15Z</time>
      </trkpt>
      <trkpt lat="47.90108" lon="5.53912">
        <ele>303.5</ele>
        <time>2024-09-01T07:02:17Z</time>
      </trkpt>
      <trkpt lat="47.90083" lon="5.5399">
        <ele>298.5</ele>
        <time>2024-09-01T07:02:23Z</time>
      </trkpt>
      <trkpt lat="47.90067" lon="5.5408">
        <ele>293</ele>
        <time>2024-09-01T07:02:29Z</time>
      </trkpt>
      <trkpt lat="47.90054" lon="5.5417">
        <ele>288.5</ele>
        <time>2024-09-01T07:02:35Z</time>
      </trkpt>
      <trkpt lat="47.90043" lon="5.54241">
        <ele>286.5</ele>
        <time>2024-09-01T07:02:40Z</time>
      </trkpt>
      <trkpt lat="47.9003" lon="5.54313">
        <ele>284.9</ele>
        <time>2024-09-01T07:02:46Z</time>
      </trkpt>
      <trkpt lat="47.90006" lon="5.54396">
        <ele>282.6</ele>
        <time>2024-09-01T07:02:53Z</time>
      </trkpt>
      <trkpt lat="47.89981" lon="5.54479">
        <ele>281</ele>
        <time>2024-09-01T07:03:00Z</time>
      </trkpt>
      <trkpt lat="47.8996" lon="5.54548">
        <ele>280.5</ele>
        <time>2024-09-01T07:03:06Z</time>
      </trkpt>
      <trkpt lat="47.89937" lon="5.54624">
        <ele>280.7</ele>
        <time>2024-09-01T07:03:13Z</time>
      </trkpt>
      <trkpt lat="47.89934" lon="5.54635">
        <ele>280.8</ele>
        <time>2024-09-01T07:03:14Z</time>
      </trkpt>
      <trkpt lat="47.89916" lon="5.54696">
        <ele>281</ele>
        <time>2024-09-01T07:03:20Z</time>
      </trkpt>
      <trkpt lat="47.89898" lon="5.54757">
        <ele>281</ele>
        <time>2024-09-01T07:03:26Z</time>
      </trkpt>
      <trkpt lat="47.89875" lon="5.54831">
        <ele>281.3</ele>
        <time>2024-09-01T07:03:33Z</time>
      </trkpt>
      <trkpt lat="47.89861" lon="5.54883">
        <ele>281.7</ele>
        <time>2024-09-01T07:03:38Z</time>
      </trkpt>
      <trkpt lat="47.89849" lon="5.54953">
        <ele>282.7</ele>
        <time>2024-09-01T07:03:45Z</time>
      </trkpt>
      <trkpt lat="47.89838" lon="5.55009">
        <ele>283.2</ele>
        <time>2024-09-01T07:03:51Z</time>
      </trkpt>
      <trkpt lat="47.89821" lon="5.55074">
        <ele>283.2</ele>
        <time>2024-09-01T07:03:58Z</time>
      </trkpt>
      <trkpt lat="47.89802" lon="5.55133">
        <ele>282.8</ele>
        <time>2024-09-01T07:04:04Z</time>
      </trkpt>
      <trkpt lat="47.8978" lon="5.55202">
        <ele>282.4</ele>
        <time>2024-09-01T07:04:11Z</time>
      </trkpt>
      <trkpt lat="47.89764" lon="5.5525">
        <ele>282.1</ele>
        <time>2024-09-01T07:04:16Z</time>
      </trkpt>
      <trkpt lat="47.89761" lon="5.5526">
        <ele>282.1</ele>
        <time>2024-09-01T07:04:17Z</time>
      </trkpt>
      <trkpt lat="47.89736" lon="5.55311">
        <ele>281.6</ele>
        <time>2024-09-01T07:04:23Z</time>
      </trkpt>
      <trkpt lat="47.8971" lon="5.55365">
        <ele>280.6</ele>
        <time>2024-09-01T07:04:29Z</time>
      </trkpt>
      <trkpt lat="47.89677" lon="5.55431">
        <ele>278.9</ele>
        <time>2024-09-01T07:04:36Z</time>
      </trkpt>
      <trkpt lat="47.89645" lon="5.55496">
        <ele>277.1</ele>
        <time>2024-09-01T07:04:43Z</time>
      </trkpt>
      <trkpt lat="47.89618" lon="5.55542">
        <ele>275.7</ele>
        <time>2024-09-01T07:04:48Z</time>
      </trkpt>
      <trkpt lat="47.89576" lon="5.55576">
        <ele>274.4</ele>
        <time>2024-09-01T07:04:54Z</time>
      </trkpt>
      <trkpt lat="47.89531" lon="5.55612">
        <ele>273.4</ele>
        <time>2024-09-01T07:05:01Z</time>
      </trkpt>
      <trkpt lat="47.89498" lon="5.55651">
        <ele>272.4</ele>
        <time>2024-09-01T07:05:07Z</time>
      </trkpt>
      <trkpt lat="47.89486" lon="5.55678">
        <ele>271.7</ele>
        <time>2024-09-01T07:05:11Z</time>
      </trkpt>
      <trkpt lat="47.89477" lon="5.55688">
        <ele>271.7</ele>
        <time>2024-09-01T07:05:12Z</time>
      </trkpt>
      <trkpt lat="47.89464" lon="5.55691">
        <ele>272</ele>
        <time>2024-09-01T07:05:15Z</time>
      </trkpt>
      <trkpt lat="47.89448" lon="5.55702">
        <ele>272.7</ele>
        <time>2024-09-01T07:05:19Z</time>
      </trkpt>
      <trkpt lat="47.8944" lon="5.55708">
        <ele>272.9</ele>
        <time>2024-09-01T07:05:21Z</time>
      </trkpt>
      <trkpt lat="47.89422" lon="5.55726">
        <ele>273.7</ele>
        <time>2024-09-01T07:05:26Z</time>
      </trkpt>
      <trkpt lat="47.89411" lon="5.55738">
        <ele>274.1</ele>
        <time>2024-09-01T07:05:29Z</time>
      </trkpt>
      <trkpt lat="47.894" lon="5.55754">
        <ele>274.4</ele>
        <time>2024-09-01T07:05:32Z</time>
      </trkpt>
      <trkpt lat="47.89374" lon="5.55803">
        <ele>275.1</ele>
        <time>2024-09-01T07:05:39Z</time>
      </trkpt>
      <trkpt lat="47.89357" lon="5.55837">
        <ele>275.7</ele>
        <time>2024-09-01T07:05:44Z</time>
      </trkpt>
      <trkpt lat="47.89353" lon="5.55844">
        <ele>275.8</ele>
        <time>2024-09-01T07:05:45Z</time>
      </trkpt>
      <trkpt lat="47.89347" lon="5.55856">
        <ele>276</ele>
        <time>2024-09-01T07:05:47Z</time>
      </trkpt>
      <trkpt lat="47.89336" lon="5.55875">
        <ele>276.2</ele>
        <time>2024-09-01T07:05:50Z</time>
      </trkpt>
      <trkpt lat="47.8931" lon="5.55909">
        <ele>277.1</ele>
        <time>2024-09-01T07:05:56Z</time>
      </trkpt>
      <trkpt lat="47.89306" lon="5.55914">
        <ele>277.3</ele>
        <time>2024-09-01T07:05:57Z</time>
      </trkpt>
      <trkpt lat="47.89294" lon="5.55925">
        <ele>277.9</ele>
        <time>2024-09-01T07:06:00Z</time>
      </trkpt>
      <trkpt lat="47.89286" lon="5.5593">
        <ele>278.3</ele>
        <time>2024-09-01T07:06:02Z</time>
      </trkpt>
      <trkpt lat="47.89263" lon="5.55943">
        <ele>279</ele>
        <time>2024-09-01T07:06:07Z</time>
      </trkpt>
      <trkpt lat="47.89258" lon="5.55945">
        <ele>279.1</ele>
        <time>2024-09-01T07:06:08Z</time>
      </trkpt>
      <trkpt lat="47.89248" lon="5.55949">
        <ele>279.3</ele>
        <time>2024-09-01T07:06:10Z</time>
      </trkpt>
      <trkpt lat="47.8924" lon="5.55958">
        <ele>279.4</ele>
        <time>2024-09-01T07:06:12Z</time>
      </trkpt>
      <trkpt lat="47.89232" lon="5.55967">
        <ele>279.6</ele>
        <time>2024-09-01T07:06:14Z</time>
      </trkpt>
      <trkpt lat="47.89226" lon="5.5598">
        <ele>279.8</ele>
        <time>2024-09-01T07:06:16Z</time>
      </trkpt>
      <trkpt lat="47.89208" lon="5.56024">
        <ele>280.5</ele>
        <time>2024-09-01T07:06:22Z</time>
      </trkpt>
      <trkpt lat="47.892" lon="5.56044">
        <ele>280.9</ele>
        <time>2024-09-01T07:06:25Z</time>
      </trkpt>
      <trkpt lat="47.89195" lon="5.56056">
        <ele>281.2</ele>
        <time>2024-09-01T07:06:27Z</time>
      </trkpt>
      <trkpt lat="47.8918" lon="5.56073">
        <ele>281.5</ele>
        <time>2024-09-01T07:06:31Z</time>
      </trkpt>
      <trkpt lat="47.89172" lon="5.56082">
        <ele>281.7</ele>
        <time>2024-09-01T07:06:33Z</time>
      </trkpt>
      <trkpt lat="47.89165" lon="5.56089">
        <ele>281.8</ele>
        <time>2024-09-01T07:06:35Z</time>
      </trkpt>
      <trkpt lat="47.89154" lon="5.561">
        <ele>281.9</ele>
        <time>2024-09-01T07:06:38Z</time>
      </trkpt>
      <trkpt lat="47.89133" lon="5.56117">
        <ele>282.2</ele>
        <time>2024-09-01T07:06:43Z</time>
      </trkpt>
      <trkpt lat="47.89128" lon="5.56121">
        <ele>282.3</ele>
        <time>2024-09-01T07:06:44Z</time>
      </trkpt>
      <trkpt lat="47.89124" lon="5.56124">
        <ele>282.3</ele>
        <time>2024-09-01T07:06:45Z</time>
      </trkpt>
      <trkpt lat="47.89105" lon="5.56139">
        <ele>282.5</ele>
        <time>2024-09-01T07:06:49Z</time>
      </trkpt>
      <trkpt lat="47.89072" lon="5.56161">
        <ele>282.5</ele>
        <time>2024-09-01T07:06:56Z</time>
      </trkpt>
      <trkpt lat="47.89046" lon="5.56173">
        <ele>282.9</ele>
        <time>2024-09-01T07:07:02Z</time>
      </trkpt>
      <trkpt lat="47.89013" lon="5.56188">
        <ele>283.3</ele>
        <time>2024-09-01T07:07:09Z</time>
      </trkpt>
      <trkpt lat="47.88998" lon="5.56203">
        <ele>283.5</ele>
        <time>2024-09-01T07:07:14Z</time>
      </trkpt>
      <trkpt lat="47.88989" lon="5.56223">
        <ele>283.6</ele>
        <time>2024-09-01T07:07:19Z</time>
      </trkpt>
      <trkpt lat="47.88982" lon="5.56252">
        <ele>284.2</ele>
        <time>2024-09-01T07:07:24Z</time>
      </trkpt>
      <trkpt lat="47.8898" lon="5.56259">
        <ele>284.4</ele>
        <time>2024-09-01T07:07:25Z</time>
      </trkpt>
      <trkpt lat="47.88978" lon="5.56267">
        <ele>284.6</ele>
        <time>2024-09-01T07:07:26Z</time>
      </trkpt>
      <trkpt lat="47.88972" lon="5.56292">
        <ele>285.2</ele>
        <time>2024-09-01T07:07:30Z</time>
      </trkpt>
      <trkpt lat="47.8897" lon="5.56297">
        <ele>285.3</ele>
        <time>2024-09-01T07:07:31Z</time>
      </trkpt>
      <trkpt lat="47.88962" lon="5.5632">
        <ele>285.6</ele>
        <time>2024-09-01T07:07:35Z</time>
      </trkpt>
      <trkpt lat="47.88947" lon="5.56357">
        <ele>285.9</ele>
        <time>2024-09-01T07:07:41Z</time>
      </trkpt>
      <trkpt lat="47.88939" lon="5.56375">
        <ele>285.9</ele>
        <time>2024-09-01T07:07:44Z</time>
      </trkpt>
      <trkpt lat="47.88932" lon="5.56392">
        <ele>285.9</ele>
        <time>2024-09-01T07:07:47Z</time>
      </trkpt>
      <trkpt lat="47.88922" lon="5.56416">
        <ele>286.1</ele>
        <time>2024-09-01T07:07:51Z</time>
      </trkpt>
      <trkpt lat="47.8892" lon="5.56422">
        <ele>286.2</ele>
        <time>2024-09-01T07:07:52Z</time>
      </trkpt>
      <trkpt lat="47.88914" lon="5.56435">
        <ele>286.3</ele>
        <time>2024-09-01T07:07:54Z</time>
      </trkpt>
      <trkpt lat="47.88906" lon="5.56454">
        <ele>286.4</ele>
        <time>2024-09-01T07:07:57Z</time>
      </trkpt>
      <trkpt lat="47.88883" lon="5.56506">
        <ele>286.5</ele>
        <time>2024-09-01T07:08:05Z</time>
      </trkpt>
      <trkpt lat="47.88876" lon="5.56517">
        <ele>286.3</ele>
        <time>2024-09-01T07:08:07Z</time>
      </trkpt>
      <trkpt lat="47.88858" lon="5.56535">
        <ele>286.2</ele>
        <time>2024-09-01T07:08:11Z</time>
      </trkpt>
      <trkpt lat="47.88834" lon="5.56565">
        <ele>287.1</ele>
        <time>2024-09-01T07:08:17Z</time>
      </trkpt>
      <trkpt lat="47.88827" lon="5.56576">
        <ele>287.5</ele>
        <time>2024-09-01T07:08:19Z</time>
      </trkpt>
      <trkpt lat="47.88817" lon="5.5659">
        <ele>288.1</ele>
        <time>2024-09-01T07:08:22Z</time>
      </trkpt>
      <trkpt lat="47.88814" lon="5.56595">
        <ele>288.2</ele>
        <time>2024-09-01T07:08:23Z</time>
      </trkpt>
      <trkpt lat="47.88808" lon="5.56604">
        <ele>288.4</ele>
        <time>2024-09-01T07:08:25Z</time>
      </trkpt>
      <trkpt lat="47.88802" lon="5.56613">
        <ele>288.6</ele>
        <time>2024-09-01T07:08:27Z</time>
      </trkpt>
      <trkpt lat="47.88793" lon="5.56627">
        <ele>288.6</ele>
        <time>2024-09-01T07:08:30Z</time>
      </trkpt>
      <trkpt lat="47.88784" lon="5.56633">
        <ele>288.4</ele>
        <time>2024-09-01T07:08:32Z</time>
      </trkpt>
      <trkpt lat="47.8878" lon="5.56636">
        <ele>288.2</ele>
        <time>2024-09-01T07:08:33Z</time>
      </trkpt>
      <trkpt lat="47.88771" lon="5.56641">
        <ele>287.7</ele>
        <time>2024-09-01T07:08:35Z</time>
      </trkpt>
      <trkpt lat="47.8876" lon="5.56649">
        <ele>287.2</ele>
        <time>2024-09-01T07:08:38Z</time>
      </trkpt>
      <trkpt lat="47.88753" lon="5.56655">
        <ele>287</ele>
        <time>2024-09-01T07:08:40Z</time>
      </trkpt>
      <trkpt lat="47.88748" lon="5.56668">
        <ele>286.9</ele>
        <time>2024-09-01T07:08:42Z</time>
      </trkpt>
      <trkpt lat="47.88742" lon="5.56681">
        <ele>287.2</ele>
        <time>2024-09-01T07:08:44Z</time>
      </trkpt>
      <trkpt lat="47.88737" lon="5.56694">
        <ele>287.6</ele>
        <time>2024-09-01T07:08:46Z</time>
      </trkpt>
      <trkpt lat="47.88732" lon="5.56707">
        <ele>287.9</ele>
        <time>2024-09-01T07:08:48Z</time>
      </trkpt>
      <trkpt lat="47.88726" lon="5.5672">
        <ele>288</ele>
        <time>2024-09-01T07:08:50Z</time>
      </trkpt>
      <trkpt lat="47.88724" lon="5.56726">
        <ele>288.1</ele>
        <time>2024-09-01T07:08:51Z</time>
      </trkpt>
      <trkpt lat="47.88718" lon="5.56739">
        <ele>288.2</ele>
        <time>2024-09-01T07:08:53Z</time>
      </trkpt>
      <trkpt lat="47.88703" lon="5.56762">
        <ele>288</ele>
        <time>2024-09-01T07:08:57Z</time>
      </trkpt>
      <trkpt lat="47.88683" lon="5.56797">
        <ele>287.4</ele>
        <time>2024-09-01T07:09:03Z</time>
      </trkpt>
      <trkpt lat="47.8868" lon="5.56803">
        <ele>287.2</ele>
        <time>2024-09-01T07:09:04Z</time>
      </trkpt>
      <trkpt lat="47.88668" lon="5.56828">
        <ele>286.7</ele>
        <time>2024-09-01T07:09:08Z</time>
      </trkpt>
      <trkpt lat="47.88648" lon="5.5687">
        <ele>285.3</ele>
        <time>2024-09-01T07:09:14Z</time>
      </trkpt>
      <trkpt lat="47.88621" lon="5.56903">
        <ele>283.6</ele>
        <time>2024-09-01T07:09:20Z</time>
      </trkpt>
      <trkpt lat="47.88588" lon="5.56921">
        <ele>282.5</ele>
        <time>2024-09-01T07:09:26Z</time>
      </trkpt>
      <trkpt lat="47.88583" lon="5.56922">
        <ele>282.5</ele>
        <time>2024-09-01T07:09:27Z</time>
      </trkpt>
      <trkpt lat="47.88566" lon="5.56925">
        <ele>282.4</ele>
        <time>2024-09-01T07:09:30Z</time>
      </trkpt>
      <trkpt lat="47.88561" lon="5.56925">
        <ele>282.4</ele>
        <time>2024-09-01T07:09:31Z</time>
      </trkpt>
      <trkpt lat="47.8855" lon="5.56927">
        <ele>282.5</ele>
        <time>2024-09-01T07:09:33Z</time>
      </trkpt>
      <trkpt lat="47.88533" lon="5.5693">
        <ele>282.9</ele>
        <time>2024-09-01T07:09:36Z</time>
      </trkpt>
      <trkpt lat="47.88522" lon="5.56932">
        <ele>283.6</ele>
        <time>2024-09-01T07:09:38Z</time>
      </trkpt>
      <trkpt lat="47.88506" lon="5.56934">
        <ele>284.4</ele>
        <time>2024-09-01T07:09:41Z</time>
      </trkpt>
      <trkpt lat="47.88487" lon="5.56937">
        <ele>284.9</ele>
        <time>2024-09-01T07:09:45Z</time>
      </trkpt>
      <trkpt lat="47.88477" lon="5.56941">
        <ele>285.4</ele>
        <time>2024-09-01T07:09:47Z</time>
      </trkpt>
      <trkpt lat="47.88451" lon="5.56961">
        <ele>285.9</ele>
        <time>2024-09-01T07:09:53Z</time>
      </trkpt>
      <trkpt lat="47.88418" lon="5.56978">
        <ele>285.9</ele>
        <time>2024-09-01T07:10:00Z</time>
      </trkpt>
      <trkpt lat="47.88408" lon="5.56979">
        <ele>286</ele>
        <time>2024-09-01T07:10:02Z</time>
      </trkpt>
      <trkpt lat="47.88394" lon="5.56975">
        <ele>286.1</ele>
        <time>2024-09-01T07:10:05Z</time>
      </trkpt>
      <trkpt lat="47.88374" lon="5.56966">
        <ele>286.2</ele>
        <time>2024-09-01T07:10:09Z</time>
      </trkpt>
      <trkpt lat="47.88364" lon="5.56961">
        <ele>286.3</ele>
        <time>2024-09-01T07:10:11Z</time>
      </trkpt>
      <trkpt lat="47.8836" lon="5.56959">
        <ele>286.3</ele>
        <time>2024-09-01T07:10:12Z</time>
      </trkpt>
      <trkpt lat="47.8834" lon="5.5695">
        <ele>286.3</ele>
        <time>2024-09-01T07:10:16Z</time>
      </trkpt>
      <trkpt lat="47.88334" lon="5.56947">
        <ele>286.4</ele>
        <time>2024-09-01T07:10:17Z</time>
      </trkpt>
      <trkpt lat="47.8832" lon="5.56945">
        <ele>286.5</ele>
        <time>2024-09-01T07:10:20Z</time>
      </trkpt>
      <trkpt lat="47.88314" lon="5.56945">
        <ele>286.6</ele>
        <time>2024-09-01T07:10:21Z</time>
      </trkpt>
      <trkpt lat="47.88269" lon="5.5694">
        <ele>286.9</ele>
        <time>2024-09-01T07:10:29Z</time>
      </trkpt>
      <trkpt lat="47.88246" lon="5.56935">
        <ele>286.7</ele>
        <time>2024-09-01T07:10:34Z</time>
      </trkpt>
      <trkpt lat="47.88238" lon="5.56929">
        <ele>286.7</ele>
        <time>2024-09-01T07:10:36Z</time>
      </trkpt>
      <trkpt lat="47.88222" lon="5.56919">
        <ele>286.7</ele>
        <time>2024-09-01T07:10:39Z</time>
      </trkpt>
      <trkpt lat="47.88195" lon="5.56901">
        <ele>286.8</ele>
        <time>2024-09-01T07:10:44Z</time>
      </trkpt>
      <trkpt lat="47.88185" lon="5.56895">
        <ele>286.8</ele>
        <time>2024-09-01T07:10:46Z</time>
      </trkpt>
      <trkpt lat="47.88173" lon="5.56887">
        <ele>286.8</ele>
        <time>2024-09-01T07:10:49Z</time>
      </trkpt>
      <trkpt lat="47.8817" lon="5.56885">
        <ele>286.8</ele>
        <time>2024-09-01T07:10:50Z</time>
      </trkpt>
      <trkpt lat="47.88157" lon="5.56877">
        <ele>286.6</ele>
        <time>2024-09-01T07:10:53Z</time>
      </trkpt>
      <trkpt lat="47.88153" lon="5.56874">
        <ele>286.5</ele>
        <time>2024-09-01T07:10:54Z</time>
      </trkpt>
      <trkpt lat="47.88123" lon="5.56855">
        <ele>286.2</ele>
        <time>2024-09-01T07:11:01Z</time>
      </trkpt>
      <trkpt lat="47.88118" lon="5.56856">
        <ele>286.3</ele>
        <time>2024-09-01T07:11:02Z</time>
      </trkpt>
      <trkpt lat="47.88113" lon="5.56857">
        <ele>286.3</ele>
        <time>2024-09-01T07:11:03Z</time>
      </trkpt>
      <trkpt lat="47.88095" lon="5.5686">
        <ele>286.5</ele>
        <time>2024-09-01T07:11:07Z</time>
      </trkpt>
      <trkpt lat="47.88089" lon="5.56861">
        <ele>286.5</ele>
        <time>2024-09-01T07:11:08Z</time>
      </trkpt>
      <trkpt lat="47.88078" lon="5.56863">
        <ele>286.1</ele>
        <time>2024-09-01T07:11:10Z</time>
      </trkpt>
      <trkpt lat="47.88073" lon="5.56862">
        <ele>285.9</ele>
        <time>2024-09-01T07:11:11Z</time>
      </trkpt>
      <trkpt lat="47.88068" lon="5.56861">
        <ele>285.8</ele>
        <time>2024-09-01T07:11:12Z</time>
      </trkpt>
      <trkpt lat="47.88049" lon="5.56858">
        <ele>284.9</ele>
        <time>2024-09-01T07:11:16Z</time>
      </trkpt>
      <trkpt lat="47.88022" lon="5.56854">
        <ele>283.2</ele>
        <time>2024-09-01T07:11:22Z</time>
      </trkpt>
      <trkpt lat="47.88018" lon="5.56853">
        <ele>282.9</ele>
        <time>2024-09-01T07:11:23Z</time>
      </trkpt>
      <trkpt lat="47.88009" lon="5.56852">
        <ele>282.5</ele>
        <time>2024-09-01T07:11:25Z</time>
      </trkpt>
      <trkpt lat="47.87998" lon="5.5685">
        <ele>281.9</ele>
        <time>2024-09-01T07:11:28Z</time>
      </trkpt>
      <trkpt lat="47.87996" lon="5.56849">
        <ele>281.8</ele>
        <time>2024-09-01T07:11:29Z</time>
      </trkpt>
      <trkpt lat="47.87976" lon="5.56836">
        <ele>281</ele>
        <time>2024-09-01T07:11:35Z</time>
      </trkpt>
      <trkpt lat="47.87962" lon="5.56822">
        <ele>280.7</ele>
        <time>2024-09-01T07:11:39Z</time>
      </trkpt>
      <trkpt lat="47.87959" lon="5.56818">
        <ele>280.6</ele>
        <time>2024-09-01T07:11:40Z</time>
      </trkpt>
      <trkpt lat="47.87952" lon="5.56811">
        <ele>280.5</ele>
        <time>2024-09-01T07:11:42Z</time>
      </trkpt>
      <trkpt lat="47.87946" lon="5.56805">
        <ele>280.3</ele>
        <time>2024-09-01T07:11:44Z</time>
      </trkpt>
      <trkpt lat="47.87939" lon="5.56789">
        <ele>280.1</ele>
        <time>2024-09-01T07:11:49Z</time>
      </trkpt>
      <trkpt lat="47.87937" lon="5.56784">
        <ele>280</ele>
        <time>2024-09-01T07:11:51Z</time>
      </trkpt>
      <trkpt lat="47.87934" lon="5.56779">
        <ele>280</ele>
        <time>2024-09-01T07:11:53Z</time>
      </trkpt>
      <trkpt lat="47.87917" lon="5.56762">
        <ele>279.8</ele>
        <time>2024-09-01T07:11:59Z</time>
      </trkpt>
      <trkpt lat="47.87892" lon="5.5675">
        <ele>279.9</ele>
        <time>2024-09-01T07:12:06Z</time>
      </trkpt>
      <trkpt lat="47.87883" lon="5.56745">
        <ele>279.9</ele>
        <time>2024-09-01T07:12:11Z</time>
      </trkpt>
      <trkpt lat="47.87883" lon="5.56745">
        <ele>279.9</ele>
        <time>2024-09-01T07:12:18Z</time>
      </trkpt>
      <trkpt lat="47.8785" lon="5.56715">
        <ele>280.1</ele>
        <time>2024-09-01T07:12:25Z</time>
      </trkpt>
      <trkpt lat="47.87871" lon="5.56735">
        <ele>280.5</ele>
        <time>2024-09-01T07:28:20Z</time>
      </trkpt>
      <trkpt lat="47.87876" lon="5.56739">
        <ele>280.6</ele>
        <time>2024-09-01T07:28:23Z</time>
      </trkpt>
      <trkpt lat="47.87889" lon="5.56748">
        <ele>280.5</ele>
        <time>2024-09-01T07:28:29Z</time>
      </trkpt>
      <trkpt lat="47.879" lon="5.56754">
        <ele>280.3</ele>
        <time>2024-09-01T07:28:36Z</time>
      </trkpt>
      <trkpt lat="47.87907" lon="5.56757">
        <ele>280.1</ele>
        <time>2024-09-01T07:28:42Z</time>
      </trkpt>
      <trkpt lat="47.87913" lon="5.5676">
        <ele>279.9</ele>
        <time>2024-09-01T07:28:44Z</time>
      </trkpt>
      <trkpt lat="47.87919" lon="5.56763">
        <ele>279.8</ele>
        <time>2024-09-01T07:28:48Z</time>
      </trkpt>
      <trkpt lat="47.87932" lon="5.56775">
        <ele>279.9</ele>
        <time>2024-09-01T07:28:53Z</time>
      </trkpt>
      <trkpt lat="47.87943" lon="5.56798">
        <ele>279.8</ele>
        <time>2024-09-01T07:28:58Z</time>
      </trkpt>
      <trkpt lat="47.87956" lon="5.56815">
        <ele>279.9</ele>
        <time>2024-09-01T07:29:03Z</time>
      </trkpt>
      <trkpt lat="47.87969" lon="5.56829">
        <ele>280.2</ele>
        <time>2024-09-01T07:29:08Z</time>
      </trkpt>
      <trkpt lat="47.87988" lon="5.56844">
        <ele>280.7</ele>
        <time>2024-09-01T07:29:14Z</time>
      </trkpt>
      <trkpt lat="47.88014" lon="5.56853">
        <ele>281.6</ele>
        <time>2024-09-01T07:29:20Z</time>
      </trkpt>
      <trkpt lat="47.88035" lon="5.56856">
        <ele>283</ele>
        <time>2024-09-01T07:29:26Z</time>
      </trkpt>
      <trkpt lat="47.88057" lon="5.56859">
        <ele>284.8</ele>
        <time>2024-09-01T07:29:32Z</time>
      </trkpt>
      <trkpt lat="47.88073" lon="5.56862">
        <ele>285.7</ele>
        <time>2024-09-01T07:29:37Z</time>
      </trkpt>
      <trkpt lat="47.88088" lon="5.56861">
        <ele>286.4</ele>
        <time>2024-09-01T07:29:41Z</time>
      </trkpt>
      <trkpt lat="47.88114" lon="5.56856">
        <ele>286.3</ele>
        <time>2024-09-01T07:29:47Z</time>
      </trkpt>
      <trkpt lat="47.88118" lon="5.56856">
        <ele>286.3</ele>
        <time>2024-09-01T07:29:48Z</time>
      </trkpt>
      <trkpt lat="47.88135" lon="5.56862">
        <ele>286.2</ele>
        <time>2024-09-01T07:29:52Z</time>
      </trkpt>
      <trkpt lat="47.88154" lon="5.56875">
        <ele>286.6</ele>
        <time>2024-09-01T07:29:57Z</time>
      </trkpt>
      <trkpt lat="47.88159" lon="5.56878">
        <ele>286.7</ele>
        <time>2024-09-01T07:29:58Z</time>
      </trkpt>
      <trkpt lat="47.8817" lon="5.56885">
        <ele>286.8</ele>
        <time>2024-09-01T07:30:01Z</time>
      </trkpt>
      <trkpt lat="47.88191" lon="5.56899">
        <ele>286.8</ele>
        <time>2024-09-01T07:30:07Z</time>
      </trkpt>
      <trkpt lat="47.88216" lon="5.56915">
        <ele>286.6</ele>
        <time>2024-09-01T07:30:13Z</time>
      </trkpt>
      <trkpt lat="47.88232" lon="5.56925">
        <ele>286.7</ele>
        <time>2024-09-01T07:30:18Z</time>
      </trkpt>
      <trkpt lat="47.88257" lon="5.56939">
        <ele>286.7</ele>
        <time>2024-09-01T07:30:24Z</time>
      </trkpt>
      <trkpt lat="47.88276" lon="5.56941">
        <ele>287.1</ele>
        <time>2024-09-01T07:30:29Z</time>
      </trkpt>
      <trkpt lat="47.88304" lon="5.56944">
        <ele>286.9</ele>
        <time>2024-09-01T07:30:36Z</time>
      </trkpt>
      <trkpt lat="47.88313" lon="5.56945">
        <ele>286.6</ele>
        <time>2024-09-01T07:30:38Z</time>
      </trkpt>
      <trkpt lat="47.88327" lon="5.56946">
        <ele>286.4</ele>
        <time>2024-09-01T07:30:41Z</time>
      </trkpt>
      <trkpt lat="47.88357" lon="5.56958">
        <ele>286.3</ele>
        <time>2024-09-01T07:30:48Z</time>
      </trkpt>
      <trkpt lat="47.88378" lon="5.56968">
        <ele>286.2</ele>
        <time>2024-09-01T07:30:53Z</time>
      </trkpt>
      <trkpt lat="47.884" lon="5.56978">
        <ele>286.1</ele>
        <time>2024-09-01T07:30:59Z</time>
      </trkpt>
      <trkpt lat="47.88426" lon="5.56977">
        <ele>285.9</ele>
        <time>2024-09-01T07:31:05Z</time>
      </trkpt>
      <trkpt lat="47.88431" lon="5.56976">
        <ele>285.9</ele>
        <time>2024-09-01T07:31:06Z</time>
      </trkpt>
      <trkpt lat="47.88452" lon="5.56961">
        <ele>285.8</ele>
        <time>2024-09-01T07:31:11Z</time>
      </trkpt>
      <trkpt lat="47.88479" lon="5.5694">
        <ele>285.3</ele>
        <time>2024-09-01T07:31:18Z</time>
      </trkpt>
      <trkpt lat="47.88514" lon="5.56933">
        <ele>284.1</ele>
        <time>2024-09-01T07:31:25Z</time>
      </trkpt>
      <trkpt lat="47.88543" lon="5.56928">
        <ele>282.6</ele>
        <time>2024-09-01T07:31:30Z</time>
      </trkpt>
      <trkpt lat="47.88566" lon="5.56925">
        <ele>282.4</ele>
        <time>2024-09-01T07:31:34Z</time>
      </trkpt>
      <trkpt lat="47.88571" lon="5.56924">
        <ele>282.4</ele>
        <time>2024-09-01T07:31:35Z</time>
      </trkpt>
      <trkpt lat="47.886" lon="5.56919">
        <ele>282.6</ele>
        <time>2024-09-01T07:31:41Z</time>
      </trkpt>
      <trkpt lat="47.88608" lon="5.56913">
        <ele>282.9</ele>
        <time>2024-09-01T07:31:43Z</time>
      </trkpt>
      <trkpt lat="47.88617" lon="5.56906">
        <ele>283.4</ele>
        <time>2024-09-01T07:31:45Z</time>
      </trkpt>
      <trkpt lat="47.8863" lon="5.56893">
        <ele>284.2</ele>
        <time>2024-09-01T07:31:49Z</time>
      </trkpt>
      <trkpt lat="47.88646" lon="5.56873">
        <ele>285.2</ele>
        <time>2024-09-01T07:31:54Z</time>
      </trkpt>
      <trkpt lat="47.8866" lon="5.56845">
        <ele>286.2</ele>
        <time>2024-09-01T07:32:00Z</time>
      </trkpt>
      <trkpt lat="47.88671" lon="5.56822">
        <ele>286.8</ele>
        <time>2024-09-01T07:32:05Z</time>
      </trkpt>
      <trkpt lat="47.88682" lon="5.56798">
        <ele>287.4</ele>
        <time>2024-09-01T07:32:10Z</time>
      </trkpt>
      <trkpt lat="47.88687" lon="5.56788">
        <ele>287.6</ele>
        <time>2024-09-01T07:32:12Z</time>
      </trkpt>
      <trkpt lat="47.88704" lon="5.5676">
        <ele>288</ele>
        <time>2024-09-01T07:32:18Z</time>
      </trkpt>
      <trkpt lat="47.88717" lon="5.5674">
        <ele>288.2</ele>
        <time>2024-09-01T07:32:23Z</time>
      </trkpt>
      <trkpt lat="47.88732" lon="5.56705">
        <ele>287.9</ele>
        <time>2024-09-01T07:32:29Z</time>
      </trkpt>
      <trkpt lat="47.88744" lon="5.56677">
        <ele>287.1</ele>
        <time>2024-09-01T07:32:34Z</time>
      </trkpt>
      <trkpt lat="47.88753" lon="5.56655">
        <ele>287</ele>
        <time>2024-09-01T07:32:37Z</time>
      </trkpt>
      <trkpt lat="47.8876" lon="5.56649">
        <ele>287.1</ele>
        <time>2024-09-01T07:32:39Z</time>
      </trkpt>
      <trkpt lat="47.88775" lon="5.56639">
        <ele>287.9</ele>
        <time>2024-09-01T07:32:43Z</time>
      </trkpt>
      <trkpt lat="47.8879" lon="5.56629">
        <ele>288.6</ele>
        <time>2024-09-01T07:32:47Z</time>
      </trkpt>
      <trkpt lat="47.88794" lon="5.56624">
        <ele>288.7</ele>
        <time>2024-09-01T07:32:48Z</time>
      </trkpt>
      <trkpt lat="47.88805" lon="5.56609">
        <ele>288.5</ele>
        <time>2024-09-01T07:32:51Z</time>
      </trkpt>
      <trkpt lat="47.88812" lon="5.56598">
        <ele>288.3</ele>
        <time>2024-09-01T07:32:53Z</time>
      </trkpt>
      <trkpt lat="47.88841" lon="5.56556">
        <ele>286.8</ele>
        <time>2024-09-01T07:33:00Z</time>
      </trkpt>
      <trkpt lat="47.88853" lon="5.56539">
        <ele>286.2</ele>
        <time>2024-09-01T07:33:03Z</time>
      </trkpt>
      <trkpt lat="47.88863" lon="5.56531">
        <ele>286.2</ele>
        <time>2024-09-01T07:33:05Z</time>
      </trkpt>
      <trkpt lat="47.88881" lon="5.56509">
        <ele>286.4</ele>
        <time>2024-09-01T07:33:10Z</time>
      </trkpt>
      <trkpt lat="47.88888" lon="5.56498">
        <ele>286.5</ele>
        <time>2024-09-01T07:33:12Z</time>
      </trkpt>
      <trkpt lat="47.88898" lon="5.56473">
        <ele>286.5</ele>
        <time>2024-09-01T07:33:16Z</time>
      </trkpt>
      <trkpt lat="47.88916" lon="5.5643">
        <ele>286.2</ele>
        <time>2024-09-01T07:33:23Z</time>
      </trkpt>
      <trkpt lat="47.88928" lon="5.56401">
        <ele>286</ele>
        <time>2024-09-01T07:33:28Z</time>
      </trkpt>
      <trkpt lat="47.88933" lon="5.56389">
        <ele>285.9</ele>
        <time>2024-09-01T07:33:30Z</time>
      </trkpt>
      <trkpt lat="47.88938" lon="5.56377">
        <ele>285.9</ele>
        <time>2024-09-01T07:33:32Z</time>
      </trkpt>
      <trkpt lat="47.88946" lon="5.56359">
        <ele>285.9</ele>
        <time>2024-09-01T07:33:35Z</time>
      </trkpt>
      <trkpt lat="47.88961" lon="5.56322">
        <ele>285.6</ele>
        <time>2024-09-01T07:33:41Z</time>
      </trkpt>
      <trkpt lat="47.88976" lon="5.56276">
        <ele>284.9</ele>
        <time>2024-09-01T07:33:48Z</time>
      </trkpt>
      <trkpt lat="47.88982" lon="5.5625">
        <ele>284.1</ele>
        <time>2024-09-01T07:33:52Z</time>
      </trkpt>
      <trkpt lat="47.88986" lon="5.56236">
        <ele>283.8</ele>
        <time>2024-09-01T07:33:54Z</time>
      </trkpt>
      <trkpt lat="47.88991" lon="5.56215">
        <ele>283.6</ele>
        <time>2024-09-01T07:33:57Z</time>
      </trkpt>
      <trkpt lat="47.88998" lon="5.56203">
        <ele>283.5</ele>
        <time>2024-09-01T07:33:59Z</time>
      </trkpt>
      <trkpt lat="47.89006" lon="5.56194">
        <ele>283.4</ele>
        <time>2024-09-01T07:34:01Z</time>
      </trkpt>
      <trkpt lat="47.89018" lon="5.56185">
        <ele>283.2</ele>
        <time>2024-09-01T07:34:04Z</time>
      </trkpt>
      <trkpt lat="47.89044" lon="5.56174">
        <ele>282.9</ele>
        <time>2024-09-01T07:34:09Z</time>
      </trkpt>
      <trkpt lat="47.8907" lon="5.56162">
        <ele>282.6</ele>
        <time>2024-09-01T07:34:14Z</time>
      </trkpt>
      <trkpt lat="47.89095" lon="5.56148">
        <ele>282.5</ele>
        <time>2024-09-01T07:34:19Z</time>
      </trkpt>
      <trkpt lat="47.89123" lon="5.56125">
        <ele>282.3</ele>
        <time>2024-09-01T07:34:25Z</time>
      </trkpt>
      <trkpt lat="47.89127" lon="5.56122">
        <ele>282.3</ele>
        <time>2024-09-01T07:34:26Z</time>
      </trkpt>
      <trkpt lat="47.8914" lon="5.56111">
        <ele>282.1</ele>
        <time>2024-09-01T07:34:29Z</time>
      </trkpt>
      <trkpt lat="47.89144" lon="5.56108">
        <ele>282.1</ele>
        <time>2024-09-01T07:34:30Z</time>
      </trkpt>
      <trkpt lat="47.8916" lon="5.56094">
        <ele>281.9</ele>
        <time>2024-09-01T07:34:34Z</time>
      </trkpt>
      <trkpt lat="47.8918" lon="5.56073">
        <ele>281.5</ele>
        <time>2024-09-01T07:34:39Z</time>
      </trkpt>
      <trkpt lat="47.89183" lon="5.5607">
        <ele>281.5</ele>
        <time>2024-09-01T07:34:40Z</time>
      </trkpt>
      <trkpt lat="47.89191" lon="5.56062">
        <ele>281.3</ele>
        <time>2024-09-01T07:34:42Z</time>
      </trkpt>
      <trkpt lat="47.89203" lon="5.56035">
        <ele>280.7</ele>
        <time>2024-09-01T07:34:46Z</time>
      </trkpt>
      <trkpt lat="47.89206" lon="5.5603">
        <ele>280.6</ele>
        <time>2024-09-01T07:34:47Z</time>
      </trkpt>
      <trkpt lat="47.89218" lon="5.55999">
        <ele>280.1</ele>
        <time>2024-09-01T07:34:52Z</time>
      </trkpt>
      <trkpt lat="47.89226" lon="5.55981">
        <ele>279.8</ele>
        <time>2024-09-01T07:34:55Z</time>
      </trkpt>
      <trkpt lat="47.89234" lon="5.55964">
        <ele>279.5</ele>
        <time>2024-09-01T07:34:58Z</time>
      </trkpt>
      <trkpt lat="47.89246" lon="5.5595">
        <ele>279.3</ele>
        <time>2024-09-01T07:35:01Z</time>
      </trkpt>
      <trkpt lat="47.89255" lon="5.55946">
        <ele>279.1</ele>
        <time>2024-09-01T07:35:03Z</time>
      </trkpt>
      <trkpt lat="47.8926" lon="5.55944">
        <ele>279.1</ele>
        <time>2024-09-01T07:35:04Z</time>
      </trkpt>
      <trkpt lat="47.89281" lon="5.55933">
        <ele>278.5</ele>
        <time>2024-09-01T07:35:08Z</time>
      </trkpt>
      <trkpt lat="47.893" lon="5.55921">
        <ele>277.7</ele>
        <time>2024-09-01T07:35:12Z</time>
      </trkpt>
      <trkpt lat="47.89315" lon="5.55903">
        <ele>276.8</ele>
        <time>2024-09-01T07:35:15Z</time>
      </trkpt>
      <trkpt lat="47.89325" lon="5.5589">
        <ele>276.5</ele>
        <time>2024-09-01T07:35:17Z</time>
      </trkpt>
      <trkpt lat="47.89355" lon="5.5584">
        <ele>275.7</ele>
        <time>2024-09-01T07:35:24Z</time>
      </trkpt>
      <trkpt lat="47.89375" lon="5.55803">
        <ele>275.1</ele>
        <time>2024-09-01T07:35:30Z</time>
      </trkpt>
      <trkpt lat="47.89393" lon="5.55768">
        <ele>274.7</ele>
        <time>2024-09-01T07:35:36Z</time>
      </trkpt>
      <trkpt lat="47.89414" lon="5.55735">
        <ele>274</ele>
        <time>2024-09-01T07:35:43Z</time>
      </trkpt>
      <trkpt lat="47.89417" lon="5.55731">
        <ele>273.9</ele>
        <time>2024-09-01T07:35:44Z</time>
      </trkpt>
      <trkpt lat="47.89432" lon="5.55715">
        <ele>273.3</ele>
        <time>2024-09-01T07:35:48Z</time>
      </trkpt>
      <trkpt lat="47.89435" lon="5.55712">
        <ele>273.1</ele>
        <time>2024-09-01T07:35:49Z</time>
      </trkpt>
      <trkpt lat="47.89455" lon="5.55697">
        <ele>272.4</ele>
        <time>2024-09-01T07:35:55Z</time>
      </trkpt>
      <trkpt lat="47.89469" lon="5.55689">
        <ele>271.9</ele>
        <time>2024-09-01T07:36:00Z</time>
      </trkpt>
      <trkpt lat="47.89469" lon="5.55689">
        <ele>271.9</ele>
        <time>2024-09-01T07:36:01Z</time>
      </trkpt>
      <trkpt lat="47.89484" lon="5.55714">
        <ele>271</ele>
        <time>2024-09-01T07:36:05Z</time>
      </trkpt>
      <trkpt lat="47.89488" lon="5.55753">
        <ele>270</ele>
        <time>2024-09-01T07:36:10Z</time>
      </trkpt>
      <trkpt lat="47.89505" lon="5.55801">
        <ele>269.2</ele>
        <time>2024-09-01T07:36:16Z</time>
      </trkpt>
      <trkpt lat="47.89518" lon="5.55837">
        <ele>268.8</ele>
        <time>2024-09-01T07:36:21Z</time>
      </trkpt>
      <trkpt lat="47.89519" lon="5.55845">
        <ele>268.7</ele>
        <time>2024-09-01T07:36:22Z</time>
      </trkpt>
      <trkpt lat="47.89522" lon="5.55862">
        <ele>268.5</ele>
        <time>2024-09-01T07:36:24Z</time>
      </trkpt>
      <trkpt lat="47.8952" lon="5.5589">
        <ele>268.4</ele>
        <time>2024-09-01T07:36:27Z</time>
      </trkpt>
      <trkpt lat="47.89519" lon="5.55908">
        <ele>268.4</ele>
        <time>2024-09-01T07:36:29Z</time>
      </trkpt>
      <trkpt lat="47.89517" lon="5.55933">
        <ele>268.4</ele>
        <time>2024-09-01T07:36:32Z</time>
      </trkpt>
      <trkpt lat="47.89514" lon="5.55983">
        <ele>268.6</ele>
        <time>2024-09-01T07:36:38Z</time>
      </trkpt>
      <trkpt lat="47.89513" lon="5.55991">
        <ele>268.6</ele>
        <time>2024-09-01T07:36:39Z</time>
      </trkpt>
      <trkpt lat="47.89508" lon="5.56005">
        <ele>268.7</ele>
        <time>2024-09-01T07:36:41Z</time>
      </trkpt>
      <trkpt lat="47.89505" lon="5.56012">
        <ele>268.7</ele>
        <time>2024-09-01T07:36:42Z</time>
      </trkpt>
      <trkpt lat="47.89502" lon="5.56019">
        <ele>268.8</ele>
        <time>2024-09-01T07:36:43Z</time>
      </trkpt>
      <trkpt lat="47.89487" lon="5.56041">
        <ele>269.1</ele>
        <time>2024-09-01T07:36:47Z</time>
      </trkpt>
      <trkpt lat="47.8945" lon="5.56091">
        <ele>271</ele>
        <time>2024-09-01T07:36:56Z</time>
      </trkpt>
      <trkpt lat="47.89421" lon="5.5613">
        <ele>273</ele>
        <time>2024-09-01T07:37:04Z</time>
      </trkpt>
      <trkpt lat="47.89397" lon="5.56167">
        <ele>274.5</ele>
        <time>2024-09-01T07:37:12Z</time>
      </trkpt>
      <trkpt lat="47.8937" lon="5.56212">
        <ele>276.3</ele>
        <time>2024-09-01T07:37:21Z</time>
      </trkpt>
      <trkpt lat="47.89361" lon="5.56235">
        <ele>276.9</ele>
        <time>2024-09-01T07:37:25Z</time>
      </trkpt>
      <trkpt lat="47.89351" lon="5.56257">
        <ele>277.4</ele>
        <time>2024-09-01T07:37:29Z</time>
      </trkpt>
      <trkpt lat="47.89335" lon="5.56302">
        <ele>278.1</ele>
        <time>2024-09-01T07:37:36Z</time>
      </trkpt>
      <trkpt lat="47.8932" lon="5.5635">
        <ele>278.6</ele>
        <time>2024-09-01T07:37:43Z</time>
      </trkpt>
      <trkpt lat="47.89304" lon="5.56403">
        <ele>278.9</ele>
        <time>2024-09-01T07:37:51Z</time>
      </trkpt>
      <trkpt lat="47.8929" lon="5.56452">
        <ele>279</ele>
        <time>2024-09-01T07:37:58Z</time>
      </trkpt>
      <trkpt lat="47.89283" lon="5.56474">
        <ele>279.1</ele>
        <time>2024-09-01T07:38:01Z</time>
      </trkpt>
      <trkpt lat="47.89282" lon="5.5649">
        <ele>279.1</ele>
        <time>2024-09-01T07:38:03Z</time>
      </trkpt>
      <trkpt lat="47.89283" lon="5.56505">
        <ele>279.1</ele>
        <time>2024-09-01T07:38:05Z</time>
      </trkpt>
      <trkpt lat="47.89288" lon="5.56527">
        <ele>279.1</ele>
        <time>2024-09-01T07:38:08Z</time>
      </trkpt>
      <trkpt lat="47.8929" lon="5.56535">
        <ele>279.1</ele>
        <time>2024-09-01T07:38:09Z</time>
      </trkpt>
      <trkpt lat="47.893" lon="5.56565">
        <ele>279.3</ele>
        <time>2024-09-01T07:38:13Z</time>
      </trkpt>
      <trkpt lat="47.89311" lon="5.56602">
        <ele>279.8</ele>
        <time>2024-09-01T07:38:18Z</time>
      </trkpt>
      <trkpt lat="47.89315" lon="5.56614">
        <ele>280.1</ele>
        <time>2024-09-01T07:38:20Z</time>
      </trkpt>
      <trkpt lat="47.89317" lon="5.5662">
        <ele>280.2</ele>
        <time>2024-09-01T07:38:21Z</time>
      </trkpt>
      <trkpt lat="47.89321" lon="5.56632">
        <ele>280.4</ele>
        <time>2024-09-01T07:38:23Z</time>
      </trkpt>
      <trkpt lat="47.89324" lon="5.56645">
        <ele>280.6</ele>
        <time>2024-09-01T07:38:25Z</time>
      </trkpt>
      <trkpt lat="47.89325" lon="5.56661">
        <ele>280.8</ele>
        <time>2024-09-01T07:38:27Z</time>
      </trkpt>
      <trkpt lat="47.89323" lon="5.56676">
        <ele>281.1</ele>
        <time>2024-09-01T07:38:29Z</time>
      </trkpt>
      <trkpt lat="47.89315" lon="5.56689">
        <ele>281.4</ele>
        <time>2024-09-01T07:38:31Z</time>
      </trkpt>
      <trkpt lat="47.89311" lon="5.56693">
        <ele>281.6</ele>
        <time>2024-09-01T07:38:32Z</time>
      </trkpt>
      <trkpt lat="47.89307" lon="5.56696">
        <ele>281.8</ele>
        <time>2024-09-01T07:38:33Z</time>
      </trkpt>
      <trkpt lat="47.89296" lon="5.56703">
        <ele>282.5</ele>
        <time>2024-09-01T07:38:36Z</time>
      </trkpt>
      <trkpt lat="47.89274" lon="5.56706">
        <ele>284.1</ele>
        <time>2024-09-01T07:38:43Z</time>
      </trkpt>
      <trkpt lat="47.89253" lon="5.5671">
        <ele>285.7</ele>
        <time>2024-09-01T07:38:50Z</time>
      </trkpt>
      <trkpt lat="47.89235" lon="5.56713">
        <ele>287.1</ele>
        <time>2024-09-01T07:38:56Z</time>
      </trkpt>
      <trkpt lat="47.89213" lon="5.56717">
        <ele>289.2</ele>
        <time>2024-09-01T07:39:04Z</time>
      </trkpt>
      <trkpt lat="47.89208" lon="5.56717">
        <ele>289.6</ele>
        <time>2024-09-01T07:39:06Z</time>
      </trkpt>
      <trkpt lat="47.89203" lon="5.56718">
        <ele>289.9</ele>
        <time>2024-09-01T07:39:08Z</time>
      </trkpt>
      <trkpt lat="47.89191" lon="5.5672">
        <ele>290.8</ele>
        <time>2024-09-01T07:39:13Z</time>
      </trkpt>
      <trkpt lat="47.89175" lon="5.56728">
        <ele>291.9</ele>
        <time>2024-09-01T07:39:18Z</time>
      </trkpt>
      <trkpt lat="47.89163" lon="5.56743">
        <ele>292.8</ele>
        <time>2024-09-01T07:39:23Z</time>
      </trkpt>
      <trkpt lat="47.89151" lon="5.56764">
        <ele>293.8</ele>
        <time>2024-09-01T07:39:29Z</time>
      </trkpt>
      <trkpt lat="47.89132" lon="5.56794">
        <ele>295.4</ele>
        <time>2024-09-01T07:39:38Z</time>
      </trkpt>
      <trkpt lat="47.89116" lon="5.56811">
        <ele>296.5</ele>
        <time>2024-09-01T07:39:44Z</time>
      </trkpt>
      <trkpt lat="47.89097" lon="5.56829">
        <ele>297.9</ele>
        <time>2024-09-01T07:39:52Z</time>
      </trkpt>
      <trkpt lat="47.89081" lon="5.56843">
        <ele>299.2</ele>
        <time>2024-09-01T07:39:59Z</time>
      </trkpt>
      <trkpt lat="47.89068" lon="5.56868">
        <ele>301.1</ele>
        <time>2024-09-01T07:40:06Z</time>
      </trkpt>
      <trkpt lat="47.89071" lon="5.5688">
        <ele>302</ele>
        <time>2024-09-01T07:40:13Z</time>
      </trkpt>
      <trkpt lat="47.89079" lon="5.5689">
        <ele>303.2</ele>
        <time>2024-09-01T07:40:18Z</time>
      </trkpt>
      <trkpt lat="47.89089" lon="5.56895">
        <ele>304.2</ele>
        <time>2024-09-01T07:40:23Z</time>
      </trkpt>
      <trkpt lat="47.89092" lon="5.56897">
        <ele>304.5</ele>
        <time>2024-09-01T07:40:25Z</time>
      </trkpt>
      <trkpt lat="47.89099" lon="5.56891">
        <ele>305.2</ele>
        <time>2024-09-01T07:40:28Z</time>
      </trkpt>
      <trkpt lat="47.8911" lon="5.56882">
        <ele>306.2</ele>
        <time>2024-09-01T07:40:33Z</time>
      </trkpt>
      <trkpt lat="47.8912" lon="5.56873">
        <ele>307.1</ele>
        <time>2024-09-01T07:40:38Z</time>
      </trkpt>
      <trkpt lat="47.8913" lon="5.56864">
        <ele>308</ele>
        <time>2024-09-01T07:40:43Z</time>
      </trkpt>
      <trkpt lat="47.89143" lon="5.56852">
        <ele>309.1</ele>
        <time>2024-09-01T07:40:49Z</time>
      </trkpt>
      <trkpt lat="47.89161" lon="5.56835">
        <ele>310.5</ele>
        <time>2024-09-01T07:40:58Z</time>
      </trkpt>
      <trkpt lat="47.89174" lon="5.56831">
        <ele>311.4</ele>
        <time>2024-09-01T07:41:04Z</time>
      </trkpt>
      <trkpt lat="47.89189" lon="5.56829">
        <ele>312.6</ele>
        <time>2024-09-01T07:41:11Z</time>
      </trkpt>
      <trkpt lat="47.89204" lon="5.56829">
        <ele>314</ele>
        <time>2024-09-01T07:41:18Z</time>
      </trkpt>
      <trkpt lat="47.89212" lon="5.56831">
        <ele>314.6</ele>
        <time>2024-09-01T07:41:22Z</time>
      </trkpt>
      <trkpt lat="47.89214" lon="5.56832">
        <ele>314.8</ele>
        <time>2024-09-01T07:41:23Z</time>
      </trkpt>
      <trkpt lat="47.89227" lon="5.56838">
        <ele>315.9</ele>
        <time>2024-09-01T07:41:29Z</time>
      </trkpt>
      <trkpt lat="47.89241" lon="5.56845">
        <ele>317</ele>
        <time>2024-09-01T07:41:35Z</time>
      </trkpt>
      <trkpt lat="47.89254" lon="5.56857">
        <ele>318.2</ele>
        <time>2024-09-01T07:41:41Z</time>
      </trkpt>
      <trkpt lat="47.89264" lon="5.56869">
        <ele>319.1</ele>
        <time>2024-09-01T07:41:47Z</time>
      </trkpt>
      <trkpt lat="47.89272" lon="5.56879">
        <ele>319.8</ele>
        <time>2024-09-01T07:41:52Z</time>
      </trkpt>
      <trkpt lat="47.89283" lon="5.56892">
        <ele>320.8</ele>
        <time>2024-09-01T07:41:57Z</time>
      </trkpt>
      <trkpt lat="47.89293" lon="5.56905">
        <ele>321.7</ele>
        <time>2024-09-01T07:42:02Z</time>
      </trkpt>
      <trkpt lat="47.89301" lon="5.56915">
        <ele>322.5</ele>
        <time>2024-09-01T07:42:06Z</time>
      </trkpt>
      <trkpt lat="47.89312" lon="5.56928">
        <ele>323.4</ele>
        <time>2024-09-01T07:42:11Z</time>
      </trkpt>
      <trkpt lat="47.89321" lon="5.56939">
        <ele>324.2</ele>
        <time>2024-09-01T07:42:16Z</time>
      </trkpt>
      <trkpt lat="47.89332" lon="5.56954">
        <ele>325.2</ele>
        <time>2024-09-01T07:42:21Z</time>
      </trkpt>
      <trkpt lat="47.89336" lon="5.56959">
        <ele>325.5</ele>
        <time>2024-09-01T07:42:23Z</time>
      </trkpt>
      <trkpt lat="47.8934" lon="5.56963">
        <ele>325.8</ele>
        <time>2024-09-01T07:42:25Z</time>
      </trkpt>
      <trkpt lat="47.89348" lon="5.56974">
        <ele>326.6</ele>
        <time>2024-09-01T07:42:30Z</time>
      </trkpt>
      <trkpt lat="47.89358" lon="5.56989">
        <ele>327.6</ele>
        <time>2024-09-01T07:42:36Z</time>
      </trkpt>
      <trkpt lat="47.89364" lon="5.56998">
        <ele>328.1</ele>
        <time>2024-09-01T07:42:39Z</time>
      </trkpt>
      <trkpt lat="47.89367" lon="5.57004">
        <ele>328.5</ele>
        <time>2024-09-01T07:42:41Z</time>
      </trkpt>
      <trkpt lat="47.89378" lon="5.57022">
        <ele>329.8</ele>
        <time>2024-09-01T07:42:47Z</time>
      </trkpt>
      <trkpt lat="47.8939" lon="5.57041">
        <ele>331</ele>
        <time>2024-09-01T07:42:53Z</time>
      </trkpt>
      <trkpt lat="47.89398" lon="5.57054">
        <ele>332</ele>
        <time>2024-09-01T07:42:58Z</time>
      </trkpt>
      <trkpt lat="47.894" lon="5.57056">
        <ele>332.2</ele>
        <time>2024-09-01T07:42:59Z</time>
      </trkpt>
      <trkpt lat="47.89403" lon="5.5706">
        <ele>332.5</ele>
        <time>2024-09-01T07:43:01Z</time>
      </trkpt>
      <trkpt lat="47.89405" lon="5.57062">
        <ele>332.7</ele>
        <time>2024-09-01T07:43:02Z</time>
      </trkpt>
      <trkpt lat="47.89414" lon="5.5707">
        <ele>333.5</ele>
        <time>2024-09-01T07:43:06Z</time>
      </trkpt>
      <trkpt lat="47.89425" lon="5.57082">
        <ele>334.5</ele>
        <time>2024-09-01T07:43:12Z</time>
      </trkpt>
      <trkpt lat="47.89432" lon="5.57089">
        <ele>335.1</ele>
        <time>2024-09-01T07:43:16Z</time>
      </trkpt>
      <trkpt lat="47.89436" lon="5.57092">
        <ele>335.4</ele>
        <time>2024-09-01T07:43:17Z</time>
      </trkpt>
      <trkpt lat="47.8944" lon="5.57097">
        <ele>335.7</ele>
        <time>2024-09-01T07:43:20Z</time>
      </trkpt>
      <trkpt lat="47.89451" lon="5.57107">
        <ele>336.5</ele>
        <time>2024-09-01T07:43:25Z</time>
      </trkpt>
      <trkpt lat="47.8947" lon="5.57122">
        <ele>337.9</ele>
        <time>2024-09-01T07:43:33Z</time>
      </trkpt>
      <trkpt lat="47.89487" lon="5.57134">
        <ele>339.1</ele>
        <time>2024-09-01T07:43:40Z</time>
      </trkpt>
      <trkpt lat="47.89501" lon="5.57145">
        <ele>340.2</ele>
        <time>2024-09-01T07:43:46Z</time>
      </trkpt>
      <trkpt lat="47.89509" lon="5.57151">
        <ele>340.8</ele>
        <time>2024-09-01T07:43:50Z</time>
      </trkpt>
      <trkpt lat="47.89522" lon="5.5716">
        <ele>341.7</ele>
        <time>2024-09-01T07:43:56Z</time>
      </trkpt>
      <trkpt lat="47.89541" lon="5.57174">
        <ele>343.3</ele>
        <time>2024-09-01T07:44:05Z</time>
      </trkpt>
      <trkpt lat="47.89543" lon="5.57176">
        <ele>343.5</ele>
        <time>2024-09-01T07:44:06Z</time>
      </trkpt>
      <trkpt lat="47.89553" lon="5.57182">
        <ele>344.3</ele>
        <time>2024-09-01T07:44:10Z</time>
      </trkpt>
      <trkpt lat="47.89566" lon="5.57192">
        <ele>345.4</ele>
        <time>2024-09-01T07:44:16Z</time>
      </trkpt>
      <trkpt lat="47.89568" lon="5.57193">
        <ele>345.5</ele>
        <time>2024-09-01T07:44:17Z</time>
      </trkpt>
      <trkpt lat="47.89571" lon="5.57196">
        <ele>345.9</ele>
        <time>2024-09-01T07:44:19Z</time>
      </trkpt>
      <trkpt lat="47.89574" lon="5.57198">
        <ele>346.1</ele>
        <time>2024-09-01T07:44:20Z</time>
      </trkpt>
      <trkpt lat="47.89586" lon="5.57207">
        <ele>346.9</ele>
        <time>2024-09-01T07:44:25Z</time>
      </trkpt>
      <trkpt lat="47.89601" lon="5.57221">
        <ele>347.9</ele>
        <time>2024-09-01T07:44:30Z</time>
      </trkpt>
      <trkpt lat="47.89613" lon="5.57232">
        <ele>348.7</ele>
        <time>2024-09-01T07:44:35Z</time>
      </trkpt>
      <trkpt lat="47.89616" lon="5.57235">
        <ele>348.9</ele>
        <time>2024-09-01T07:44:37Z</time>
      </trkpt>
      <trkpt lat="47.89627" lon="5.57245">
        <ele>349.6</ele>
        <time>2024-09-01T07:44:41Z</time>
      </trkpt>
      <trkpt lat="47.89637" lon="5.57257">
        <ele>350.3</ele>
        <time>2024-09-01T07:44:46Z</time>
      </trkpt>
      <trkpt lat="47.89648" lon="5.57271">
        <ele>351.1</ele>
        <time>2024-09-01T07:44:52Z</time>
      </trkpt>
      <trkpt lat="47.89656" lon="5.57282">
        <ele>351.8</ele>
        <time>2024-09-01T07:44:56Z</time>
      </trkpt>
      <trkpt lat="47.89669" lon="5.573">
        <ele>352.8</ele>
        <time>2024-09-01T07:45:02Z</time>
      </trkpt>
      <trkpt lat="47.89681" lon="5.57317">
        <ele>353.7</ele>
        <time>2024-09-01T07:45:08Z</time>
      </trkpt>
      <trkpt lat="47.89693" lon="5.57333">
        <ele>354.6</ele>
        <time>2024-09-01T07:45:14Z</time>
      </trkpt>
      <trkpt lat="47.89705" lon="5.5735">
        <ele>355.6</ele>
        <time>2024-09-01T07:45:20Z</time>
      </trkpt>
      <trkpt lat="47.89717" lon="5.57372">
        <ele>356.7</ele>
        <time>2024-09-01T07:45:26Z</time>
      </trkpt>
      <trkpt lat="47.89727" lon="5.57404">
        <ele>358</ele>
        <time>2024-09-01T07:45:34Z</time>
      </trkpt>
      <trkpt lat="47.89732" lon="5.5743">
        <ele>358.9</ele>
        <time>2024-09-01T07:45:40Z</time>
      </trkpt>
      <trkpt lat="47.89734" lon="5.57455">
        <ele>359.2</ele>
        <time>2024-09-01T07:45:45Z</time>
      </trkpt>
      <trkpt lat="47.89733" lon="5.57487">
        <ele>359.9</ele>
        <time>2024-09-01T07:45:51Z</time>
      </trkpt>
      <trkpt lat="47.89732" lon="5.57516">
        <ele>360.6</ele>
        <time>2024-09-01T07:45:56Z</time>
      </trkpt>
      <trkpt lat="47.89731" lon="5.57544">
        <ele>361.1</ele>
        <time>2024-09-01T07:46:01Z</time>
      </trkpt>
      <trkpt lat="47.8973" lon="5.57573">
        <ele>361.6</ele>
        <time>2024-09-01T07:46:06Z</time>
      </trkpt>
      <trkpt lat="47.89729" lon="5.57586">
        <ele>361.8</ele>
        <time>2024-09-01T07:46:08Z</time>
      </trkpt>
      <trkpt lat="47.89728" lon="5.57604">
        <ele>362</ele>
        <time>2024-09-01T07:46:11Z</time>
      </trkpt>
      <trkpt lat="47.89727" lon="5.57647">
        <ele>362.5</ele>
        <time>2024-09-01T07:46:17Z</time>
      </trkpt>
      <trkpt lat="47.89725" lon="5.57691">
        <ele>362.7</ele>
        <time>2024-09-01T07:46:23Z</time>
      </trkpt>
      <trkpt lat="47.89724" lon="5.5773">
        <ele>363</ele>
        <time>2024-09-01T07:46:28Z</time>
      </trkpt>
      <trkpt lat="47.89723" lon="5.57738">
        <ele>363</ele>
        <time>2024-09-01T07:46:29Z</time>
      </trkpt>
      <trkpt lat="47.89721" lon="5.57797">
        <ele>363.7</ele>
        <time>2024-09-01T07:46:36Z</time>
      </trkpt>
      <trkpt lat="47.8972" lon="5.57812">
        <ele>363.8</ele>
        <time>2024-09-01T07:46:38Z</time>
      </trkpt>
      <trkpt lat="47.8972" lon="5.57827">
        <ele>364</ele>
        <time>2024-09-01T07:46:40Z</time>
      </trkpt>
      <trkpt lat="47.89719" lon="5.57834">
        <ele>364.1</ele>
        <time>2024-09-01T07:46:41Z</time>
      </trkpt>
      <trkpt lat="47.89719" lon="5.57842">
        <ele>364.2</ele>
        <time>2024-09-01T07:46:42Z</time>
      </trkpt>
      <trkpt lat="47.89718" lon="5.57865">
        <ele>364.4</ele>
        <time>2024-09-01T07:46:45Z</time>
      </trkpt>
      <trkpt lat="47.89717" lon="5.57881">
        <ele>364.5</ele>
        <time>2024-09-01T07:46:47Z</time>
      </trkpt>
      <trkpt lat="47.89715" lon="5.57934">
        <ele>364.5</ele>
        <time>2024-09-01T07:46:53Z</time>
      </trkpt>
      <trkpt lat="47.89712" lon="5.58">
        <ele>363.8</ele>
        <time>2024-09-01T07:47:00Z</time>
      </trkpt>
      <trkpt lat="47.89711" lon="5.58009">
        <ele>363.7</ele>
        <time>2024-09-01T07:47:01Z</time>
      </trkpt>
      <trkpt lat="47.8971" lon="5.58027">
        <ele>363.3</ele>
        <time>2024-09-01T07:47:03Z</time>
      </trkpt>
      <trkpt lat="47.89708" lon="5.58081">
        <ele>362.3</ele>
        <time>2024-09-01T07:47:08Z</time>
      </trkpt>
      <trkpt lat="47.89704" lon="5.58163">
        <ele>360.4</ele>
        <time>2024-09-01T07:47:15Z</time>
      </trkpt>
      <trkpt lat="47.897" lon="5.58235">
        <ele>358.2</ele>
        <time>2024-09-01T07:47:21Z</time>
      </trkpt>
      <trkpt lat="47.89696" lon="5.58316">
        <ele>355.1</ele>
        <time>2024-09-01T07:47:27Z</time>
      </trkpt>
      <trkpt lat="47.89695" lon="5.58331">
        <ele>354.6</ele>
        <time>2024-09-01T07:47:28Z</time>
      </trkpt>
      <trkpt lat="47.89692" lon="5.58401">
        <ele>353.2</ele>
        <time>2024-09-01T07:47:33Z</time>
      </trkpt>
      <trkpt lat="47.89687" lon="5.58474">
        <ele>353.4</ele>
        <time>2024-09-01T07:47:39Z</time>
      </trkpt>
      <trkpt lat="47.89684" lon="5.58539">
        <ele>355.2</ele>
        <time>2024-09-01T07:47:45Z</time>
      </trkpt>
      <trkpt lat="47.89682" lon="5.58576">
        <ele>356.6</ele>
        <time>2024-09-01T07:47:49Z</time>
      </trkpt>
      <trkpt lat="47.89681" lon="5.58585">
        <ele>357</ele>
        <time>2024-09-01T07:47:50Z</time>
      </trkpt>
      <trkpt lat="47.89679" lon="5.58624">
        <ele>358.4</ele>
        <time>2024-09-01T07:47:55Z</time>
      </trkpt>
      <trkpt lat="47.89679" lon="5.58639">
        <ele>358.8</ele>
        <time>2024-09-01T07:47:57Z</time>
      </trkpt>
      <trkpt lat="47.89679" lon="5.5868">
        <ele>360</ele>
        <time>2024-09-01T07:48:04Z</time>
      </trkpt>
      <trkpt lat="47.89679" lon="5.58711">
        <ele>360.7</ele>
        <time>2024-09-01T07:48:09Z</time>
      </trkpt>
      <trkpt lat="47.8968" lon="5.58757">
        <ele>361.4</ele>
        <time>2024-09-01T07:48:16Z</time>
      </trkpt>
      <trkpt lat="47.89681" lon="5.58819">
        <ele>361.8</ele>
        <time>2024-09-01T07:48:24Z</time>
      </trkpt>
      <trkpt lat="47.89681" lon="5.58884">
        <ele>362</ele>
        <time>2024-09-01T07:48:32Z</time>
      </trkpt>
      <trkpt lat="47.89682" lon="5.58944">
        <ele>362</ele>
        <time>2024-09-01T07:48:40Z</time>
      </trkpt>
      <trkpt lat="47.89683" lon="5.5901">
        <ele>361.8</ele>
        <time>2024-09-01T07:48:48Z</time>
      </trkpt>
      <trkpt lat="47.89683" lon="5.59092">
        <ele>360.4</ele>
        <time>2024-09-01T07:48:57Z</time>
      </trkpt>
      <trkpt lat="47.89684" lon="5.5918">
        <ele>358.8</ele>
        <time>2024-09-01T07:49:06Z</time>
      </trkpt>
      <trkpt lat="47.89684" lon="5.5919">
        <ele>358.6</ele>
        <time>2024-09-01T07:49:07Z</time>
      </trkpt>
      <trkpt lat="47.89686" lon="5.59265">
        <ele>357.4</ele>
        <time>2024-09-01T07:49:14Z</time>
      </trkpt>
      <trkpt lat="47.89697" lon="5.59339">
        <ele>356.1</ele>
        <time>2024-09-01T07:49:21Z</time>
      </trkpt>
      <trkpt lat="47.89716" lon="5.59383">
        <ele>355.4</ele>
        <time>2024-09-01T07:49:26Z</time>
      </trkpt>
      <trkpt lat="47.89749" lon="5.59434">
        <ele>354.8</ele>
        <time>2024-09-01T07:49:33Z</time>
      </trkpt>
      <trkpt lat="47.89783" lon="5.5948">
        <ele>354.9</ele>
        <time>2024-09-01T07:49:40Z</time>
      </trkpt>
      <trkpt lat="47.89797" lon="5.59499">
        <ele>355.1</ele>
        <time>2024-09-01T07:49:43Z</time>
      </trkpt>
      <trkpt lat="47.89811" lon="5.59517">
        <ele>355.4</ele>
        <time>2024-09-01T07:49:46Z</time>
      </trkpt>
      <trkpt lat="47.89848" lon="5.59567">
        <ele>356.9</ele>
        <time>2024-09-01T07:49:54Z</time>
      </trkpt>
      <trkpt lat="47.89877" lon="5.59605">
        <ele>358.7</ele>
        <time>2024-09-01T07:50:01Z</time>
      </trkpt>
      <trkpt lat="47.89896" lon="5.5963">
        <ele>360.1</ele>
        <time>2024-09-01T07:50:06Z</time>
      </trkpt>
      <trkpt lat="47.89919" lon="5.59661">
        <ele>361.7</ele>
        <time>2024-09-01T07:50:12Z</time>
      </trkpt>
      <trkpt lat="47.89932" lon="5.59679">
        <ele>362.6</ele>
        <time>2024-09-01T07:50:16Z</time>
      </trkpt>
      <trkpt lat="47.89936" lon="5.59684">
        <ele>362.9</ele>
        <time>2024-09-01T07:50:17Z</time>
      </trkpt>
      <trkpt lat="47.8995" lon="5.59702">
        <ele>363.8</ele>
        <time>2024-09-01T07:50:21Z</time>
      </trkpt>
      <trkpt lat="47.89969" lon="5.59728">
        <ele>365</ele>
        <time>2024-09-01T07:50:27Z</time>
      </trkpt>
      <trkpt lat="47.89978" lon="5.5974">
        <ele>365.6</ele>
        <time>2024-09-01T07:50:30Z</time>
      </trkpt>
      <trkpt lat="47.89985" lon="5.5975">
        <ele>366</ele>
        <time>2024-09-01T07:50:32Z</time>
      </trkpt>
      <trkpt lat="47.90006" lon="5.59778">
        <ele>367</ele>
        <time>2024-09-01T07:50:38Z</time>
      </trkpt>
      <trkpt lat="47.90031" lon="5.59813">
        <ele>367.9</ele>
        <time>2024-09-01T07:50:45Z</time>
      </trkpt>
      <trkpt lat="47.9005" lon="5.59845">
        <ele>368.8</ele>
        <time>2024-09-01T07:50:51Z</time>
      </trkpt>
      <trkpt lat="47.90059" lon="5.5986">
        <ele>369.1</ele>
        <time>2024-09-01T07:50:54Z</time>
      </trkpt>
      <trkpt lat="47.90064" lon="5.59869">
        <ele>369.4</ele>
        <time>2024-09-01T07:50:56Z</time>
      </trkpt>
      <trkpt lat="47.90088" lon="5.59908">
        <ele>370.6</ele>
        <time>2024-09-01T07:51:04Z</time>
      </trkpt>
      <trkpt lat="47.90093" lon="5.59918">
        <ele>370.9</ele>
        <time>2024-09-01T07:51:06Z</time>
      </trkpt>
      <trkpt lat="47.90107" lon="5.59942">
        <ele>371.6</ele>
        <time>2024-09-01T07:51:11Z</time>
      </trkpt>
      <trkpt lat="47.9013" lon="5.5998">
        <ele>372.6</ele>
        <time>2024-09-01T07:51:19Z</time>
      </trkpt>
      <trkpt lat="47.90151" lon="5.60025">
        <ele>373.4</ele>
        <time>2024-09-01T07:51:27Z</time>
      </trkpt>
      <trkpt lat="47.90161" lon="5.60045">
        <ele>373.7</ele>
        <time>2024-09-01T07:51:31Z</time>
      </trkpt>
      <trkpt lat="47.90166" lon="5.60056">
        <ele>373.9</ele>
        <time>2024-09-01T07:51:33Z</time>
      </trkpt>
      <trkpt lat="47.90179" lon="5.60083">
        <ele>374.1</ele>
        <time>2024-09-01T07:51:38Z</time>
      </trkpt>
      <trkpt lat="47.90181" lon="5.60089">
        <ele>374.2</ele>
        <time>2024-09-01T07:51:39Z</time>
      </trkpt>
      <trkpt lat="47.90191" lon="5.60112">
        <ele>374.2</ele>
        <time>2024-09-01T07:51:43Z</time>
      </trkpt>
      <trkpt lat="47.90196" lon="5.60124">
        <ele>374.1</ele>
        <time>2024-09-01T07:51:45Z</time>
      </trkpt>
      <trkpt lat="47.90207" lon="5.60156">
        <ele>373.3</ele>
        <time>2024-09-01T07:51:50Z</time>
      </trkpt>
      <trkpt lat="47.90227" lon="5.60211">
        <ele>371.4</ele>
        <time>2024-09-01T07:51:57Z</time>
      </trkpt>
      <trkpt lat="47.90247" lon="5.60265">
        <ele>368.8</ele>
        <time>2024-09-01T07:52:03Z</time>
      </trkpt>
      <trkpt lat="47.90256" lon="5.60291">
        <ele>367.1</ele>
        <time>2024-09-01T07:52:06Z</time>
      </trkpt>
      <trkpt lat="47.90262" lon="5.60307">
        <ele>366</ele>
        <time>2024-09-01T07:52:08Z</time>
      </trkpt>
      <trkpt lat="47.90264" lon="5.60315">
        <ele>365.5</ele>
        <time>2024-09-01T07:52:09Z</time>
      </trkpt>
      <trkpt lat="47.9027" lon="5.60341">
        <ele>364.1</ele>
        <time>2024-09-01T07:52:12Z</time>
      </trkpt>
      <trkpt lat="47.90283" lon="5.60393">
        <ele>362.1</ele>
        <time>2024-09-01T07:52:18Z</time>
      </trkpt>
      <trkpt lat="47.90288" lon="5.60414">
        <ele>361.5</ele>
        <time>2024-09-01T07:52:21Z</time>
      </trkpt>
      <trkpt lat="47.90291" lon="5.60425">
        <ele>361</ele>
        <time>2024-09-01T07:52:23Z</time>
      </trkpt>
      <trkpt lat="47.90293" lon="5.6044">
        <ele>360.5</ele>
        <time>2024-09-01T07:52:24Z</time>
      </trkpt>
      <trkpt lat="47.90287" lon="5.60449">
        <ele>360.3</ele>
        <time>2024-09-01T07:52:26Z</time>
      </trkpt>
      <trkpt lat="47.90283" lon="5.60454">
        <ele>360.2</ele>
        <time>2024-09-01T07:52:27Z</time>
      </trkpt>
      <trkpt lat="47.90283" lon="5.60454">
        <ele>360.2</ele>
        <time>2024-09-01T07:52:28Z</time>
      </trkpt>
      <trkpt lat="47.90262" lon="5.60483">
        <ele>359.7</ele>
        <time>2024-09-01T07:52:32Z</time>
      </trkpt>
      <trkpt lat="47.90228" lon="5.60529">
        <ele>358.9</ele>
        <time>2024-09-01T07:52:39Z</time>
      </trkpt>
      <trkpt lat="47.90192" lon="5.60582">
        <ele>358.6</ele>
        <time>2024-09-01T07:52:46Z</time>
      </trkpt>
      <trkpt lat="47.9016" lon="5.60633">
        <ele>358.4</ele>
        <time>2024-09-01T07:52:53Z</time>
      </trkpt>
      <trkpt lat="47.90125" lon="5.60688">
        <ele>358.1</ele>
        <time>2024-09-01T07:53:00Z</time>
      </trkpt>
      <trkpt lat="47.90095" lon="5.6073">
        <ele>358.1</ele>
        <time>2024-09-01T07:53:06Z</time>
      </trkpt>
      <trkpt lat="47.90057" lon="5.60778">
        <ele>358.2</ele>
        <time>2024-09-01T07:53:13Z</time>
      </trkpt>
      <trkpt lat="47.90017" lon="5.60827">
        <ele>358.4</ele>
        <time>2024-09-01T07:53:20Z</time>
      </trkpt>
      <trkpt lat="47.89975" lon="5.60884">
        <ele>358.7</ele>
        <time>2024-09-01T07:53:28Z</time>
      </trkpt>
      <trkpt lat="47.89941" lon="5.60939">
        <ele>359</ele>
        <time>2024-09-01T07:53:35Z</time>
      </trkpt>
      <trkpt lat="47.89895" lon="5.61006">
        <ele>359.2</ele>
        <time>2024-09-01T07:53:44Z</time>
      </trkpt>
      <trkpt lat="47.89858" lon="5.61052">
        <ele>359.9</ele>
        <time>2024-09-01T07:53:51Z</time>
      </trkpt>
      <trkpt lat="47.89823" lon="5.61097">
        <ele>360.7</ele>
        <time>2024-09-01T07:53:58Z</time>
      </trkpt>
      <trkpt lat="47.8979" lon="5.61149">
        <ele>361.3</ele>
        <time>2024-09-01T07:54:05Z</time>
      </trkpt>
      <trkpt lat="47.89768" lon="5.61194">
        <ele>361.6</ele>
        <time>2024-09-01T07:54:11Z</time>
      </trkpt>
      <trkpt lat="47.89759" lon="5.61217">
        <ele>361.7</ele>
        <time>2024-09-01T07:54:14Z</time>
      </trkpt>
      <trkpt lat="47.89752" lon="5.61233">
        <ele>361.8</ele>
        <time>2024-09-01T07:54:17Z</time>
      </trkpt>
      <trkpt lat="47.89734" lon="5.61303">
        <ele>362.1</ele>
        <time>2024-09-01T07:54:24Z</time>
      </trkpt>
      <trkpt lat="47.89727" lon="5.61337">
        <ele>361.8</ele>
        <time>2024-09-01T07:54:29Z</time>
      </trkpt>
      <trkpt lat="47.89719" lon="5.61372">
        <ele>361.4</ele>
        <time>2024-09-01T07:54:32Z</time>
      </trkpt>
      <trkpt lat="47.89703" lon="5.61427">
        <ele>360.5</ele>
        <time>2024-09-01T07:54:38Z</time>
      </trkpt>
      <trkpt lat="47.89682" lon="5.61503">
        <ele>359.1</ele>
        <time>2024-09-01T07:54:46Z</time>
      </trkpt>
      <trkpt lat="47.89677" lon="5.61523">
        <ele>358.6</ele>
        <time>2024-09-01T07:54:48Z</time>
      </trkpt>
      <trkpt lat="47.89654" lon="5.61593">
        <ele>357.1</ele>
        <time>2024-09-01T07:54:55Z</time>
      </trkpt>
      <trkpt lat="47.89634" lon="5.61653">
        <ele>356.1</ele>
        <time>2024-09-01T07:55:01Z</time>
      </trkpt>
      <trkpt lat="47.89608" lon="5.61729">
        <ele>355.4</ele>
        <time>2024-09-01T07:55:09Z</time>
      </trkpt>
      <trkpt lat="47.89593" lon="5.61783">
        <ele>355.7</ele>
        <time>2024-09-01T07:55:15Z</time>
      </trkpt>
      <trkpt lat="47.89579" lon="5.61842">
        <ele>356.5</ele>
        <time>2024-09-01T07:55:22Z</time>
      </trkpt>
      <trkpt lat="47.89572" lon="5.61881">
        <ele>357.4</ele>
        <time>2024-09-01T07:55:27Z</time>
      </trkpt>
      <trkpt lat="47.89571" lon="5.61897">
        <ele>357.7</ele>
        <time>2024-09-01T07:55:29Z</time>
      </trkpt>
      <trkpt lat="47.8957" lon="5.61904">
        <ele>357.9</ele>
        <time>2024-09-01T07:55:31Z</time>
      </trkpt>
      <trkpt lat="47.89571" lon="5.61932">
        <ele>358.6</ele>
        <time>2024-09-01T07:55:34Z</time>
      </trkpt>
      <trkpt lat="47.89571" lon="5.6195">
        <ele>358.7</ele>
        <time>2024-09-01T07:55:37Z</time>
      </trkpt>
      <trkpt lat="47.89567" lon="5.61959">
        <ele>358.5</ele>
        <time>2024-09-01T07:55:39Z</time>
      </trkpt>
      <trkpt lat="47.89563" lon="5.61979">
        <ele>358</ele>
        <time>2024-09-01T07:55:44Z</time>
      </trkpt>
      <trkpt lat="47.89563" lon="5.61981">
        <ele>358</ele>
        <time>2024-09-01T07:55:47Z</time>
      </trkpt>
      <trkpt lat="47.89555" lon="5.61985">
        <ele>357.5</ele>
        <time>2024-09-01T07:55:54Z</time>
      </trkpt>
      <trkpt lat="47.89553" lon="5.61985">
        <ele>357.4</ele>
        <time>2024-09-01T07:55:55Z</time>
      </trkpt>
      <trkpt lat="47.89545" lon="5.61982">
        <ele>356.8</ele>
        <time>2024-09-01T07:55:59Z</time>
      </trkpt>
      <trkpt lat="47.8953" lon="5.61958">
        <ele>355.5</ele>
        <time>2024-09-01T07:56:04Z</time>
      </trkpt>
      <trkpt lat="47.89509" lon="5.61924">
        <ele>353.7</ele>
        <time>2024-09-01T07:56:12Z</time>
      </trkpt>
      <trkpt lat="47.89505" lon="5.61916">
        <ele>353.3</ele>
        <time>2024-09-01T07:56:17Z</time>
      </trkpt>
      <trkpt lat="47.89501" lon="5.61917">
        <ele>353</ele>
        <time>2024-09-01T07:56:19Z</time>
      </trkpt>
      <trkpt lat="47.89501" lon="5.61917">
        <ele>353</ele>
        <time>2024-09-01T08:03:46Z</time>
      </trkpt>
      <trkpt lat="47.89502" lon="5.61917">
        <ele>352.9</ele>
        <time>2024-09-01T08:03:47Z</time>
      </trkpt>
      <trkpt lat="47.89506" lon="5.61919">
        <ele>353.2</ele>
        <time>2024-09-01T08:03:50Z</time>
      </trkpt>
      <trkpt lat="47.8951" lon="5.61924">
        <ele>353.5</ele>
        <time>2024-09-01T08:04:02Z</time>
      </trkpt>
      <trkpt lat="47.89511" lon="5.61927">
        <ele>353.7</ele>
        <time>2024-09-01T08:04:03Z</time>
      </trkpt>
      <trkpt lat="47.89526" lon="5.61951">
        <ele>355.1</ele>
        <time>2024-09-01T08:04:14Z</time>
      </trkpt>
      <trkpt lat="47.89537" lon="5.61969">
        <ele>356.1</ele>
        <time>2024-09-01T08:04:20Z</time>
      </trkpt>
      <trkpt lat="47.89552" lon="5.61984">
        <ele>357.3</ele>
        <time>2024-09-01T08:04:26Z</time>
      </trkpt>
      <trkpt lat="47.89566" lon="5.61987">
        <ele>358.2</ele>
        <time>2024-09-01T08:04:31Z</time>
      </trkpt>
      <trkpt lat="47.89585" lon="5.61987">
        <ele>359.4</ele>
        <time>2024-09-01T08:04:37Z</time>
      </trkpt>
      <trkpt lat="47.89608" lon="5.61987">
        <ele>360.8</ele>
        <time>2024-09-01T08:04:44Z</time>
      </trkpt>
      <trkpt lat="47.89616" lon="5.62005">
        <ele>361.2</ele>
        <time>2024-09-01T08:04:47Z</time>
      </trkpt>
      <trkpt lat="47.89621" lon="5.62021">
        <ele>361.5</ele>
        <time>2024-09-01T08:04:50Z</time>
      </trkpt>
      <trkpt lat="47.89626" lon="5.62038">
        <ele>361.9</ele>
        <time>2024-09-01T08:04:53Z</time>
      </trkpt>
      <trkpt lat="47.89628" lon="5.62051">
        <ele>362</ele>
        <time>2024-09-01T08:04:55Z</time>
      </trkpt>
      <trkpt lat="47.89631" lon="5.62071">
        <ele>362.2</ele>
        <time>2024-09-01T08:04:58Z</time>
      </trkpt>
      <trkpt lat="47.89638" lon="5.62122">
        <ele>362.3</ele>
        <time>2024-09-01T08:05:06Z</time>
      </trkpt>
      <trkpt lat="47.89647" lon="5.62183">
        <ele>361.7</ele>
        <time>2024-09-01T08:05:15Z</time>
      </trkpt>
      <trkpt lat="47.89654" lon="5.62222">
        <ele>360.6</ele>
        <time>2024-09-01T08:05:20Z</time>
      </trkpt>
      <trkpt lat="47.89656" lon="5.62238">
        <ele>360.1</ele>
        <time>2024-09-01T08:05:22Z</time>
      </trkpt>
      <trkpt lat="47.8967" lon="5.62308">
        <ele>357.7</ele>
        <time>2024-09-01T08:05:30Z</time>
      </trkpt>
      <trkpt lat="47.89673" lon="5.62325">
        <ele>357.1</ele>
        <time>2024-09-01T08:05:32Z</time>
      </trkpt>
      <trkpt lat="47.89685" lon="5.62355">
        <ele>356</ele>
        <time>2024-09-01T08:05:36Z</time>
      </trkpt>
      <trkpt lat="47.89701" lon="5.62388">
        <ele>354.7</ele>
        <time>2024-09-01T08:05:42Z</time>
      </trkpt>
      <trkpt lat="47.89716" lon="5.62429">
        <ele>352.9</ele>
        <time>2024-09-01T08:05:48Z</time>
      </trkpt>
      <trkpt lat="47.89728" lon="5.62474">
        <ele>350.9</ele>
        <time>2024-09-01T08:05:54Z</time>
      </trkpt>
      <trkpt lat="47.89735" lon="5.6253">
        <ele>349</ele>
        <time>2024-09-01T08:06:00Z</time>
      </trkpt>
      <trkpt lat="47.89734" lon="5.6255">
        <ele>348.3</ele>
        <time>2024-09-01T08:06:03Z</time>
      </trkpt>
      <trkpt lat="47.89729" lon="5.62563">
        <ele>347.8</ele>
        <time>2024-09-01T08:06:05Z</time>
      </trkpt>
      <trkpt lat="47.89727" lon="5.62569">
        <ele>347.5</ele>
        <time>2024-09-01T08:06:06Z</time>
      </trkpt>
      <trkpt lat="47.89718" lon="5.62574">
        <ele>346.8</ele>
        <time>2024-09-01T08:06:08Z</time>
      </trkpt>
      <trkpt lat="47.89676" lon="5.62599">
        <ele>343.9</ele>
        <time>2024-09-01T08:06:14Z</time>
      </trkpt>
      <trkpt lat="47.89663" lon="5.62609">
        <ele>343</ele>
        <time>2024-09-01T08:06:16Z</time>
      </trkpt>
      <trkpt lat="47.89651" lon="5.62622">
        <ele>342.1</ele>
        <time>2024-09-01T08:06:18Z</time>
      </trkpt>
      <trkpt lat="47.89646" lon="5.62629">
        <ele>341.6</ele>
        <time>2024-09-01T08:06:19Z</time>
      </trkpt>
      <trkpt lat="47.89609" lon="5.62678">
        <ele>338</ele>
        <time>2024-09-01T08:06:25Z</time>
      </trkpt>
      <trkpt lat="47.89568" lon="5.62733">
        <ele>334.4</ele>
        <time>2024-09-01T08:06:31Z</time>
      </trkpt>
      <trkpt lat="47.8956" lon="5.6274">
        <ele>333.9</ele>
        <time>2024-09-01T08:06:32Z</time>
      </trkpt>
      <trkpt lat="47.89516" lon="5.6277">
        <ele>331</ele>
        <time>2024-09-01T08:06:37Z</time>
      </trkpt>
      <trkpt lat="47.89462" lon="5.62801">
        <ele>327.2</ele>
        <time>2024-09-01T08:06:43Z</time>
      </trkpt>
      <trkpt lat="47.89453" lon="5.62806">
        <ele>326.5</ele>
        <time>2024-09-01T08:06:44Z</time>
      </trkpt>
      <trkpt lat="47.89393" lon="5.62819">
        <ele>322.2</ele>
        <time>2024-09-01T08:06:50Z</time>
      </trkpt>
      <trkpt lat="47.89383" lon="5.62821">
        <ele>321.5</ele>
        <time>2024-09-01T08:06:51Z</time>
      </trkpt>
      <trkpt lat="47.89325" lon="5.62836">
        <ele>317.4</ele>
        <time>2024-09-01T08:06:57Z</time>
      </trkpt>
      <trkpt lat="47.89269" lon="5.62866">
        <ele>312.7</ele>
        <time>2024-09-01T08:07:03Z</time>
      </trkpt>
      <trkpt lat="47.8926" lon="5.62871">
        <ele>311.9</ele>
        <time>2024-09-01T08:07:04Z</time>
      </trkpt>
      <trkpt lat="47.89205" lon="5.62908">
        <ele>306.9</ele>
        <time>2024-09-01T08:07:10Z</time>
      </trkpt>
      <trkpt lat="47.89187" lon="5.62922">
        <ele>305.3</ele>
        <time>2024-09-01T08:07:12Z</time>
      </trkpt>
      <trkpt lat="47.89177" lon="5.62929">
        <ele>304.5</ele>
        <time>2024-09-01T08:07:13Z</time>
      </trkpt>
      <trkpt lat="47.8914" lon="5.62954">
        <ele>301.6</ele>
        <time>2024-09-01T08:07:18Z</time>
      </trkpt>
      <trkpt lat="47.89084" lon="5.63">
        <ele>297.2</ele>
        <time>2024-09-01T08:07:23Z</time>
      </trkpt>
      <trkpt lat="47.89066" lon="5.63016">
        <ele>295.8</ele>
        <time>2024-09-01T08:07:25Z</time>
      </trkpt>
      <trkpt lat="47.89013" lon="5.63062">
        <ele>291.6</ele>
        <time>2024-09-01T08:07:31Z</time>
      </trkpt>
      <trkpt lat="47.89005" lon="5.63069">
        <ele>291</ele>
        <time>2024-09-01T08:07:32Z</time>
      </trkpt>
      <trkpt lat="47.88974" lon="5.63102">
        <ele>288.3</ele>
        <time>2024-09-01T08:07:36Z</time>
      </trkpt>
      <trkpt lat="47.88967" lon="5.63111">
        <ele>287.7</ele>
        <time>2024-09-01T08:07:37Z</time>
      </trkpt>
      <trkpt lat="47.88962" lon="5.63122">
        <ele>287</ele>
        <time>2024-09-01T08:07:38Z</time>
      </trkpt>
      <trkpt lat="47.88953" lon="5.63148">
        <ele>285.6</ele>
        <time>2024-09-01T08:07:40Z</time>
      </trkpt>
      <trkpt lat="47.88952" lon="5.63161">
        <ele>285</ele>
        <time>2024-09-01T08:07:41Z</time>
      </trkpt>
      <trkpt lat="47.88942" lon="5.63234">
        <ele>281.4</ele>
        <time>2024-09-01T08:07:46Z</time>
      </trkpt>
      <trkpt lat="47.88927" lon="5.63325">
        <ele>276.9</ele>
        <time>2024-09-01T08:07:52Z</time>
      </trkpt>
      <trkpt lat="47.88909" lon="5.63417">
        <ele>272.3</ele>
        <time>2024-09-01T08:07:58Z</time>
      </trkpt>
      <trkpt lat="47.88904" lon="5.63431">
        <ele>271.6</ele>
        <time>2024-09-01T08:07:59Z</time>
      </trkpt>
      <trkpt lat="47.88874" lon="5.63513">
        <ele>266.9</ele>
        <time>2024-09-01T08:08:05Z</time>
      </trkpt>
      <trkpt lat="47.88844" lon="5.63559">
        <ele>263.1</ele>
        <time>2024-09-01T08:08:09Z</time>
      </trkpt>
      <trkpt lat="47.888" lon="5.63608">
        <ele>258.9</ele>
        <time>2024-09-01T08:08:14Z</time>
      </trkpt>
      <trkpt lat="47.88791" lon="5.63616">
        <ele>258.2</ele>
        <time>2024-09-01T08:08:15Z</time>
      </trkpt>
      <trkpt lat="47.88756" lon="5.63636">
        <ele>255.4</ele>
        <time>2024-09-01T08:08:19Z</time>
      </trkpt>
      <trkpt lat="47.88705" lon="5.63666">
        <ele>251.9</ele>
        <time>2024-09-01T08:08:25Z</time>
      </trkpt>
      <trkpt lat="47.88688" lon="5.63678">
        <ele>251.1</ele>
        <time>2024-09-01T08:08:27Z</time>
      </trkpt>
      <trkpt lat="47.88635" lon="5.63714">
        <ele>249.6</ele>
        <time>2024-09-01T08:08:33Z</time>
      </trkpt>
      <trkpt lat="47.88609" lon="5.63731">
        <ele>249.2</ele>
        <time>2024-09-01T08:08:36Z</time>
      </trkpt>
      <trkpt lat="47.88592" lon="5.6374">
        <ele>249.2</ele>
        <time>2024-09-01T08:08:38Z</time>
      </trkpt>
      <trkpt lat="47.88574" lon="5.63745">
        <ele>249.3</ele>
        <time>2024-09-01T08:08:40Z</time>
      </trkpt>
      <trkpt lat="47.88533" lon="5.63743">
        <ele>249.6</ele>
        <time>2024-09-01T08:08:45Z</time>
      </trkpt>
      <trkpt lat="47.88487" lon="5.63741">
        <ele>249.7</ele>
        <time>2024-09-01T08:08:51Z</time>
      </trkpt>
      <trkpt lat="47.88431" lon="5.6376">
        <ele>249.7</ele>
        <time>2024-09-01T08:08:58Z</time>
      </trkpt>
      <trkpt lat="47.88376" lon="5.63777">
        <ele>249.9</ele>
        <time>2024-09-01T08:09:05Z</time>
      </trkpt>
      <trkpt lat="47.88353" lon="5.63784">
        <ele>249.8</ele>
        <time>2024-09-01T08:09:08Z</time>
      </trkpt>
      <trkpt lat="47.88297" lon="5.63797">
        <ele>249.1</ele>
        <time>2024-09-01T08:09:15Z</time>
      </trkpt>
      <trkpt lat="47.88289" lon="5.63798">
        <ele>249</ele>
        <time>2024-09-01T08:09:16Z</time>
      </trkpt>
      <trkpt lat="47.88231" lon="5.63812">
        <ele>248.2</ele>
        <time>2024-09-01T08:09:23Z</time>
      </trkpt>
      <trkpt lat="47.88223" lon="5.63814">
        <ele>248.1</ele>
        <time>2024-09-01T08:09:24Z</time>
      </trkpt>
      <trkpt lat="47.88179" lon="5.63839">
        <ele>247.8</ele>
        <time>2024-09-01T08:09:30Z</time>
      </trkpt>
      <trkpt lat="47.88128" lon="5.63871">
        <ele>248.2</ele>
        <time>2024-09-01T08:09:37Z</time>
      </trkpt>
      <trkpt lat="47.88114" lon="5.6388">
        <ele>248.4</ele>
        <time>2024-09-01T08:09:39Z</time>
      </trkpt>
      <trkpt lat="47.88059" lon="5.63914">
        <ele>248.3</ele>
        <time>2024-09-01T08:09:47Z</time>
      </trkpt>
      <trkpt lat="47.88004" lon="5.63949">
        <ele>247.3</ele>
        <time>2024-09-01T08:09:55Z</time>
      </trkpt>
      <trkpt lat="47.8795" lon="5.63983">
        <ele>246.6</ele>
        <time>2024-09-01T08:10:02Z</time>
      </trkpt>
      <trkpt lat="47.87926" lon="5.63998">
        <ele>246.4</ele>
        <time>2024-09-01T08:10:05Z</time>
      </trkpt>
      <trkpt lat="47.87875" lon="5.6403">
        <ele>246</ele>
        <time>2024-09-01T08:10:12Z</time>
      </trkpt>
      <trkpt lat="47.87824" lon="5.64062">
        <ele>245.7</ele>
        <time>2024-09-01T08:10:19Z</time>
      </trkpt>
      <trkpt lat="47.87817" lon="5.64067">
        <ele>245.7</ele>
        <time>2024-09-01T08:10:20Z</time>
      </trkpt>
      <trkpt lat="47.87764" lon="5.641">
        <ele>245.6</ele>
        <time>2024-09-01T08:10:27Z</time>
      </trkpt>
      <trkpt lat="47.87741" lon="5.64115">
        <ele>245.5</ele>
        <time>2024-09-01T08:10:30Z</time>
      </trkpt>
      <trkpt lat="47.8769" lon="5.64147">
        <ele>245.2</ele>
        <time>2024-09-01T08:10:37Z</time>
      </trkpt>
      <trkpt lat="47.87683" lon="5.64151">
        <ele>245.2</ele>
        <time>2024-09-01T08:10:38Z</time>
      </trkpt>
      <trkpt lat="47.87631" lon="5.64184">
        <ele>245</ele>
        <time>2024-09-01T08:10:45Z</time>
      </trkpt>
      <trkpt lat="47.87616" lon="5.64193">
        <ele>245.1</ele>
        <time>2024-09-01T08:10:47Z</time>
      </trkpt>
      <trkpt lat="47.87567" lon="5.64224">
        <ele>244.8</ele>
        <time>2024-09-01T08:10:54Z</time>
      </trkpt>
      <trkpt lat="47.87511" lon="5.64259">
        <ele>244.7</ele>
        <time>2024-09-01T08:11:02Z</time>
      </trkpt>
      <trkpt lat="47.87461" lon="5.64292">
        <ele>245</ele>
        <time>2024-09-01T08:11:09Z</time>
      </trkpt>
      <trkpt lat="47.87455" lon="5.64297">
        <ele>245.1</ele>
        <time>2024-09-01T08:11:10Z</time>
      </trkpt>
      <trkpt lat="47.87428" lon="5.64324">
        <ele>245.3</ele>
        <time>2024-09-01T08:11:15Z</time>
      </trkpt>
      <trkpt lat="47.87412" lon="5.64355">
        <ele>245.3</ele>
        <time>2024-09-01T08:11:19Z</time>
      </trkpt>
      <trkpt lat="47.87408" lon="5.64363">
        <ele>245.3</ele>
        <time>2024-09-01T08:11:20Z</time>
      </trkpt>
      <trkpt lat="47.8738" lon="5.64422">
        <ele>245.2</ele>
        <time>2024-09-01T08:11:28Z</time>
      </trkpt>
      <trkpt lat="47.87372" lon="5.6444">
        <ele>245.2</ele>
        <time>2024-09-01T08:11:31Z</time>
      </trkpt>
      <trkpt lat="47.8737" lon="5.64444">
        <ele>245.2</ele>
        <time>2024-09-01T08:11:32Z</time>
      </trkpt>
      <trkpt lat="47.87373" lon="5.64453">
        <ele>245.1</ele>
        <time>2024-09-01T08:11:33Z</time>
      </trkpt>
      <trkpt lat="47.87381" lon="5.64459">
        <ele>245.1</ele>
        <time>2024-09-01T08:11:35Z</time>
      </trkpt>
      <trkpt lat="47.87407" lon="5.64479">
        <ele>244.9</ele>
        <time>2024-09-01T08:11:40Z</time>
      </trkpt>
      <trkpt lat="47.87451" lon="5.64511">
        <ele>245</ele>
        <time>2024-09-01T08:11:48Z</time>
      </trkpt>
      <trkpt lat="47.87487" lon="5.64536">
        <ele>244.9</ele>
        <time>2024-09-01T08:11:55Z</time>
      </trkpt>
      <trkpt lat="47.87534" lon="5.6457">
        <ele>244.6</ele>
        <time>2024-09-01T08:12:05Z</time>
      </trkpt>
      <trkpt lat="47.87563" lon="5.64591">
        <ele>244.7</ele>
        <time>2024-09-01T08:12:11Z</time>
      </trkpt>
      <trkpt lat="47.87579" lon="5.64608">
        <ele>244.8</ele>
        <time>2024-09-01T08:12:15Z</time>
      </trkpt>
      <trkpt lat="47.87585" lon="5.64618">
        <ele>244.9</ele>
        <time>2024-09-01T08:12:17Z</time>
      </trkpt>
      <trkpt lat="47.87596" lon="5.64637">
        <ele>245</ele>
        <time>2024-09-01T08:12:22Z</time>
      </trkpt>
      <trkpt lat="47.87609" lon="5.64649">
        <ele>245</ele>
        <time>2024-09-01T08:12:27Z</time>
      </trkpt>
      <trkpt lat="47.87619" lon="5.64655">
        <ele>245.1</ele>
        <time>2024-09-01T08:12:30Z</time>
      </trkpt>
      <trkpt lat="47.8763" lon="5.6466">
        <ele>245.3</ele>
        <time>2024-09-01T08:12:33Z</time>
      </trkpt>
      <trkpt lat="47.87644" lon="5.64665">
        <ele>245.6</ele>
        <time>2024-09-01T08:12:37Z</time>
      </trkpt>
      <trkpt lat="47.87656" lon="5.6467">
        <ele>245.9</ele>
        <time>2024-09-01T08:12:40Z</time>
      </trkpt>
      <trkpt lat="47.87681" lon="5.6468">
        <ele>246.8</ele>
        <time>2024-09-01T08:12:47Z</time>
      </trkpt>
      <trkpt lat="47.87692" lon="5.64693">
        <ele>247.3</ele>
        <time>2024-09-01T08:12:53Z</time>
      </trkpt>
      <trkpt lat="47.87696" lon="5.64707">
        <ele>247.4</ele>
        <time>2024-09-01T08:12:58Z</time>
      </trkpt>
      <trkpt lat="47.8769" lon="5.64728">
        <ele>247.4</ele>
        <time>2024-09-01T08:13:03Z</time>
      </trkpt>
      <trkpt lat="47.87685" lon="5.64747">
        <ele>247.4</ele>
        <time>2024-09-01T08:13:08Z</time>
      </trkpt>
      <trkpt lat="47.87679" lon="5.64768">
        <ele>247.5</ele>
        <time>2024-09-01T08:13:13Z</time>
      </trkpt>
      <trkpt lat="47.87671" lon="5.64795">
        <ele>247.5</ele>
        <time>2024-09-01T08:13:19Z</time>
      </trkpt>
      <trkpt lat="47.87667" lon="5.64815">
        <ele>247.6</ele>
        <time>2024-09-01T08:13:25Z</time>
      </trkpt>
      <trkpt lat="47.87667" lon="5.64815">
        <ele>247.6</ele>
        <time>2024-09-01T08:13:27Z</time>
      </trkpt>
      <trkpt lat="47.87666" lon="5.6482">
        <ele>247.6</ele>
        <time>2024-09-01T08:13:39Z</time>
      </trkpt>
      <trkpt lat="47.87667" lon="5.64818">
        <ele>247.6</ele>
        <time>2024-09-01T08:13:40Z</time>
      </trkpt>
      <trkpt lat="47.87669" lon="5.64801">
        <ele>247.7</ele>
        <time>2024-09-01T08:13:48Z</time>
      </trkpt>
      <trkpt lat="47.8767" lon="5.64799">
        <ele>247.7</ele>
        <time>2024-09-01T08:13:50Z</time>
      </trkpt>
      <trkpt lat="47.87668" lon="5.64809">
        <ele>247.7</ele>
        <time>2024-09-01T08:15:21Z</time>
      </trkpt>
      <trkpt lat="47.87667" lon="5.64816">
        <ele>247.8</ele>
        <time>2024-09-01T08:15:23Z</time>
      </trkpt>
      <trkpt lat="47.87662" lon="5.64842">
        <ele>247.9</ele>
        <time>2024-09-01T08:15:29Z</time>
      </trkpt>
      <trkpt lat="47.87655" lon="5.64877">
        <ele>248.3</ele>
        <time>2024-09-01T08:15:35Z</time>
      </trkpt>
      <trkpt lat="47.87644" lon="5.64906">
        <ele>248.8</ele>
        <time>2024-09-01T08:15:41Z</time>
      </trkpt>
      <trkpt lat="47.87616" lon="5.64934">
        <ele>249.4</ele>
        <time>2024-09-01T08:15:49Z</time>
      </trkpt>
      <trkpt lat="47.87613" lon="5.64937">
        <ele>249.5</ele>
        <time>2024-09-01T08:15:50Z</time>
      </trkpt>
      <trkpt lat="47.87591" lon="5.64959">
        <ele>249.8</ele>
        <time>2024-09-01T08:15:56Z</time>
      </trkpt>
      <trkpt lat="47.87562" lon="5.6499">
        <ele>250.2</ele>
        <time>2024-09-01T08:16:04Z</time>
      </trkpt>
      <trkpt lat="47.87526" lon="5.65026">
        <ele>250.9</ele>
        <time>2024-09-01T08:16:13Z</time>
      </trkpt>
      <trkpt lat="47.875" lon="5.65064">
        <ele>251.1</ele>
        <time>2024-09-01T08:16:21Z</time>
      </trkpt>
      <trkpt lat="47.87478" lon="5.65099">
        <ele>250.9</ele>
        <time>2024-09-01T08:16:29Z</time>
      </trkpt>
      <trkpt lat="47.87465" lon="5.65119">
        <ele>250.8</ele>
        <time>2024-09-01T08:16:36Z</time>
      </trkpt>
      <trkpt lat="47.87464" lon="5.65119">
        <ele>250.8</ele>
        <time>2024-09-01T08:16:39Z</time>
      </trkpt>
      <trkpt lat="47.87473" lon="5.65113">
        <ele>250.8</ele>
        <time>2024-09-01T08:18:19Z</time>
      </trkpt>
      <trkpt lat="47.8748" lon="5.65095">
        <ele>250.9</ele>
        <time>2024-09-01T08:18:25Z</time>
      </trkpt>
      <trkpt lat="47.87495" lon="5.65072">
        <ele>251</ele>
        <time>2024-09-01T08:18:31Z</time>
      </trkpt>
      <trkpt lat="47.87515" lon="5.65042">
        <ele>251.1</ele>
        <time>2024-09-01T08:18:38Z</time>
      </trkpt>
      <trkpt lat="47.87552" lon="5.65">
        <ele>250.5</ele>
        <time>2024-09-01T08:18:48Z</time>
      </trkpt>
      <trkpt lat="47.8758" lon="5.64971">
        <ele>249.9</ele>
        <time>2024-09-01T08:18:55Z</time>
      </trkpt>
      <trkpt lat="47.87603" lon="5.64948">
        <ele>249.6</ele>
        <time>2024-09-01T08:19:01Z</time>
      </trkpt>
      <trkpt lat="47.87621" lon="5.64928">
        <ele>249.3</ele>
        <time>2024-09-01T08:19:07Z</time>
      </trkpt>
      <trkpt lat="47.87652" lon="5.64898">
        <ele>248.7</ele>
        <time>2024-09-01T08:19:15Z</time>
      </trkpt>
      <trkpt lat="47.87679" lon="5.6488">
        <ele>248.8</ele>
        <time>2024-09-01T08:19:22Z</time>
      </trkpt>
      <trkpt lat="47.87688" lon="5.64874">
        <ele>249</ele>
        <time>2024-09-01T08:19:26Z</time>
      </trkpt>
      <trkpt lat="47.8769" lon="5.64872">
        <ele>249</ele>
        <time>2024-09-01T08:19:30Z</time>
      </trkpt>
      <trkpt lat="47.87695" lon="5.64866">
        <ele>249.2</ele>
        <time>2024-09-01T08:20:28Z</time>
      </trkpt>
      <trkpt lat="47.87699" lon="5.64861">
        <ele>249.3</ele>
        <time>2024-09-01T08:20:31Z</time>
      </trkpt>
      <trkpt lat="47.87704" lon="5.64854">
        <ele>249.4</ele>
        <time>2024-09-01T08:20:38Z</time>
      </trkpt>
      <trkpt lat="47.87704" lon="5.64854">
        <ele>249.5</ele>
        <time>2024-09-01T08:22:33Z</time>
      </trkpt>
      <trkpt lat="47.87714" lon="5.64839">
        <ele>249.8</ele>
        <time>2024-09-01T08:22:39Z</time>
      </trkpt>
      <trkpt lat="47.87727" lon="5.64812">
        <ele>250.6</ele>
        <time>2024-09-01T08:22:48Z</time>
      </trkpt>
      <trkpt lat="47.87738" lon="5.64789">
        <ele>251.4</ele>
        <time>2024-09-01T08:22:54Z</time>
      </trkpt>
      <trkpt lat="47.87754" lon="5.64757">
        <ele>252.3</ele>
        <time>2024-09-01T08:23:01Z</time>
      </trkpt>
      <trkpt lat="47.87764" lon="5.6474">
        <ele>252.7</ele>
        <time>2024-09-01T08:23:06Z</time>
      </trkpt>
      <trkpt lat="47.87777" lon="5.64719">
        <ele>252.8</ele>
        <time>2024-09-01T08:23:12Z</time>
      </trkpt>
      <trkpt lat="47.87778" lon="5.64717">
        <ele>252.8</ele>
        <time>2024-09-01T08:23:15Z</time>
      </trkpt>
      <trkpt lat="47.87772" lon="5.64723">
        <ele>252.9</ele>
        <time>2024-09-01T08:24:17Z</time>
      </trkpt>
      <trkpt lat="47.87768" lon="5.64734">
        <ele>252.9</ele>
        <time>2024-09-01T08:24:23Z</time>
      </trkpt>
      <trkpt lat="47.87762" lon="5.64742">
        <ele>252.6</ele>
        <time>2024-09-01T08:24:29Z</time>
      </trkpt>
      <trkpt lat="47.87754" lon="5.64736">
        <ele>252.1</ele>
        <time>2024-09-01T08:24:33Z</time>
      </trkpt>
      <trkpt lat="47.87749" lon="5.64732">
        <ele>251.7</ele>
        <time>2024-09-01T08:25:01Z</time>
      </trkpt>
      <trkpt lat="47.87746" lon="5.64729">
        <ele>251.5</ele>
        <time>2024-09-01T08:25:02Z</time>
      </trkpt>
      <trkpt lat="47.87728" lon="5.64716">
        <ele>250</ele>
        <time>2024-09-01T08:25:06Z</time>
      </trkpt>
      <trkpt lat="47.87704" lon="5.64701">
        <ele>248.1</ele>
        <time>2024-09-01T08:25:11Z</time>
      </trkpt>
      <trkpt lat="47.87687" lon="5.64688">
        <ele>247.1</ele>
        <time>2024-09-01T08:25:14Z</time>
      </trkpt>
      <trkpt lat="47.87682" lon="5.64682">
        <ele>246.9</ele>
        <time>2024-09-01T08:25:15Z</time>
      </trkpt>
      <trkpt lat="47.87677" lon="5.64677">
        <ele>246.6</ele>
        <time>2024-09-01T08:25:16Z</time>
      </trkpt>
      <trkpt lat="47.8765" lon="5.64668">
        <ele>245.7</ele>
        <time>2024-09-01T08:25:20Z</time>
      </trkpt>
      <trkpt lat="47.87607" lon="5.64648">
        <ele>245</ele>
        <time>2024-09-01T08:25:26Z</time>
      </trkpt>
      <trkpt lat="47.87596" lon="5.64637">
        <ele>245</ele>
        <time>2024-09-01T08:25:28Z</time>
      </trkpt>
      <trkpt lat="47.87587" lon="5.64622">
        <ele>244.9</ele>
        <time>2024-09-01T08:25:30Z</time>
      </trkpt>
      <trkpt lat="47.87579" lon="5.64607">
        <ele>244.8</ele>
        <time>2024-09-01T08:25:32Z</time>
      </trkpt>
      <trkpt lat="47.87568" lon="5.64595">
        <ele>244.7</ele>
        <time>2024-09-01T08:25:34Z</time>
      </trkpt>
      <trkpt lat="47.87529" lon="5.64566">
        <ele>244.6</ele>
        <time>2024-09-01T08:25:40Z</time>
      </trkpt>
      <trkpt lat="47.87484" lon="5.64534">
        <ele>244.9</ele>
        <time>2024-09-01T08:25:47Z</time>
      </trkpt>
      <trkpt lat="47.87442" lon="5.64505">
        <ele>245</ele>
        <time>2024-09-01T08:25:54Z</time>
      </trkpt>
      <trkpt lat="47.87403" lon="5.64476">
        <ele>244.9</ele>
        <time>2024-09-01T08:26:01Z</time>
      </trkpt>
      <trkpt lat="47.87376" lon="5.64455">
        <ele>245.1</ele>
        <time>2024-09-01T08:26:07Z</time>
      </trkpt>
      <trkpt lat="47.87372" lon="5.64452">
        <ele>245.1</ele>
        <time>2024-09-01T08:26:08Z</time>
      </trkpt>
      <trkpt lat="47.87363" lon="5.64453">
        <ele>245.2</ele>
        <time>2024-09-01T08:26:10Z</time>
      </trkpt>
      <trkpt lat="47.87359" lon="5.64456">
        <ele>245.2</ele>
        <time>2024-09-01T08:26:11Z</time>
      </trkpt>
      <trkpt lat="47.8735" lon="5.64465">
        <ele>245.2</ele>
        <time>2024-09-01T08:26:13Z</time>
      </trkpt>
      <trkpt lat="47.8734" lon="5.64473">
        <ele>245.1</ele>
        <time>2024-09-01T08:26:15Z</time>
      </trkpt>
      <trkpt lat="47.87335" lon="5.64478">
        <ele>245.1</ele>
        <time>2024-09-01T08:26:16Z</time>
      </trkpt>
      <trkpt lat="47.87293" lon="5.64503">
        <ele>245.4</ele>
        <time>2024-09-01T08:26:23Z</time>
      </trkpt>
      <trkpt lat="47.87248" lon="5.64519">
        <ele>246</ele>
        <time>2024-09-01T08:26:30Z</time>
      </trkpt>
      <trkpt lat="47.8722" lon="5.64519">
        <ele>246.5</ele>
        <time>2024-09-01T08:26:35Z</time>
      </trkpt>
      <trkpt lat="47.87165" lon="5.64503">
        <ele>247.1</ele>
        <time>2024-09-01T08:26:42Z</time>
      </trkpt>
      <trkpt lat="47.8713" lon="5.64493">
        <ele>246.8</ele>
        <time>2024-09-01T08:26:48Z</time>
      </trkpt>
      <trkpt lat="47.87088" lon="5.64481">
        <ele>246.7</ele>
        <time>2024-09-01T08:26:54Z</time>
      </trkpt>
      <trkpt lat="47.87024" lon="5.64471">
        <ele>246.7</ele>
        <time>2024-09-01T08:27:02Z</time>
      </trkpt>
      <trkpt lat="47.86976" lon="5.64466">
        <ele>246.7</ele>
        <time>2024-09-01T08:27:09Z</time>
      </trkpt>
      <trkpt lat="47.86934" lon="5.64457">
        <ele>247</ele>
        <time>2024-09-01T08:27:16Z</time>
      </trkpt>
      <trkpt lat="47.86924" lon="5.64448">
        <ele>247.1</ele>
        <time>2024-09-01T08:27:18Z</time>
      </trkpt>
      <trkpt lat="47.86919" lon="5.64443">
        <ele>247.1</ele>
        <time>2024-09-01T08:27:19Z</time>
      </trkpt>
      <trkpt lat="47.86917" lon="5.64435">
        <ele>247.2</ele>
        <time>2024-09-01T08:27:20Z</time>
      </trkpt>
      <trkpt lat="47.86914" lon="5.64417">
        <ele>247.3</ele>
        <time>2024-09-01T08:27:22Z</time>
      </trkpt>
      <trkpt lat="47.86908" lon="5.64347">
        <ele>248.6</ele>
        <time>2024-09-01T08:27:30Z</time>
      </trkpt>
      <trkpt lat="47.86903" lon="5.64285">
        <ele>249.8</ele>
        <time>2024-09-01T08:27:38Z</time>
      </trkpt>
      <trkpt lat="47.86894" lon="5.64221">
        <ele>249.9</ele>
        <time>2024-09-01T08:27:46Z</time>
      </trkpt>
      <trkpt lat="47.86878" lon="5.64155">
        <ele>249.3</ele>
        <time>2024-09-01T08:27:54Z</time>
      </trkpt>
      <trkpt lat="47.86876" lon="5.64147">
        <ele>249.2</ele>
        <time>2024-09-01T08:27:55Z</time>
      </trkpt>
      <trkpt lat="47.8687" lon="5.6413">
        <ele>249.1</ele>
        <time>2024-09-01T08:27:57Z</time>
      </trkpt>
      <trkpt lat="47.86868" lon="5.64121">
        <ele>249</ele>
        <time>2024-09-01T08:27:58Z</time>
      </trkpt>
      <trkpt lat="47.86847" lon="5.6407">
        <ele>248.7</ele>
        <time>2024-09-01T08:28:05Z</time>
      </trkpt>
      <trkpt lat="47.86811" lon="5.64009">
        <ele>248.8</ele>
        <time>2024-09-01T08:28:12Z</time>
      </trkpt>
      <trkpt lat="47.86805" lon="5.64003">
        <ele>248.8</ele>
        <time>2024-09-01T08:28:13Z</time>
      </trkpt>
      <trkpt lat="47.86789" lon="5.63986">
        <ele>249</ele>
        <time>2024-09-01T08:28:16Z</time>
      </trkpt>
      <trkpt lat="47.86751" lon="5.63954">
        <ele>249.5</ele>
        <time>2024-09-01T08:28:23Z</time>
      </trkpt>
      <trkpt lat="47.86712" lon="5.63923">
        <ele>250</ele>
        <time>2024-09-01T08:28:30Z</time>
      </trkpt>
      <trkpt lat="47.86704" lon="5.63911">
        <ele>250.2</ele>
        <time>2024-09-01T08:28:32Z</time>
      </trkpt>
      <trkpt lat="47.86689" lon="5.63884">
        <ele>250.8</ele>
        <time>2024-09-01T08:28:36Z</time>
      </trkpt>
      <trkpt lat="47.86661" lon="5.63834">
        <ele>252.7</ele>
        <time>2024-09-01T08:28:44Z</time>
      </trkpt>
      <trkpt lat="47.86633" lon="5.63785">
        <ele>254.4</ele>
        <time>2024-09-01T08:28:52Z</time>
      </trkpt>
      <trkpt lat="47.86606" lon="5.63738">
        <ele>256.6</ele>
        <time>2024-09-01T08:29:00Z</time>
      </trkpt>
      <trkpt lat="47.8658" lon="5.63695">
        <ele>258.2</ele>
        <time>2024-09-01T08:29:08Z</time>
      </trkpt>
      <trkpt lat="47.86562" lon="5.63648">
        <ele>259.2</ele>
        <time>2024-09-01T08:29:15Z</time>
      </trkpt>
      <trkpt lat="47.86541" lon="5.6359">
        <ele>259</ele>
        <time>2024-09-01T08:29:23Z</time>
      </trkpt>
      <trkpt lat="47.86518" lon="5.63532">
        <ele>257</ele>
        <time>2024-09-01T08:29:30Z</time>
      </trkpt>
      <trkpt lat="47.86491" lon="5.63473">
        <ele>253.6</ele>
        <time>2024-09-01T08:29:36Z</time>
      </trkpt>
      <trkpt lat="47.86452" lon="5.63413">
        <ele>249.3</ele>
        <time>2024-09-01T08:29:42Z</time>
      </trkpt>
      <trkpt lat="47.86407" lon="5.63347">
        <ele>244.7</ele>
        <time>2024-09-01T08:29:48Z</time>
      </trkpt>
      <trkpt lat="47.86399" lon="5.63336">
        <ele>243.9</ele>
        <time>2024-09-01T08:29:49Z</time>
      </trkpt>
      <trkpt lat="47.86358" lon="5.63278">
        <ele>241.1</ele>
        <time>2024-09-01T08:29:54Z</time>
      </trkpt>
      <trkpt lat="47.86335" lon="5.63245">
        <ele>240.4</ele>
        <time>2024-09-01T08:29:57Z</time>
      </trkpt>
      <trkpt lat="47.86294" lon="5.63187">
        <ele>240.4</ele>
        <time>2024-09-01T08:30:03Z</time>
      </trkpt>
      <trkpt lat="47.86266" lon="5.63147">
        <ele>240.9</ele>
        <time>2024-09-01T08:30:08Z</time>
      </trkpt>
      <trkpt lat="47.8624" lon="5.63111">
        <ele>241.4</ele>
        <time>2024-09-01T08:30:13Z</time>
      </trkpt>
      <trkpt lat="47.86233" lon="5.63108">
        <ele>241.5</ele>
        <time>2024-09-01T08:30:14Z</time>
      </trkpt>
      <trkpt lat="47.86226" lon="5.63106">
        <ele>241.6</ele>
        <time>2024-09-01T08:30:15Z</time>
      </trkpt>
      <trkpt lat="47.86212" lon="5.63102">
        <ele>241.7</ele>
        <time>2024-09-01T08:30:17Z</time>
      </trkpt>
      <trkpt lat="47.86199" lon="5.63107">
        <ele>241.7</ele>
        <time>2024-09-01T08:30:19Z</time>
      </trkpt>
      <trkpt lat="47.86193" lon="5.63112">
        <ele>241.7</ele>
        <time>2024-09-01T08:30:20Z</time>
      </trkpt>
      <trkpt lat="47.86186" lon="5.63116">
        <ele>241.7</ele>
        <time>2024-09-01T08:30:21Z</time>
      </trkpt>
      <trkpt lat="47.8616" lon="5.63134">
        <ele>241.6</ele>
        <time>2024-09-01T08:30:25Z</time>
      </trkpt>
      <trkpt lat="47.86122" lon="5.63154">
        <ele>241.9</ele>
        <time>2024-09-01T08:30:31Z</time>
      </trkpt>
      <trkpt lat="47.86108" lon="5.63157">
        <ele>242.2</ele>
        <time>2024-09-01T08:30:33Z</time>
      </trkpt>
      <trkpt lat="47.86094" lon="5.6316">
        <ele>242.6</ele>
        <time>2024-09-01T08:30:35Z</time>
      </trkpt>
      <trkpt lat="47.86082" lon="5.63156">
        <ele>243</ele>
        <time>2024-09-01T08:30:37Z</time>
      </trkpt>
      <trkpt lat="47.8607" lon="5.63149">
        <ele>243.5</ele>
        <time>2024-09-01T08:30:39Z</time>
      </trkpt>
      <trkpt lat="47.86041" lon="5.63119">
        <ele>244.2</ele>
        <time>2024-09-01T08:30:45Z</time>
      </trkpt>
      <trkpt lat="47.8601" lon="5.63085">
        <ele>244</ele>
        <time>2024-09-01T08:30:51Z</time>
      </trkpt>
      <trkpt lat="47.8597" lon="5.63035">
        <ele>243.6</ele>
        <time>2024-09-01T08:30:59Z</time>
      </trkpt>
      <trkpt lat="47.85944" lon="5.62986">
        <ele>243.5</ele>
        <time>2024-09-01T08:31:05Z</time>
      </trkpt>
      <trkpt lat="47.85921" lon="5.6293">
        <ele>243.8</ele>
        <time>2024-09-01T08:31:11Z</time>
      </trkpt>
      <trkpt lat="47.85893" lon="5.62858">
        <ele>244.4</ele>
        <time>2024-09-01T08:31:19Z</time>
      </trkpt>
      <trkpt lat="47.85868" lon="5.62801">
        <ele>244.5</ele>
        <time>2024-09-01T08:31:26Z</time>
      </trkpt>
      <trkpt lat="47.85848" lon="5.62761">
        <ele>244.4</ele>
        <time>2024-09-01T08:31:31Z</time>
      </trkpt>
      <trkpt lat="47.85813" lon="5.62707">
        <ele>244</ele>
        <time>2024-09-01T08:31:38Z</time>
      </trkpt>
      <trkpt lat="47.85775" lon="5.62646">
        <ele>243.8</ele>
        <time>2024-09-01T08:31:46Z</time>
      </trkpt>
      <trkpt lat="47.8577" lon="5.62639">
        <ele>243.7</ele>
        <time>2024-09-01T08:31:47Z</time>
      </trkpt>
      <trkpt lat="47.85738" lon="5.62586">
        <ele>243.6</ele>
        <time>2024-09-01T08:31:54Z</time>
      </trkpt>
      <trkpt lat="47.85709" lon="5.6253">
        <ele>243.4</ele>
        <time>2024-09-01T08:32:01Z</time>
      </trkpt>
      <trkpt lat="47.85674" lon="5.62465">
        <ele>242.7</ele>
        <time>2024-09-01T08:32:09Z</time>
      </trkpt>
      <trkpt lat="47.85642" lon="5.62411">
        <ele>242.1</ele>
        <time>2024-09-01T08:32:16Z</time>
      </trkpt>
      <trkpt lat="47.85605" lon="5.62358">
        <ele>241.3</ele>
        <time>2024-09-01T08:32:24Z</time>
      </trkpt>
      <trkpt lat="47.856" lon="5.62352">
        <ele>241.2</ele>
        <time>2024-09-01T08:32:25Z</time>
      </trkpt>
      <trkpt lat="47.85592" lon="5.6234">
        <ele>241.2</ele>
        <time>2024-09-01T08:32:27Z</time>
      </trkpt>
      <trkpt lat="47.85583" lon="5.62337">
        <ele>241.1</ele>
        <time>2024-09-01T08:32:28Z</time>
      </trkpt>
      <trkpt lat="47.85579" lon="5.62342">
        <ele>241.1</ele>
        <time>2024-09-01T08:32:29Z</time>
      </trkpt>
      <trkpt lat="47.8557" lon="5.62354">
        <ele>241</ele>
        <time>2024-09-01T08:32:31Z</time>
      </trkpt>
      <trkpt lat="47.85543" lon="5.62388">
        <ele>240.7</ele>
        <time>2024-09-01T08:32:36Z</time>
      </trkpt>
      <trkpt lat="47.85521" lon="5.62416">
        <ele>240.6</ele>
        <time>2024-09-01T08:32:40Z</time>
      </trkpt>
      <trkpt lat="47.85506" lon="5.62436">
        <ele>240.6</ele>
        <time>2024-09-01T08:32:43Z</time>
      </trkpt>
      <trkpt lat="47.85464" lon="5.62489">
        <ele>240.9</ele>
        <time>2024-09-01T08:32:51Z</time>
      </trkpt>
      <trkpt lat="47.85435" lon="5.62528">
        <ele>241.5</ele>
        <time>2024-09-01T08:32:57Z</time>
      </trkpt>
      <trkpt lat="47.85422" lon="5.62573">
        <ele>241.7</ele>
        <time>2024-09-01T08:33:02Z</time>
      </trkpt>
      <trkpt lat="47.85403" lon="5.62639">
        <ele>242.3</ele>
        <time>2024-09-01T08:33:09Z</time>
      </trkpt>
      <trkpt lat="47.85397" lon="5.62658">
        <ele>242.5</ele>
        <time>2024-09-01T08:33:11Z</time>
      </trkpt>
      <trkpt lat="47.85388" lon="5.62672">
        <ele>242.6</ele>
        <time>2024-09-01T08:33:13Z</time>
      </trkpt>
      <trkpt lat="47.85378" lon="5.62682">
        <ele>242.9</ele>
        <time>2024-09-01T08:33:15Z</time>
      </trkpt>
      <trkpt lat="47.85372" lon="5.62682">
        <ele>243.1</ele>
        <time>2024-09-01T08:33:16Z</time>
      </trkpt>
      <trkpt lat="47.85366" lon="5.62681">
        <ele>243.2</ele>
        <time>2024-09-01T08:33:17Z</time>
      </trkpt>
      <trkpt lat="47.85354" lon="5.62674">
        <ele>243.6</ele>
        <time>2024-09-01T08:33:19Z</time>
      </trkpt>
      <trkpt lat="47.85348" lon="5.62671">
        <ele>243.7</ele>
        <time>2024-09-01T08:33:20Z</time>
      </trkpt>
      <trkpt lat="47.85309" lon="5.62647">
        <ele>244.8</ele>
        <time>2024-09-01T08:33:27Z</time>
      </trkpt>
      <trkpt lat="47.85266" lon="5.62621">
        <ele>246.7</ele>
        <time>2024-09-01T08:33:35Z</time>
      </trkpt>
      <trkpt lat="47.85235" lon="5.62593">
        <ele>247.1</ele>
        <time>2024-09-01T08:33:42Z</time>
      </trkpt>
      <trkpt lat="47.85196" lon="5.62557">
        <ele>247.3</ele>
        <time>2024-09-01T08:33:50Z</time>
      </trkpt>
      <trkpt lat="47.85159" lon="5.62523">
        <ele>247.8</ele>
        <time>2024-09-01T08:33:57Z</time>
      </trkpt>
      <trkpt lat="47.85118" lon="5.62495">
        <ele>248.4</ele>
        <time>2024-09-01T08:34:04Z</time>
      </trkpt>
      <trkpt lat="47.85082" lon="5.62479">
        <ele>249.3</ele>
        <time>2024-09-01T08:34:10Z</time>
      </trkpt>
      <trkpt lat="47.8504" lon="5.62468">
        <ele>250.2</ele>
        <time>2024-09-01T08:34:17Z</time>
      </trkpt>
      <trkpt lat="47.84992" lon="5.62458">
        <ele>251.3</ele>
        <time>2024-09-01T08:34:25Z</time>
      </trkpt>
      <trkpt lat="47.84951" lon="5.62449">
        <ele>251.7</ele>
        <time>2024-09-01T08:34:32Z</time>
      </trkpt>
      <trkpt lat="47.84945" lon="5.62446">
        <ele>251.6</ele>
        <time>2024-09-01T08:34:33Z</time>
      </trkpt>
      <trkpt lat="47.84903" lon="5.62428">
        <ele>250.3</ele>
        <time>2024-09-01T08:34:40Z</time>
      </trkpt>
      <trkpt lat="47.84871" lon="5.62407">
        <ele>248.5</ele>
        <time>2024-09-01T08:34:45Z</time>
      </trkpt>
      <trkpt lat="47.84865" lon="5.62401">
        <ele>248.1</ele>
        <time>2024-09-01T08:34:46Z</time>
      </trkpt>
      <trkpt lat="47.84858" lon="5.62395">
        <ele>247.5</ele>
        <time>2024-09-01T08:34:47Z</time>
      </trkpt>
      <trkpt lat="47.84839" lon="5.62368">
        <ele>245.7</ele>
        <time>2024-09-01T08:34:50Z</time>
      </trkpt>
      <trkpt lat="47.84818" lon="5.6234">
        <ele>244.2</ele>
        <time>2024-09-01T08:34:53Z</time>
      </trkpt>
      <trkpt lat="47.84802" lon="5.62329">
        <ele>243.6</ele>
        <time>2024-09-01T08:34:55Z</time>
      </trkpt>
      <trkpt lat="47.84767" lon="5.62316">
        <ele>242.4</ele>
        <time>2024-09-01T08:34:59Z</time>
      </trkpt>
      <trkpt lat="47.84708" lon="5.62298">
        <ele>241.3</ele>
        <time>2024-09-01T08:35:06Z</time>
      </trkpt>
      <trkpt lat="47.84653" lon="5.62282">
        <ele>241.2</ele>
        <time>2024-09-01T08:35:13Z</time>
      </trkpt>
      <trkpt lat="47.84645" lon="5.62279">
        <ele>241.2</ele>
        <time>2024-09-01T08:35:14Z</time>
      </trkpt>
      <trkpt lat="47.8459" lon="5.62279">
        <ele>241.6</ele>
        <time>2024-09-01T08:35:21Z</time>
      </trkpt>
      <trkpt lat="47.84549" lon="5.62279">
        <ele>241.8</ele>
        <time>2024-09-01T08:35:27Z</time>
      </trkpt>
      <trkpt lat="47.84507" lon="5.62279">
        <ele>241.3</ele>
        <time>2024-09-01T08:35:33Z</time>
      </trkpt>
      <trkpt lat="47.84455" lon="5.62291">
        <ele>239.9</ele>
        <time>2024-09-01T08:35:40Z</time>
      </trkpt>
      <trkpt lat="47.84407" lon="5.62313">
        <ele>238.9</ele>
        <time>2024-09-01T08:35:46Z</time>
      </trkpt>
      <trkpt lat="47.84351" lon="5.62344">
        <ele>238.3</ele>
        <time>2024-09-01T08:35:53Z</time>
      </trkpt>
      <trkpt lat="47.84316" lon="5.62378">
        <ele>238.3</ele>
        <time>2024-09-01T08:35:58Z</time>
      </trkpt>
      <trkpt lat="47.84275" lon="5.62437">
        <ele>238.5</ele>
        <time>2024-09-01T08:36:05Z</time>
      </trkpt>
      <trkpt lat="47.84241" lon="5.62494">
        <ele>238.9</ele>
        <time>2024-09-01T08:36:12Z</time>
      </trkpt>
      <trkpt lat="47.84203" lon="5.62557">
        <ele>239.7</ele>
        <time>2024-09-01T08:36:20Z</time>
      </trkpt>
      <trkpt lat="47.84199" lon="5.62565">
        <ele>239.8</ele>
        <time>2024-09-01T08:36:21Z</time>
      </trkpt>
      <trkpt lat="47.84161" lon="5.62633">
        <ele>240.4</ele>
        <time>2024-09-01T08:36:30Z</time>
      </trkpt>
      <trkpt lat="47.84135" lon="5.62691">
        <ele>240.1</ele>
        <time>2024-09-01T08:36:37Z</time>
      </trkpt>
      <trkpt lat="47.84106" lon="5.6276">
        <ele>240.8</ele>
        <time>2024-09-01T08:36:45Z</time>
      </trkpt>
      <trkpt lat="47.84103" lon="5.62768">
        <ele>240.9</ele>
        <time>2024-09-01T08:36:46Z</time>
      </trkpt>
      <trkpt lat="47.84077" lon="5.62832">
        <ele>241.7</ele>
        <time>2024-09-01T08:36:54Z</time>
      </trkpt>
      <trkpt lat="47.84063" lon="5.62885">
        <ele>242.2</ele>
        <time>2024-09-01T08:37:01Z</time>
      </trkpt>
      <trkpt lat="47.84049" lon="5.62945">
        <ele>242.1</ele>
        <time>2024-09-01T08:37:08Z</time>
      </trkpt>
      <trkpt lat="47.84032" lon="5.63021">
        <ele>241.5</ele>
        <time>2024-09-01T08:37:17Z</time>
      </trkpt>
      <trkpt lat="47.84017" lon="5.63083">
        <ele>240.9</ele>
        <time>2024-09-01T08:37:25Z</time>
      </trkpt>
      <trkpt lat="47.84002" lon="5.63131">
        <ele>240.9</ele>
        <time>2024-09-01T08:37:32Z</time>
      </trkpt>
      <trkpt lat="47.83987" lon="5.63183">
        <ele>241.2</ele>
        <time>2024-09-01T08:37:39Z</time>
      </trkpt>
      <trkpt lat="47.83975" lon="5.63219">
        <ele>241.2</ele>
        <time>2024-09-01T08:37:44Z</time>
      </trkpt>
      <trkpt lat="47.8397" lon="5.63233">
        <ele>241.1</ele>
        <time>2024-09-01T08:37:46Z</time>
      </trkpt>
      <trkpt lat="47.83946" lon="5.63271">
        <ele>240.9</ele>
        <time>2024-09-01T08:37:52Z</time>
      </trkpt>
      <trkpt lat="47.83913" lon="5.63305">
        <ele>240.7</ele>
        <time>2024-09-01T08:37:59Z</time>
      </trkpt>
      <trkpt lat="47.83908" lon="5.6331">
        <ele>240.7</ele>
        <time>2024-09-01T08:38:00Z</time>
      </trkpt>
      <trkpt lat="47.83891" lon="5.63326">
        <ele>240.7</ele>
        <time>2024-09-01T08:38:04Z</time>
      </trkpt>
      <trkpt lat="47.83887" lon="5.6333">
        <ele>240.7</ele>
        <time>2024-09-01T08:38:05Z</time>
      </trkpt>
      <trkpt lat="47.83878" lon="5.63342">
        <ele>240.7</ele>
        <time>2024-09-01T08:38:08Z</time>
      </trkpt>
      <trkpt lat="47.83875" lon="5.63347">
        <ele>240.7</ele>
        <time>2024-09-01T08:38:09Z</time>
      </trkpt>
      <trkpt lat="47.83873" lon="5.63352">
        <ele>240.7</ele>
        <time>2024-09-01T08:38:10Z</time>
      </trkpt>
      <trkpt lat="47.83862" lon="5.63379">
        <ele>240.9</ele>
        <time>2024-09-01T08:38:15Z</time>
      </trkpt>
      <trkpt lat="47.83852" lon="5.63404">
        <ele>240.9</ele>
        <time>2024-09-01T08:38:22Z</time>
      </trkpt>
      <trkpt lat="47.83841" lon="5.6343">
        <ele>240.7</ele>
        <time>2024-09-01T08:38:28Z</time>
      </trkpt>
      <trkpt lat="47.83828" lon="5.63463">
        <ele>240.5</ele>
        <time>2024-09-01T08:38:35Z</time>
      </trkpt>
      <trkpt lat="47.83823" lon="5.63475">
        <ele>240.4</ele>
        <time>2024-09-01T08:38:38Z</time>
      </trkpt>
      <trkpt lat="47.83822" lon="5.63489">
        <ele>240.8</ele>
        <time>2024-09-01T08:38:39Z</time>
      </trkpt>
      <trkpt lat="47.83823" lon="5.6349">
        <ele>240.9</ele>
        <time>2024-09-01T08:38:42Z</time>
      </trkpt>
      <trkpt lat="47.83825" lon="5.63492">
        <ele>241.2</ele>
        <time>2024-09-01T08:38:49Z</time>
      </trkpt>
      <trkpt lat="47.83828" lon="5.63495">
        <ele>241.6</ele>
        <time>2024-09-01T08:38:52Z</time>
      </trkpt>
      <trkpt lat="47.83829" lon="5.63496">
        <ele>241.7</ele>
        <time>2024-09-01T08:38:56Z</time>
      </trkpt>
      <trkpt lat="47.83817" lon="5.63488">
        <ele>240.4</ele>
        <time>2024-09-01T08:44:48Z</time>
      </trkpt>
      <trkpt lat="47.83808" lon="5.63504">
        <ele>240.4</ele>
        <time>2024-09-01T08:44:54Z</time>
      </trkpt>
      <trkpt lat="47.83792" lon="5.63522">
        <ele>240.4</ele>
        <time>2024-09-01T08:45:00Z</time>
      </trkpt>
      <trkpt lat="47.83778" lon="5.63537">
        <ele>240.4</ele>
        <time>2024-09-01T08:45:05Z</time>
      </trkpt>
      <trkpt lat="47.83763" lon="5.63545">
        <ele>240.1</ele>
        <time>2024-09-01T08:45:09Z</time>
      </trkpt>
      <trkpt lat="47.83759" lon="5.63543">
        <ele>239.9</ele>
        <time>2024-09-01T08:45:10Z</time>
      </trkpt>
      <trkpt lat="47.83753" lon="5.63541">
        <ele>239.7</ele>
        <time>2024-09-01T08:45:11Z</time>
      </trkpt>
      <trkpt lat="47.83743" lon="5.63547">
        <ele>239.2</ele>
        <time>2024-09-01T08:45:13Z</time>
      </trkpt>
      <trkpt lat="47.83738" lon="5.6355">
        <ele>239</ele>
        <time>2024-09-01T08:45:14Z</time>
      </trkpt>
      <trkpt lat="47.83683" lon="5.63578">
        <ele>237.9</ele>
        <time>2024-09-01T08:45:24Z</time>
      </trkpt>
      <trkpt lat="47.83678" lon="5.63579">
        <ele>237.8</ele>
        <time>2024-09-01T08:45:25Z</time>
      </trkpt>
      <trkpt lat="47.8366" lon="5.63581">
        <ele>237.8</ele>
        <time>2024-09-01T08:45:28Z</time>
      </trkpt>
      <trkpt lat="47.83653" lon="5.6358">
        <ele>237.8</ele>
        <time>2024-09-01T08:45:29Z</time>
      </trkpt>
      <trkpt lat="47.83599" lon="5.6356">
        <ele>237.1</ele>
        <time>2024-09-01T08:45:37Z</time>
      </trkpt>
      <trkpt lat="47.8357" lon="5.63537">
        <ele>237</ele>
        <time>2024-09-01T08:45:42Z</time>
      </trkpt>
      <trkpt lat="47.83526" lon="5.63503">
        <ele>237.1</ele>
        <time>2024-09-01T08:45:49Z</time>
      </trkpt>
      <trkpt lat="47.83489" lon="5.6347">
        <ele>237.3</ele>
        <time>2024-09-01T08:45:55Z</time>
      </trkpt>
      <trkpt lat="47.83442" lon="5.63423">
        <ele>237.2</ele>
        <time>2024-09-01T08:46:03Z</time>
      </trkpt>
      <trkpt lat="47.83394" lon="5.63374">
        <ele>237.3</ele>
        <time>2024-09-01T08:46:11Z</time>
      </trkpt>
      <trkpt lat="47.83346" lon="5.63326">
        <ele>237.4</ele>
        <time>2024-09-01T08:46:19Z</time>
      </trkpt>
      <trkpt lat="47.83305" lon="5.63284">
        <ele>237.6</ele>
        <time>2024-09-01T08:46:26Z</time>
      </trkpt>
      <trkpt lat="47.83272" lon="5.63251">
        <ele>237.7</ele>
        <time>2024-09-01T08:46:32Z</time>
      </trkpt>
      <trkpt lat="47.83236" lon="5.63214">
        <ele>237.9</ele>
        <time>2024-09-01T08:46:38Z</time>
      </trkpt>
      <trkpt lat="47.83194" lon="5.63171">
        <ele>238.3</ele>
        <time>2024-09-01T08:46:46Z</time>
      </trkpt>
      <trkpt lat="47.83155" lon="5.63132">
        <ele>238.5</ele>
        <time>2024-09-01T08:46:53Z</time>
      </trkpt>
      <trkpt lat="47.83123" lon="5.63099">
        <ele>238.7</ele>
        <time>2024-09-01T08:46:59Z</time>
      </trkpt>
      <trkpt lat="47.83076" lon="5.63052">
        <ele>239</ele>
        <time>2024-09-01T08:47:08Z</time>
      </trkpt>
      <trkpt lat="47.83049" lon="5.63025">
        <ele>239.1</ele>
        <time>2024-09-01T08:47:14Z</time>
      </trkpt>
      <trkpt lat="47.83041" lon="5.63016">
        <ele>239.1</ele>
        <time>2024-09-01T08:47:16Z</time>
      </trkpt>
      <trkpt lat="47.83013" lon="5.62978">
        <ele>239.2</ele>
        <time>2024-09-01T08:47:23Z</time>
      </trkpt>
      <trkpt lat="47.83006" lon="5.62965">
        <ele>239.3</ele>
        <time>2024-09-01T08:47:25Z</time>
      </trkpt>
      <trkpt lat="47.83002" lon="5.62947">
        <ele>239.6</ele>
        <time>2024-09-01T08:47:27Z</time>
      </trkpt>
      <trkpt lat="47.83007" lon="5.62911">
        <ele>240.8</ele>
        <time>2024-09-01T08:47:32Z</time>
      </trkpt>
      <trkpt lat="47.83005" lon="5.62878">
        <ele>242.3</ele>
        <time>2024-09-01T08:47:37Z</time>
      </trkpt>
      <trkpt lat="47.83003" lon="5.62866">
        <ele>242.9</ele>
        <time>2024-09-01T08:47:39Z</time>
      </trkpt>
      <trkpt lat="47.82995" lon="5.62825">
        <ele>244.6</ele>
        <time>2024-09-01T08:47:46Z</time>
      </trkpt>
      <trkpt lat="47.82988" lon="5.62785">
        <ele>246.3</ele>
        <time>2024-09-01T08:47:53Z</time>
      </trkpt>
      <trkpt lat="47.8298" lon="5.62743">
        <ele>248.2</ele>
        <time>2024-09-01T08:48:01Z</time>
      </trkpt>
      <trkpt lat="47.82975" lon="5.62713">
        <ele>249.5</ele>
        <time>2024-09-01T08:48:07Z</time>
      </trkpt>
      <trkpt lat="47.82968" lon="5.62678">
        <ele>251.1</ele>
        <time>2024-09-01T08:48:14Z</time>
      </trkpt>
      <trkpt lat="47.82961" lon="5.62639">
        <ele>253</ele>
        <time>2024-09-01T08:48:22Z</time>
      </trkpt>
      <trkpt lat="47.82956" lon="5.62612">
        <ele>254.3</ele>
        <time>2024-09-01T08:48:28Z</time>
      </trkpt>
      <trkpt lat="47.82949" lon="5.62577">
        <ele>256</ele>
        <time>2024-09-01T08:48:36Z</time>
      </trkpt>
      <trkpt lat="47.82944" lon="5.62545">
        <ele>257.7</ele>
        <time>2024-09-01T08:48:44Z</time>
      </trkpt>
      <trkpt lat="47.82939" lon="5.62521">
        <ele>259</ele>
        <time>2024-09-01T08:48:50Z</time>
      </trkpt>
      <trkpt lat="47.82935" lon="5.62498">
        <ele>260.2</ele>
        <time>2024-09-01T08:48:56Z</time>
      </trkpt>
      <trkpt lat="47.82931" lon="5.62477">
        <ele>261.4</ele>
        <time>2024-09-01T08:49:02Z</time>
      </trkpt>
      <trkpt lat="47.82929" lon="5.62465">
        <ele>262</ele>
        <time>2024-09-01T08:49:05Z</time>
      </trkpt>
      <trkpt lat="47.82927" lon="5.62457">
        <ele>262.5</ele>
        <time>2024-09-01T08:49:07Z</time>
      </trkpt>
      <trkpt lat="47.82923" lon="5.62436">
        <ele>263.5</ele>
        <time>2024-09-01T08:49:13Z</time>
      </trkpt>
      <trkpt lat="47.82919" lon="5.62414">
        <ele>264.4</ele>
        <time>2024-09-01T08:49:19Z</time>
      </trkpt>
      <trkpt lat="47.82916" lon="5.62398">
        <ele>264.9</ele>
        <time>2024-09-01T08:49:23Z</time>
      </trkpt>
      <trkpt lat="47.82911" lon="5.62387">
        <ele>265.4</ele>
        <time>2024-09-01T08:49:27Z</time>
      </trkpt>
      <trkpt lat="47.82902" lon="5.62373">
        <ele>266.3</ele>
        <time>2024-09-01T08:49:32Z</time>
      </trkpt>
      <trkpt lat="47.82893" lon="5.62367">
        <ele>267</ele>
        <time>2024-09-01T08:49:36Z</time>
      </trkpt>
      <trkpt lat="47.8289" lon="5.62366">
        <ele>267.2</ele>
        <time>2024-09-01T08:49:37Z</time>
      </trkpt>
      <trkpt lat="47.82887" lon="5.62366">
        <ele>267.5</ele>
        <time>2024-09-01T08:49:38Z</time>
      </trkpt>
      <trkpt lat="47.82879" lon="5.62365">
        <ele>268.1</ele>
        <time>2024-09-01T08:49:41Z</time>
      </trkpt>
      <trkpt lat="47.82863" lon="5.62363">
        <ele>269.3</ele>
        <time>2024-09-01T08:49:47Z</time>
      </trkpt>
      <trkpt lat="47.82847" lon="5.62362">
        <ele>270.2</ele>
        <time>2024-09-01T08:49:53Z</time>
      </trkpt>
      <trkpt lat="47.82833" lon="5.62357">
        <ele>271.1</ele>
        <time>2024-09-01T08:49:59Z</time>
      </trkpt>
      <trkpt lat="47.82818" lon="5.62346">
        <ele>272.2</ele>
        <time>2024-09-01T08:50:05Z</time>
      </trkpt>
      <trkpt lat="47.82809" lon="5.62336">
        <ele>272.8</ele>
        <time>2024-09-01T08:50:09Z</time>
      </trkpt>
      <trkpt lat="47.82802" lon="5.62324">
        <ele>273.4</ele>
        <time>2024-09-01T08:50:13Z</time>
      </trkpt>
      <trkpt lat="47.82794" lon="5.62309">
        <ele>274.2</ele>
        <time>2024-09-01T08:50:18Z</time>
      </trkpt>
      <trkpt lat="47.82786" lon="5.62289">
        <ele>275.2</ele>
        <time>2024-09-01T08:50:24Z</time>
      </trkpt>
      <trkpt lat="47.82784" lon="5.62285">
        <ele>275.4</ele>
        <time>2024-09-01T08:50:25Z</time>
      </trkpt>
      <trkpt lat="47.82782" lon="5.62277">
        <ele>275.8</ele>
        <time>2024-09-01T08:50:27Z</time>
      </trkpt>
      <trkpt lat="47.82775" lon="5.62252">
        <ele>276.9</ele>
        <time>2024-09-01T08:50:34Z</time>
      </trkpt>
      <trkpt lat="47.8277" lon="5.62227">
        <ele>278</ele>
        <time>2024-09-01T08:50:41Z</time>
      </trkpt>
      <trkpt lat="47.8277" lon="5.62224">
        <ele>278.1</ele>
        <time>2024-09-01T08:50:42Z</time>
      </trkpt>
      <trkpt lat="47.82768" lon="5.62213">
        <ele>278.6</ele>
        <time>2024-09-01T08:50:45Z</time>
      </trkpt>
      <trkpt lat="47.82767" lon="5.62207">
        <ele>278.9</ele>
        <time>2024-09-01T08:50:49Z</time>
      </trkpt>
      <trkpt lat="47.8287" lon="5.62267">
        <ele>285.6</ele>
        <time>2024-09-01T08:52:45Z</time>
      </trkpt>
      <trkpt lat="47.82876" lon="5.62266">
        <ele>286</ele>
        <time>2024-09-01T08:52:50Z</time>
      </trkpt>
      <trkpt lat="47.82877" lon="5.62265">
        <ele>286</ele>
        <time>2024-09-01T08:52:51Z</time>
      </trkpt>
      <trkpt lat="47.82912" lon="5.62261">
        <ele>287.4</ele>
        <time>2024-09-01T09:00:14Z</time>
      </trkpt>
      <trkpt lat="47.82911" lon="5.62261">
        <ele>287.3</ele>
        <time>2024-09-01T09:00:16Z</time>
      </trkpt>
      <trkpt lat="47.82876" lon="5.62272">
        <ele>285.4</ele>
        <time>2024-09-01T09:02:30Z</time>
      </trkpt>
      <trkpt lat="47.82868" lon="5.62273">
        <ele>285</ele>
        <time>2024-09-01T09:02:33Z</time>
      </trkpt>
      <trkpt lat="47.8286" lon="5.62272">
        <ele>284.5</ele>
        <time>2024-09-01T09:02:38Z</time>
      </trkpt>
      <trkpt lat="47.8285" lon="5.62265">
        <ele>284</ele>
        <time>2024-09-01T09:02:44Z</time>
      </trkpt>
      <trkpt lat="47.82832" lon="5.62255">
        <ele>282.9</ele>
        <time>2024-09-01T09:02:59Z</time>
      </trkpt>
      <trkpt lat="47.8283" lon="5.62254">
        <ele>282.8</ele>
        <time>2024-09-01T09:03:00Z</time>
      </trkpt>
      <trkpt lat="47.82818" lon="5.62247">
        <ele>282.1</ele>
        <time>2024-09-01T09:03:06Z</time>
      </trkpt>
      <trkpt lat="47.82811" lon="5.62242">
        <ele>281.7</ele>
        <time>2024-09-01T09:03:10Z</time>
      </trkpt>
      <trkpt lat="47.82806" lon="5.62239">
        <ele>281.4</ele>
        <time>2024-09-01T09:03:12Z</time>
      </trkpt>
      <trkpt lat="47.82797" lon="5.62236">
        <ele>280.9</ele>
        <time>2024-09-01T09:03:17Z</time>
      </trkpt>
      <trkpt lat="47.82784" lon="5.62228">
        <ele>280.1</ele>
        <time>2024-09-01T09:03:24Z</time>
      </trkpt>
      <trkpt lat="47.8277" lon="5.62223">
        <ele>279.3</ele>
        <time>2024-09-01T09:03:30Z</time>
      </trkpt>
      <trkpt lat="47.8277" lon="5.62223">
        <ele>279.3</ele>
        <time>2024-09-01T09:03:31Z</time>
      </trkpt>
      <trkpt lat="47.82767" lon="5.6221">
        <ele>278.9</ele>
        <time>2024-09-01T09:03:40Z</time>
      </trkpt>
      <trkpt lat="47.82766" lon="5.622">
        <ele>279.3</ele>
        <time>2024-09-01T09:03:44Z</time>
      </trkpt>
      <trkpt lat="47.82762" lon="5.62179">
        <ele>280.3</ele>
        <time>2024-09-01T09:03:50Z</time>
      </trkpt>
      <trkpt lat="47.82756" lon="5.62145">
        <ele>281.8</ele>
        <time>2024-09-01T09:03:58Z</time>
      </trkpt>
      <trkpt lat="47.82751" lon="5.62114">
        <ele>283.1</ele>
        <time>2024-09-01T09:04:04Z</time>
      </trkpt>
      <trkpt lat="47.82748" lon="5.62094">
        <ele>283.9</ele>
        <time>2024-09-01T09:04:08Z</time>
      </trkpt>
      <trkpt lat="47.82743" lon="5.62067">
        <ele>285</ele>
        <time>2024-09-01T09:04:14Z</time>
      </trkpt>
      <trkpt lat="47.82738" lon="5.62038">
        <ele>286.4</ele>
        <time>2024-09-01T09:04:21Z</time>
      </trkpt>
      <trkpt lat="47.82732" lon="5.62005">
        <ele>288.1</ele>
        <time>2024-09-01T09:04:28Z</time>
      </trkpt>
      <trkpt lat="47.82727" lon="5.61973">
        <ele>289.6</ele>
        <time>2024-09-01T09:04:35Z</time>
      </trkpt>
      <trkpt lat="47.82722" lon="5.61944">
        <ele>291</ele>
        <time>2024-09-01T09:04:42Z</time>
      </trkpt>
      <trkpt lat="47.82717" lon="5.61915">
        <ele>292.2</ele>
        <time>2024-09-01T09:04:49Z</time>
      </trkpt>
      <trkpt lat="47.8271" lon="5.61874">
        <ele>293.9</ele>
        <time>2024-09-01T09:04:58Z</time>
      </trkpt>
      <trkpt lat="47.82704" lon="5.61843">
        <ele>295.1</ele>
        <time>2024-09-01T09:05:05Z</time>
      </trkpt>
      <trkpt lat="47.82699" lon="5.61809">
        <ele>296.5</ele>
        <time>2024-09-01T09:05:13Z</time>
      </trkpt>
      <trkpt lat="47.82692" lon="5.61772">
        <ele>298</ele>
        <time>2024-09-01T09:05:22Z</time>
      </trkpt>
      <trkpt lat="47.82687" lon="5.6174">
        <ele>298.9</ele>
        <time>2024-09-01T09:05:29Z</time>
      </trkpt>
      <trkpt lat="47.8268" lon="5.61702">
        <ele>300.1</ele>
        <time>2024-09-01T09:05:38Z</time>
      </trkpt>
      <trkpt lat="47.82673" lon="5.61659">
        <ele>301.9</ele>
        <time>2024-09-01T09:05:48Z</time>
      </trkpt>
      <trkpt lat="47.82666" lon="5.61622">
        <ele>303.4</ele>
        <time>2024-09-01T09:05:57Z</time>
      </trkpt>
      <trkpt lat="47.8266" lon="5.61586">
        <ele>305</ele>
        <time>2024-09-01T09:06:06Z</time>
      </trkpt>
      <trkpt lat="47.82654" lon="5.61548">
        <ele>306.5</ele>
        <time>2024-09-01T09:06:15Z</time>
      </trkpt>
      <trkpt lat="47.82646" lon="5.61501">
        <ele>308.5</ele>
        <time>2024-09-01T09:06:26Z</time>
      </trkpt>
      <trkpt lat="47.82638" lon="5.61458">
        <ele>310.3</ele>
        <time>2024-09-01T09:06:36Z</time>
      </trkpt>
      <trkpt lat="47.82629" lon="5.61415">
        <ele>312.1</ele>
        <time>2024-09-01T09:06:46Z</time>
      </trkpt>
      <trkpt lat="47.82621" lon="5.61377">
        <ele>313.6</ele>
        <time>2024-09-01T09:06:55Z</time>
      </trkpt>
      <trkpt lat="47.82614" lon="5.61333">
        <ele>314.9</ele>
        <time>2024-09-01T09:07:04Z</time>
      </trkpt>
      <trkpt lat="47.82599" lon="5.61291">
        <ele>314.9</ele>
        <time>2024-09-01T09:07:13Z</time>
      </trkpt>
      <trkpt lat="47.82585" lon="5.6124">
        <ele>314.6</ele>
        <time>2024-09-01T09:07:22Z</time>
      </trkpt>
      <trkpt lat="47.82585" lon="5.61233">
        <ele>314.6</ele>
        <time>2024-09-01T09:07:23Z</time>
      </trkpt>
      <trkpt lat="47.8258" lon="5.61176">
        <ele>315.3</ele>
        <time>2024-09-01T09:07:32Z</time>
      </trkpt>
      <trkpt lat="47.82574" lon="5.61116">
        <ele>315.5</ele>
        <time>2024-09-01T09:07:42Z</time>
      </trkpt>
      <trkpt lat="47.82571" lon="5.61077">
        <ele>315.5</ele>
        <time>2024-09-01T09:07:50Z</time>
      </trkpt>
      <trkpt lat="47.82567" lon="5.61033">
        <ele>314.8</ele>
        <time>2024-09-01T09:07:58Z</time>
      </trkpt>
      <trkpt lat="47.82563" lon="5.61005">
        <ele>314.4</ele>
        <time>2024-09-01T09:08:04Z</time>
      </trkpt>
      <trkpt lat="47.82566" lon="5.60983">
        <ele>314.3</ele>
        <time>2024-09-01T09:08:10Z</time>
      </trkpt>
      <trkpt lat="47.82571" lon="5.6095">
        <ele>314.1</ele>
        <time>2024-09-01T09:08:17Z</time>
      </trkpt>
      <trkpt lat="47.82576" lon="5.60914">
        <ele>313.2</ele>
        <time>2024-09-01T09:08:25Z</time>
      </trkpt>
      <trkpt lat="47.82577" lon="5.60903">
        <ele>312.8</ele>
        <time>2024-09-01T09:08:30Z</time>
      </trkpt>
      <trkpt lat="47.82574" lon="5.60893">
        <ele>311.9</ele>
        <time>2024-09-01T09:08:39Z</time>
      </trkpt>
      <trkpt lat="47.82569" lon="5.60891">
        <ele>311.1</ele>
        <time>2024-09-01T09:08:41Z</time>
      </trkpt>
      <trkpt lat="47.82548" lon="5.60883">
        <ele>308</ele>
        <time>2024-09-01T09:08:48Z</time>
      </trkpt>
      <trkpt lat="47.82538" lon="5.60878">
        <ele>306.5</ele>
        <time>2024-09-01T09:08:54Z</time>
      </trkpt>
      <trkpt lat="47.82538" lon="5.60878">
        <ele>306.5</ele>
        <time>2024-09-01T09:08:55Z</time>
      </trkpt>
      <trkpt lat="47.82529" lon="5.60879">
        <ele>305.7</ele>
        <time>2024-09-01T09:09:13Z</time>
      </trkpt>
      <trkpt lat="47.82526" lon="5.60885">
        <ele>305.6</ele>
        <time>2024-09-01T09:09:15Z</time>
      </trkpt>
      <trkpt lat="47.82517" lon="5.60909">
        <ele>305.3</ele>
        <time>2024-09-01T09:09:21Z</time>
      </trkpt>
      <trkpt lat="47.82511" lon="5.60928">
        <ele>305</ele>
        <time>2024-09-01T09:09:27Z</time>
      </trkpt>
      <trkpt lat="47.8251" lon="5.60934">
        <ele>305</ele>
        <time>2024-09-01T09:09:32Z</time>
      </trkpt>
      <trkpt lat="47.82482" lon="5.61009">
        <ele>296.2</ele>
        <time>2024-09-01T09:11:06Z</time>
      </trkpt>
      <trkpt lat="47.82474" lon="5.6102">
        <ele>294</ele>
        <time>2024-09-01T09:11:16Z</time>
      </trkpt>
      <trkpt lat="47.82474" lon="5.61021">
        <ele>293.8</ele>
        <time>2024-09-01T09:11:17Z</time>
      </trkpt>
      <trkpt lat="47.82513" lon="5.60923">
        <ele>305.1</ele>
        <time>2024-09-01T09:16:06Z</time>
      </trkpt>
      <trkpt lat="47.82514" lon="5.60918">
        <ele>305.2</ele>
        <time>2024-09-01T09:16:08Z</time>
      </trkpt>
      <trkpt lat="47.82521" lon="5.60896">
        <ele>305.4</ele>
        <time>2024-09-01T09:16:16Z</time>
      </trkpt>
      <trkpt lat="47.82532" lon="5.60869">
        <ele>305.7</ele>
        <time>2024-09-01T09:16:23Z</time>
      </trkpt>
      <trkpt lat="47.82537" lon="5.60837">
        <ele>305.1</ele>
        <time>2024-09-01T09:16:29Z</time>
      </trkpt>
      <trkpt lat="47.82549" lon="5.60796">
        <ele>304.8</ele>
        <time>2024-09-01T09:16:35Z</time>
      </trkpt>
      <trkpt lat="47.82568" lon="5.60753">
        <ele>305.5</ele>
        <time>2024-09-01T09:16:42Z</time>
      </trkpt>
      <trkpt lat="47.82594" lon="5.60705">
        <ele>306.5</ele>
        <time>2024-09-01T09:16:51Z</time>
      </trkpt>
      <trkpt lat="47.82612" lon="5.60681">
        <ele>307.4</ele>
        <time>2024-09-01T09:16:56Z</time>
      </trkpt>
      <trkpt lat="47.82619" lon="5.60672">
        <ele>307.7</ele>
        <time>2024-09-01T09:16:58Z</time>
      </trkpt>
      <trkpt lat="47.82623" lon="5.60668">
        <ele>307.9</ele>
        <time>2024-09-01T09:16:59Z</time>
      </trkpt>
      <trkpt lat="47.82635" lon="5.60648">
        <ele>308.7</ele>
        <time>2024-09-01T09:17:03Z</time>
      </trkpt>
      <trkpt lat="47.82659" lon="5.60607">
        <ele>309.8</ele>
        <time>2024-09-01T09:17:11Z</time>
      </trkpt>
      <trkpt lat="47.82686" lon="5.60561">
        <ele>310.1</ele>
        <time>2024-09-01T09:17:20Z</time>
      </trkpt>
      <trkpt lat="47.82704" lon="5.60532">
        <ele>311.1</ele>
        <time>2024-09-01T09:17:26Z</time>
      </trkpt>
      <trkpt lat="47.82707" lon="5.60528">
        <ele>311.4</ele>
        <time>2024-09-01T09:17:27Z</time>
      </trkpt>
      <trkpt lat="47.82725" lon="5.6051">
        <ele>313.8</ele>
        <time>2024-09-01T09:17:32Z</time>
      </trkpt>
      <trkpt lat="47.82738" lon="5.60486">
        <ele>313.6</ele>
        <time>2024-09-01T09:17:37Z</time>
      </trkpt>
      <trkpt lat="47.82758" lon="5.60449">
        <ele>313.2</ele>
        <time>2024-09-01T09:17:43Z</time>
      </trkpt>
      <trkpt lat="47.82785" lon="5.60396">
        <ele>312.6</ele>
        <time>2024-09-01T09:17:52Z</time>
      </trkpt>
      <trkpt lat="47.82805" lon="5.60359">
        <ele>312.1</ele>
        <time>2024-09-01T09:17:58Z</time>
      </trkpt>
      <trkpt lat="47.82815" lon="5.60351">
        <ele>311.9</ele>
        <time>2024-09-01T09:18:00Z</time>
      </trkpt>
      <trkpt lat="47.82832" lon="5.60339">
        <ele>311.5</ele>
        <time>2024-09-01T09:18:03Z</time>
      </trkpt>
      <trkpt lat="47.82868" lon="5.60323">
        <ele>310.3</ele>
        <time>2024-09-01T09:18:09Z</time>
      </trkpt>
      <trkpt lat="47.82892" lon="5.60308">
        <ele>309.1</ele>
        <time>2024-09-01T09:18:14Z</time>
      </trkpt>
      <trkpt lat="47.82907" lon="5.60293">
        <ele>307.7</ele>
        <time>2024-09-01T09:18:19Z</time>
      </trkpt>
      <trkpt lat="47.82911" lon="5.60289">
        <ele>307.3</ele>
        <time>2024-09-01T09:18:20Z</time>
      </trkpt>
      <trkpt lat="47.82924" lon="5.60268">
        <ele>305.2</ele>
        <time>2024-09-01T09:18:23Z</time>
      </trkpt>
      <trkpt lat="47.82951" lon="5.60223">
        <ele>300.4</ele>
        <time>2024-09-01T09:18:28Z</time>
      </trkpt>
      <trkpt lat="47.8299" lon="5.60158">
        <ele>294.1</ele>
        <time>2024-09-01T09:18:34Z</time>
      </trkpt>
      <trkpt lat="47.82997" lon="5.60147">
        <ele>293.1</ele>
        <time>2024-09-01T09:18:35Z</time>
      </trkpt>
      <trkpt lat="47.83034" lon="5.60081">
        <ele>288.5</ele>
        <time>2024-09-01T09:18:41Z</time>
      </trkpt>
      <trkpt lat="47.8304" lon="5.6007">
        <ele>287.8</ele>
        <time>2024-09-01T09:18:42Z</time>
      </trkpt>
      <trkpt lat="47.83075" lon="5.60003">
        <ele>283</ele>
        <time>2024-09-01T09:18:48Z</time>
      </trkpt>
      <trkpt lat="47.83082" lon="5.59993">
        <ele>282.2</ele>
        <time>2024-09-01T09:18:49Z</time>
      </trkpt>
      <trkpt lat="47.83123" lon="5.5993">
        <ele>277.3</ele>
        <time>2024-09-01T09:18:55Z</time>
      </trkpt>
      <trkpt lat="47.83138" lon="5.59908">
        <ele>275.7</ele>
        <time>2024-09-01T09:18:57Z</time>
      </trkpt>
      <trkpt lat="47.8318" lon="5.59843">
        <ele>272.4</ele>
        <time>2024-09-01T09:19:03Z</time>
      </trkpt>
      <trkpt lat="47.832" lon="5.59813">
        <ele>270.9</ele>
        <time>2024-09-01T09:19:06Z</time>
      </trkpt>
      <trkpt lat="47.83215" lon="5.59798">
        <ele>269.9</ele>
        <time>2024-09-01T09:19:08Z</time>
      </trkpt>
      <trkpt lat="47.83232" lon="5.59788">
        <ele>268.9</ele>
        <time>2024-09-01T09:19:10Z</time>
      </trkpt>
      <trkpt lat="47.83291" lon="5.59766">
        <ele>264.4</ele>
        <time>2024-09-01T09:19:17Z</time>
      </trkpt>
      <trkpt lat="47.8333" lon="5.59761">
        <ele>261.3</ele>
        <time>2024-09-01T09:19:22Z</time>
      </trkpt>
      <trkpt lat="47.8335" lon="5.5976">
        <ele>259.7</ele>
        <time>2024-09-01T09:19:25Z</time>
      </trkpt>
      <trkpt lat="47.83359" lon="5.59756">
        <ele>258.7</ele>
        <time>2024-09-01T09:19:27Z</time>
      </trkpt>
      <trkpt lat="47.83363" lon="5.59742">
        <ele>257.4</ele>
        <time>2024-09-01T09:19:29Z</time>
      </trkpt>
      <trkpt lat="47.83362" lon="5.59724">
        <ele>255.8</ele>
        <time>2024-09-01T09:19:31Z</time>
      </trkpt>
      <trkpt lat="47.83361" lon="5.59714">
        <ele>254.8</ele>
        <time>2024-09-01T09:19:32Z</time>
      </trkpt>
      <trkpt lat="47.83356" lon="5.59663">
        <ele>251.3</ele>
        <time>2024-09-01T09:19:37Z</time>
      </trkpt>
      <trkpt lat="47.83355" lon="5.59653">
        <ele>250.7</ele>
        <time>2024-09-01T09:19:38Z</time>
      </trkpt>
      <trkpt lat="47.83356" lon="5.59644">
        <ele>250.3</ele>
        <time>2024-09-01T09:19:39Z</time>
      </trkpt>
      <trkpt lat="47.83361" lon="5.59615">
        <ele>249.1</ele>
        <time>2024-09-01T09:19:42Z</time>
      </trkpt>
      <trkpt lat="47.83371" lon="5.59558">
        <ele>248.6</ele>
        <time>2024-09-01T09:19:48Z</time>
      </trkpt>
      <trkpt lat="47.83377" lon="5.59473">
        <ele>247.3</ele>
        <time>2024-09-01T09:19:56Z</time>
      </trkpt>
      <trkpt lat="47.83389" lon="5.59433">
        <ele>246.6</ele>
        <time>2024-09-01T09:20:00Z</time>
      </trkpt>
      <trkpt lat="47.83393" lon="5.59424">
        <ele>246.4</ele>
        <time>2024-09-01T09:20:01Z</time>
      </trkpt>
      <trkpt lat="47.83414" lon="5.59393">
        <ele>246</ele>
        <time>2024-09-01T09:20:05Z</time>
      </trkpt>
      <trkpt lat="47.8342" lon="5.59386">
        <ele>245.9</ele>
        <time>2024-09-01T09:20:06Z</time>
      </trkpt>
      <trkpt lat="47.83437" lon="5.59366">
        <ele>245.8</ele>
        <time>2024-09-01T09:20:09Z</time>
      </trkpt>
      <trkpt lat="47.83451" lon="5.59358">
        <ele>245.8</ele>
        <time>2024-09-01T09:20:11Z</time>
      </trkpt>
      <trkpt lat="47.83458" lon="5.59357">
        <ele>245.7</ele>
        <time>2024-09-01T09:20:12Z</time>
      </trkpt>
      <trkpt lat="47.8348" lon="5.59353">
        <ele>245.8</ele>
        <time>2024-09-01T09:20:15Z</time>
      </trkpt>
      <trkpt lat="47.83518" lon="5.5936">
        <ele>246.2</ele>
        <time>2024-09-01T09:20:21Z</time>
      </trkpt>
      <trkpt lat="47.83557" lon="5.59368">
        <ele>246.6</ele>
        <time>2024-09-01T09:20:27Z</time>
      </trkpt>
      <trkpt lat="47.83596" lon="5.59389">
        <ele>247.3</ele>
        <time>2024-09-01T09:20:33Z</time>
      </trkpt>
      <trkpt lat="47.8362" lon="5.59403">
        <ele>248.1</ele>
        <time>2024-09-01T09:20:37Z</time>
      </trkpt>
      <trkpt lat="47.83659" lon="5.59425">
        <ele>249.2</ele>
        <time>2024-09-01T09:20:44Z</time>
      </trkpt>
      <trkpt lat="47.83685" lon="5.59428">
        <ele>249.7</ele>
        <time>2024-09-01T09:20:49Z</time>
      </trkpt>
      <trkpt lat="47.83723" lon="5.59432">
        <ele>250.3</ele>
        <time>2024-09-01T09:20:55Z</time>
      </trkpt>
      <trkpt lat="47.83758" lon="5.5943">
        <ele>250.9</ele>
        <time>2024-09-01T09:21:00Z</time>
      </trkpt>
      <trkpt lat="47.83794" lon="5.59405">
        <ele>251.5</ele>
        <time>2024-09-01T09:21:06Z</time>
      </trkpt>
      <trkpt lat="47.83826" lon="5.59372">
        <ele>251.4</ele>
        <time>2024-09-01T09:21:12Z</time>
      </trkpt>
      <trkpt lat="47.83872" lon="5.59325">
        <ele>250.8</ele>
        <time>2024-09-01T09:21:20Z</time>
      </trkpt>
      <trkpt lat="47.83918" lon="5.59278">
        <ele>250.6</ele>
        <time>2024-09-01T09:21:28Z</time>
      </trkpt>
      <trkpt lat="47.83945" lon="5.59234">
        <ele>250.6</ele>
        <time>2024-09-01T09:21:34Z</time>
      </trkpt>
      <trkpt lat="47.83972" lon="5.59176">
        <ele>250.1</ele>
        <time>2024-09-01T09:21:41Z</time>
      </trkpt>
      <trkpt lat="47.83979" lon="5.59156">
        <ele>249.9</ele>
        <time>2024-09-01T09:21:43Z</time>
      </trkpt>
      <trkpt lat="47.83996" lon="5.59105">
        <ele>249.6</ele>
        <time>2024-09-01T09:21:48Z</time>
      </trkpt>
      <trkpt lat="47.84007" lon="5.59057">
        <ele>249.4</ele>
        <time>2024-09-01T09:21:53Z</time>
      </trkpt>
      <trkpt lat="47.84015" lon="5.59007">
        <ele>249</ele>
        <time>2024-09-01T09:21:58Z</time>
      </trkpt>
      <trkpt lat="47.84016" lon="5.58997">
        <ele>249</ele>
        <time>2024-09-01T09:21:59Z</time>
      </trkpt>
      <trkpt lat="47.84021" lon="5.58954">
        <ele>248.8</ele>
        <time>2024-09-01T09:22:03Z</time>
      </trkpt>
      <trkpt lat="47.84029" lon="5.58889">
        <ele>248.3</ele>
        <time>2024-09-01T09:22:09Z</time>
      </trkpt>
      <trkpt lat="47.84041" lon="5.5883">
        <ele>248.1</ele>
        <time>2024-09-01T09:22:15Z</time>
      </trkpt>
      <trkpt lat="47.84061" lon="5.58779">
        <ele>248.4</ele>
        <time>2024-09-01T09:22:21Z</time>
      </trkpt>
      <trkpt lat="47.84069" lon="5.58764">
        <ele>248.5</ele>
        <time>2024-09-01T09:22:23Z</time>
      </trkpt>
      <trkpt lat="47.84084" lon="5.58745">
        <ele>248.6</ele>
        <time>2024-09-01T09:22:26Z</time>
      </trkpt>
      <trkpt lat="47.84126" lon="5.58706">
        <ele>249.4</ele>
        <time>2024-09-01T09:22:33Z</time>
      </trkpt>
      <trkpt lat="47.84167" lon="5.58667">
        <ele>249.9</ele>
        <time>2024-09-01T09:22:40Z</time>
      </trkpt>
      <trkpt lat="47.84202" lon="5.58634">
        <ele>249.5</ele>
        <time>2024-09-01T09:22:46Z</time>
      </trkpt>
      <trkpt lat="47.84242" lon="5.58589">
        <ele>249.1</ele>
        <time>2024-09-01T09:22:53Z</time>
      </trkpt>
      <trkpt lat="47.84281" lon="5.58539">
        <ele>248.8</ele>
        <time>2024-09-01T09:23:00Z</time>
      </trkpt>
      <trkpt lat="47.84324" lon="5.58484">
        <ele>248.9</ele>
        <time>2024-09-01T09:23:08Z</time>
      </trkpt>
      <trkpt lat="47.8436" lon="5.58448">
        <ele>249.3</ele>
        <time>2024-09-01T09:23:14Z</time>
      </trkpt>
      <trkpt lat="47.84387" lon="5.58439">
        <ele>249.7</ele>
        <time>2024-09-01T09:23:18Z</time>
      </trkpt>
      <trkpt lat="47.84393" lon="5.58437">
        <ele>249.8</ele>
        <time>2024-09-01T09:23:19Z</time>
      </trkpt>
      <trkpt lat="47.84438" lon="5.58429">
        <ele>251</ele>
        <time>2024-09-01T09:23:26Z</time>
      </trkpt>
      <trkpt lat="47.84482" lon="5.58424">
        <ele>252.3</ele>
        <time>2024-09-01T09:23:33Z</time>
      </trkpt>
      <trkpt lat="47.84523" lon="5.58418">
        <ele>253.5</ele>
        <time>2024-09-01T09:23:40Z</time>
      </trkpt>
      <trkpt lat="47.84532" lon="5.5841">
        <ele>253.6</ele>
        <time>2024-09-01T09:23:42Z</time>
      </trkpt>
      <trkpt lat="47.84541" lon="5.58399">
        <ele>253.7</ele>
        <time>2024-09-01T09:23:44Z</time>
      </trkpt>
      <trkpt lat="47.84545" lon="5.58383">
        <ele>253.6</ele>
        <time>2024-09-01T09:23:46Z</time>
      </trkpt>
      <trkpt lat="47.84548" lon="5.58365">
        <ele>253.5</ele>
        <time>2024-09-01T09:23:48Z</time>
      </trkpt>
      <trkpt lat="47.8455" lon="5.58357">
        <ele>253.4</ele>
        <time>2024-09-01T09:23:49Z</time>
      </trkpt>
      <trkpt lat="47.84549" lon="5.58339">
        <ele>253.1</ele>
        <time>2024-09-01T09:23:51Z</time>
      </trkpt>
      <trkpt lat="47.84548" lon="5.58329">
        <ele>253</ele>
        <time>2024-09-01T09:23:52Z</time>
      </trkpt>
      <trkpt lat="47.84541" lon="5.58282">
        <ele>252</ele>
        <time>2024-09-01T09:23:57Z</time>
      </trkpt>
      <trkpt lat="47.84527" lon="5.58238">
        <ele>251.1</ele>
        <time>2024-09-01T09:24:02Z</time>
      </trkpt>
      <trkpt lat="47.84523" lon="5.5823">
        <ele>251</ele>
        <time>2024-09-01T09:24:03Z</time>
      </trkpt>
      <trkpt lat="47.84499" lon="5.58198">
        <ele>250.4</ele>
        <time>2024-09-01T09:24:08Z</time>
      </trkpt>
      <trkpt lat="47.84478" lon="5.58177">
        <ele>250.2</ele>
        <time>2024-09-01T09:24:13Z</time>
      </trkpt>
      <trkpt lat="47.84464" lon="5.58153">
        <ele>250.2</ele>
        <time>2024-09-01T09:24:18Z</time>
      </trkpt>
      <trkpt lat="47.84455" lon="5.58144">
        <ele>250.1</ele>
        <time>2024-09-01T09:24:20Z</time>
      </trkpt>
      <trkpt lat="47.84446" lon="5.58136">
        <ele>250</ele>
        <time>2024-09-01T09:24:22Z</time>
      </trkpt>
      <trkpt lat="47.84411" lon="5.58103">
        <ele>250.1</ele>
        <time>2024-09-01T09:24:29Z</time>
      </trkpt>
      <trkpt lat="47.84387" lon="5.58078">
        <ele>250</ele>
        <time>2024-09-01T09:24:34Z</time>
      </trkpt>
      <trkpt lat="47.84382" lon="5.58059">
        <ele>250.1</ele>
        <time>2024-09-01T09:24:36Z</time>
      </trkpt>
      <trkpt lat="47.84379" lon="5.58049">
        <ele>250.3</ele>
        <time>2024-09-01T09:24:37Z</time>
      </trkpt>
      <trkpt lat="47.8438" lon="5.5804">
        <ele>250.5</ele>
        <time>2024-09-01T09:24:38Z</time>
      </trkpt>
      <trkpt lat="47.84383" lon="5.58021">
        <ele>251</ele>
        <time>2024-09-01T09:24:40Z</time>
      </trkpt>
      <trkpt lat="47.84392" lon="5.57967">
        <ele>252.7</ele>
        <time>2024-09-01T09:24:46Z</time>
      </trkpt>
      <trkpt lat="47.84403" lon="5.57905">
        <ele>254.6</ele>
        <time>2024-09-01T09:24:53Z</time>
      </trkpt>
      <trkpt lat="47.84412" lon="5.57847">
        <ele>256</ele>
        <time>2024-09-01T09:25:00Z</time>
      </trkpt>
      <trkpt lat="47.84427" lon="5.578">
        <ele>256.6</ele>
        <time>2024-09-01T09:25:06Z</time>
      </trkpt>
      <trkpt lat="47.8445" lon="5.57741">
        <ele>256.5</ele>
        <time>2024-09-01T09:25:13Z</time>
      </trkpt>
      <trkpt lat="47.84473" lon="5.57682">
        <ele>255.8</ele>
        <time>2024-09-01T09:25:20Z</time>
      </trkpt>
      <trkpt lat="47.84501" lon="5.57611">
        <ele>255</ele>
        <time>2024-09-01T09:25:28Z</time>
      </trkpt>
      <trkpt lat="47.84505" lon="5.57601">
        <ele>254.9</ele>
        <time>2024-09-01T09:25:29Z</time>
      </trkpt>
      <trkpt lat="47.84533" lon="5.57529">
        <ele>254.4</ele>
        <time>2024-09-01T09:25:37Z</time>
      </trkpt>
      <trkpt lat="47.84536" lon="5.5752">
        <ele>254.3</ele>
        <time>2024-09-01T09:25:38Z</time>
      </trkpt>
      <trkpt lat="47.84563" lon="5.57453">
        <ele>254.8</ele>
        <time>2024-09-01T09:25:45Z</time>
      </trkpt>
      <trkpt lat="47.84588" lon="5.57407">
        <ele>255.4</ele>
        <time>2024-09-01T09:25:51Z</time>
      </trkpt>
      <trkpt lat="47.84616" lon="5.57367">
        <ele>255.6</ele>
        <time>2024-09-01T09:25:57Z</time>
      </trkpt>
      <trkpt lat="47.84653" lon="5.57321">
        <ele>255.3</ele>
        <time>2024-09-01T09:26:04Z</time>
      </trkpt>
      <trkpt lat="47.8469" lon="5.57277">
        <ele>255.2</ele>
        <time>2024-09-01T09:26:11Z</time>
      </trkpt>
      <trkpt lat="47.84735" lon="5.57222">
        <ele>255.8</ele>
        <time>2024-09-01T09:26:19Z</time>
      </trkpt>
      <trkpt lat="47.84746" lon="5.57209">
        <ele>256</ele>
        <time>2024-09-01T09:26:21Z</time>
      </trkpt>
      <trkpt lat="47.84786" lon="5.5716">
        <ele>257.3</ele>
        <time>2024-09-01T09:26:29Z</time>
      </trkpt>
      <trkpt lat="47.84814" lon="5.5712">
        <ele>258</ele>
        <time>2024-09-01T09:26:35Z</time>
      </trkpt>
      <trkpt lat="47.84836" lon="5.57071">
        <ele>258.6</ele>
        <time>2024-09-01T09:26:41Z</time>
      </trkpt>
      <trkpt lat="47.84858" lon="5.57002">
        <ele>259.1</ele>
        <time>2024-09-01T09:26:49Z</time>
      </trkpt>
      <trkpt lat="47.84874" lon="5.56939">
        <ele>260.4</ele>
        <time>2024-09-01T09:26:56Z</time>
      </trkpt>
      <trkpt lat="47.84881" lon="5.56877">
        <ele>262.1</ele>
        <time>2024-09-01T09:27:03Z</time>
      </trkpt>
      <trkpt lat="47.84878" lon="5.56822">
        <ele>263.9</ele>
        <time>2024-09-01T09:27:10Z</time>
      </trkpt>
      <trkpt lat="47.84875" lon="5.56762">
        <ele>265.6</ele>
        <time>2024-09-01T09:27:18Z</time>
      </trkpt>
      <trkpt lat="47.84871" lon="5.567">
        <ele>267.4</ele>
        <time>2024-09-01T09:27:27Z</time>
      </trkpt>
      <trkpt lat="47.84871" lon="5.56693">
        <ele>267.6</ele>
        <time>2024-09-01T09:27:28Z</time>
      </trkpt>
      <trkpt lat="47.84869" lon="5.56654">
        <ele>268.7</ele>
        <time>2024-09-01T09:27:34Z</time>
      </trkpt>
      <trkpt lat="47.8487" lon="5.56605">
        <ele>270.2</ele>
        <time>2024-09-01T09:27:42Z</time>
      </trkpt>
      <trkpt lat="47.84873" lon="5.56555">
        <ele>271.8</ele>
        <time>2024-09-01T09:27:51Z</time>
      </trkpt>
      <trkpt lat="47.84876" lon="5.5651">
        <ele>273</ele>
        <time>2024-09-01T09:27:59Z</time>
      </trkpt>
      <trkpt lat="47.84881" lon="5.5647">
        <ele>274.1</ele>
        <time>2024-09-01T09:28:06Z</time>
      </trkpt>
      <trkpt lat="47.84886" lon="5.5643">
        <ele>275.4</ele>
        <time>2024-09-01T09:28:13Z</time>
      </trkpt>
      <trkpt lat="47.84892" lon="5.56386">
        <ele>276.8</ele>
        <time>2024-09-01T09:28:21Z</time>
      </trkpt>
      <trkpt lat="47.84897" lon="5.56348">
        <ele>278.2</ele>
        <time>2024-09-01T09:28:29Z</time>
      </trkpt>
      <trkpt lat="47.84902" lon="5.5631">
        <ele>279.6</ele>
        <time>2024-09-01T09:28:37Z</time>
      </trkpt>
      <trkpt lat="47.84906" lon="5.5627">
        <ele>281</ele>
        <time>2024-09-01T09:28:45Z</time>
      </trkpt>
      <trkpt lat="47.84902" lon="5.5623">
        <ele>282.4</ele>
        <time>2024-09-01T09:28:53Z</time>
      </trkpt>
      <trkpt lat="47.84896" lon="5.56194">
        <ele>283.5</ele>
        <time>2024-09-01T09:29:00Z</time>
      </trkpt>
      <trkpt lat="47.84891" lon="5.56166">
        <ele>284.6</ele>
        <time>2024-09-01T09:29:06Z</time>
      </trkpt>
      <trkpt lat="47.84879" lon="5.56135">
        <ele>285.9</ele>
        <time>2024-09-01T09:29:14Z</time>
      </trkpt>
      <trkpt lat="47.84869" lon="5.56107">
        <ele>287.1</ele>
        <time>2024-09-01T09:29:21Z</time>
      </trkpt>
      <trkpt lat="47.84853" lon="5.56065">
        <ele>288.8</ele>
        <time>2024-09-01T09:29:31Z</time>
      </trkpt>
      <trkpt lat="47.84837" lon="5.56039">
        <ele>290.1</ele>
        <time>2024-09-01T09:29:39Z</time>
      </trkpt>
      <trkpt lat="47.84821" lon="5.56018">
        <ele>291.3</ele>
        <time>2024-09-01T09:29:46Z</time>
      </trkpt>
      <trkpt lat="47.84801" lon="5.55995">
        <ele>292.6</ele>
        <time>2024-09-01T09:29:54Z</time>
      </trkpt>
      <trkpt lat="47.8478" lon="5.55976">
        <ele>293.9</ele>
        <time>2024-09-01T09:30:02Z</time>
      </trkpt>
      <trkpt lat="47.8476" lon="5.55961">
        <ele>295.1</ele>
        <time>2024-09-01T09:30:09Z</time>
      </trkpt>
      <trkpt lat="47.84738" lon="5.55944">
        <ele>296.4</ele>
        <time>2024-09-01T09:30:17Z</time>
      </trkpt>
      <trkpt lat="47.84721" lon="5.5593">
        <ele>297.4</ele>
        <time>2024-09-01T09:30:24Z</time>
      </trkpt>
      <trkpt lat="47.84696" lon="5.55911">
        <ele>298.8</ele>
        <time>2024-09-01T09:30:33Z</time>
      </trkpt>
      <trkpt lat="47.84676" lon="5.55893">
        <ele>299.8</ele>
        <time>2024-09-01T09:30:40Z</time>
      </trkpt>
      <trkpt lat="47.84657" lon="5.55875">
        <ele>300.7</ele>
        <time>2024-09-01T09:30:47Z</time>
      </trkpt>
      <trkpt lat="47.84634" lon="5.55853">
        <ele>301.2</ele>
        <time>2024-09-01T09:30:55Z</time>
      </trkpt>
      <trkpt lat="47.8461" lon="5.55829">
        <ele>300.6</ele>
        <time>2024-09-01T09:31:02Z</time>
      </trkpt>
      <trkpt lat="47.84582" lon="5.55805">
        <ele>299.9</ele>
        <time>2024-09-01T09:31:08Z</time>
      </trkpt>
      <trkpt lat="47.84548" lon="5.5578">
        <ele>299.2</ele>
        <time>2024-09-01T09:31:14Z</time>
      </trkpt>
      <trkpt lat="47.84505" lon="5.55745">
        <ele>298.5</ele>
        <time>2024-09-01T09:31:21Z</time>
      </trkpt>
      <trkpt lat="47.84471" lon="5.55713">
        <ele>297.9</ele>
        <time>2024-09-01T09:31:27Z</time>
      </trkpt>
      <trkpt lat="47.84443" lon="5.55672">
        <ele>297.4</ele>
        <time>2024-09-01T09:31:33Z</time>
      </trkpt>
      <trkpt lat="47.84438" lon="5.55665">
        <ele>297.2</ele>
        <time>2024-09-01T09:31:34Z</time>
      </trkpt>
      <trkpt lat="47.84413" lon="5.55622">
        <ele>296.5</ele>
        <time>2024-09-01T09:31:40Z</time>
      </trkpt>
      <trkpt lat="47.84383" lon="5.55561">
        <ele>295.4</ele>
        <time>2024-09-01T09:31:47Z</time>
      </trkpt>
      <trkpt lat="47.8435" lon="5.55494">
        <ele>294.6</ele>
        <time>2024-09-01T09:31:55Z</time>
      </trkpt>
      <trkpt lat="47.84346" lon="5.55486">
        <ele>294.5</ele>
        <time>2024-09-01T09:31:56Z</time>
      </trkpt>
      <trkpt lat="47.84315" lon="5.55423">
        <ele>293.6</ele>
        <time>2024-09-01T09:32:04Z</time>
      </trkpt>
      <trkpt lat="47.84286" lon="5.55352">
        <ele>291.8</ele>
        <time>2024-09-01T09:32:12Z</time>
      </trkpt>
      <trkpt lat="47.84269" lon="5.55294">
        <ele>291.1</ele>
        <time>2024-09-01T09:32:18Z</time>
      </trkpt>
      <trkpt lat="47.84248" lon="5.55218">
        <ele>289.8</ele>
        <time>2024-09-01T09:32:26Z</time>
      </trkpt>
      <trkpt lat="47.84226" lon="5.55178">
        <ele>288.9</ele>
        <time>2024-09-01T09:32:31Z</time>
      </trkpt>
      <trkpt lat="47.84197" lon="5.55141">
        <ele>288.2</ele>
        <time>2024-09-01T09:32:37Z</time>
      </trkpt>
      <trkpt lat="47.84187" lon="5.55134">
        <ele>288.2</ele>
        <time>2024-09-01T09:32:39Z</time>
      </trkpt>
      <trkpt lat="47.84173" lon="5.55124">
        <ele>288.2</ele>
        <time>2024-09-01T09:32:42Z</time>
      </trkpt>
      <trkpt lat="47.84169" lon="5.55121">
        <ele>288.2</ele>
        <time>2024-09-01T09:32:43Z</time>
      </trkpt>
      <trkpt lat="47.84163" lon="5.55116">
        <ele>288.2</ele>
        <time>2024-09-01T09:32:45Z</time>
      </trkpt>
      <trkpt lat="47.84154" lon="5.55118">
        <ele>288.6</ele>
        <time>2024-09-01T09:32:46Z</time>
      </trkpt>
      <trkpt lat="47.84144" lon="5.55132">
        <ele>289.4</ele>
        <time>2024-09-01T09:32:51Z</time>
      </trkpt>
      <trkpt lat="47.84121" lon="5.5515">
        <ele>289.3</ele>
        <time>2024-09-01T09:32:57Z</time>
      </trkpt>
      <trkpt lat="47.84096" lon="5.55171">
        <ele>288.5</ele>
        <time>2024-09-01T09:33:04Z</time>
      </trkpt>
      <trkpt lat="47.84093" lon="5.55175">
        <ele>288.3</ele>
        <time>2024-09-01T09:33:05Z</time>
      </trkpt>
      <trkpt lat="47.84068" lon="5.55205">
        <ele>287.6</ele>
        <time>2024-09-01T09:33:13Z</time>
      </trkpt>
      <trkpt lat="47.84065" lon="5.55208">
        <ele>287.4</ele>
        <time>2024-09-01T09:33:14Z</time>
      </trkpt>
      <trkpt lat="47.84034" lon="5.55232">
        <ele>286.3</ele>
        <time>2024-09-01T09:33:22Z</time>
      </trkpt>
      <trkpt lat="47.84017" lon="5.55245">
        <ele>285.7</ele>
        <time>2024-09-01T09:33:26Z</time>
      </trkpt>
      <trkpt lat="47.84009" lon="5.55254">
        <ele>285.5</ele>
        <time>2024-09-01T09:33:28Z</time>
      </trkpt>
      <trkpt lat="47.84005" lon="5.55259">
        <ele>285.5</ele>
        <time>2024-09-01T09:33:29Z</time>
      </trkpt>
      <trkpt lat="47.83985" lon="5.55288">
        <ele>285.1</ele>
        <time>2024-09-01T09:33:34Z</time>
      </trkpt>
      <trkpt lat="47.83957" lon="5.55328">
        <ele>284.7</ele>
        <time>2024-09-01T09:33:41Z</time>
      </trkpt>
      <trkpt lat="47.83931" lon="5.55357">
        <ele>284.4</ele>
        <time>2024-09-01T09:33:47Z</time>
      </trkpt>
      <trkpt lat="47.83897" lon="5.55382">
        <ele>283.9</ele>
        <time>2024-09-01T09:33:55Z</time>
      </trkpt>
      <trkpt lat="47.83883" lon="5.55387">
        <ele>283.7</ele>
        <time>2024-09-01T09:33:58Z</time>
      </trkpt>
      <trkpt lat="47.83874" lon="5.5539">
        <ele>283.5</ele>
        <time>2024-09-01T09:34:00Z</time>
      </trkpt>
      <trkpt lat="47.8384" lon="5.55403">
        <ele>282.6</ele>
        <time>2024-09-01T09:34:07Z</time>
      </trkpt>
      <trkpt lat="47.83812" lon="5.55413">
        <ele>281.9</ele>
        <time>2024-09-01T09:34:13Z</time>
      </trkpt>
      <trkpt lat="47.83803" lon="5.55415">
        <ele>281.3</ele>
        <time>2024-09-01T09:34:15Z</time>
      </trkpt>
      <trkpt lat="47.83799" lon="5.55417">
        <ele>280.2</ele>
        <time>2024-09-01T09:34:19Z</time>
      </trkpt>
      <trkpt lat="47.83799" lon="5.55417">
        <ele>280.2</ele>
        <time>2024-09-01T09:34:22Z</time>
      </trkpt>
      <trkpt lat="47.83794" lon="5.55429">
        <ele>280.4</ele>
        <time>2024-09-01T09:39:33Z</time>
      </trkpt>
      <trkpt lat="47.83799" lon="5.55417">
        <ele>280.1</ele>
        <time>2024-09-01T09:39:37Z</time>
      </trkpt>
      <trkpt lat="47.83803" lon="5.55415">
        <ele>280.9</ele>
        <time>2024-09-01T09:39:44Z</time>
      </trkpt>
      <trkpt lat="47.83803" lon="5.55418">
        <ele>281.1</ele>
        <time>2024-09-01T09:39:55Z</time>
      </trkpt>
      <trkpt lat="47.83802" lon="5.55416">
        <ele>281.4</ele>
        <time>2024-09-01T09:39:58Z</time>
      </trkpt>
      <trkpt lat="47.83799" lon="5.55417">
        <ele>281.9</ele>
        <time>2024-09-01T09:40:02Z</time>
      </trkpt>
      <trkpt lat="47.83799" lon="5.55417">
        <ele>281.9</ele>
        <time>2024-09-01T09:40:05Z</time>
      </trkpt>
      <trkpt lat="47.83799" lon="5.55417">
        <ele>281.9</ele>
        <time>2024-09-01T09:40:06Z</time>
      </trkpt>
      <trkpt lat="47.83799" lon="5.55417">
        <ele>281.9</ele>
        <time>2024-09-01T09:45:25Z</time>
      </trkpt>
      <trkpt lat="47.83801" lon="5.55416">
        <ele>281.9</ele>
        <time>2024-09-01T09:45:28Z</time>
      </trkpt>
      <trkpt lat="47.83818" lon="5.5541">
        <ele>282.1</ele>
        <time>2024-09-01T09:45:35Z</time>
      </trkpt>
      <trkpt lat="47.83822" lon="5.55409">
        <ele>282.1</ele>
        <time>2024-09-01T09:45:39Z</time>
      </trkpt>
      <trkpt lat="47.83822" lon="5.55409">
        <ele>282.1</ele>
        <time>2024-09-01T09:45:54Z</time>
      </trkpt>
      <trkpt lat="47.83815" lon="5.55411">
        <ele>282</ele>
        <time>2024-09-01T09:45:57Z</time>
      </trkpt>
      <trkpt lat="47.83802" lon="5.55416">
        <ele>280.9</ele>
        <time>2024-09-01T09:46:03Z</time>
      </trkpt>
      <trkpt lat="47.83799" lon="5.55417">
        <ele>280.2</ele>
        <time>2024-09-01T09:46:09Z</time>
      </trkpt>
      <trkpt lat="47.83789" lon="5.55448">
        <ele>281.4</ele>
        <time>2024-09-01T09:46:14Z</time>
      </trkpt>
      <trkpt lat="47.83786" lon="5.55467">
        <ele>282.5</ele>
        <time>2024-09-01T09:46:22Z</time>
      </trkpt>
      <trkpt lat="47.83787" lon="5.55468">
        <ele>282.4</ele>
        <time>2024-09-01T09:46:24Z</time>
      </trkpt>
      <trkpt lat="47.83788" lon="5.55462">
        <ele>282</ele>
        <time>2024-09-01T09:46:29Z</time>
      </trkpt>
      <trkpt lat="47.83788" lon="5.55458">
        <ele>281.9</ele>
        <time>2024-09-01T09:46:30Z</time>
      </trkpt>
      <trkpt lat="47.83797" lon="5.55434">
        <ele>280.5</ele>
        <time>2024-09-01T09:46:36Z</time>
      </trkpt>
      <trkpt lat="47.83802" lon="5.55424">
        <ele>280.1</ele>
        <time>2024-09-01T09:46:38Z</time>
      </trkpt>
      <trkpt lat="47.83807" lon="5.55414">
        <ele>281.9</ele>
        <time>2024-09-01T09:46:40Z</time>
      </trkpt>
      <trkpt lat="47.83825" lon="5.55408">
        <ele>282.2</ele>
        <time>2024-09-01T09:46:45Z</time>
      </trkpt>
      <trkpt lat="47.83844" lon="5.55401">
        <ele>282.7</ele>
        <time>2024-09-01T09:46:51Z</time>
      </trkpt>
      <trkpt lat="47.83874" lon="5.55391">
        <ele>283.4</ele>
        <time>2024-09-01T09:46:59Z</time>
      </trkpt>
      <trkpt lat="47.83898" lon="5.55382">
        <ele>283.9</ele>
        <time>2024-09-01T09:47:05Z</time>
      </trkpt>
      <trkpt lat="47.83924" lon="5.55364">
        <ele>284.2</ele>
        <time>2024-09-01T09:47:12Z</time>
      </trkpt>
      <trkpt lat="47.83944" lon="5.55345">
        <ele>284.6</ele>
        <time>2024-09-01T09:47:18Z</time>
      </trkpt>
      <trkpt lat="47.83961" lon="5.55323">
        <ele>284.7</ele>
        <time>2024-09-01T09:47:24Z</time>
      </trkpt>
      <trkpt lat="47.83975" lon="5.55302">
        <ele>284.9</ele>
        <time>2024-09-01T09:47:30Z</time>
      </trkpt>
      <trkpt lat="47.83991" lon="5.5528">
        <ele>285.2</ele>
        <time>2024-09-01T09:47:36Z</time>
      </trkpt>
      <trkpt lat="47.8401" lon="5.55252">
        <ele>285.5</ele>
        <time>2024-09-01T09:47:43Z</time>
      </trkpt>
      <trkpt lat="47.8402" lon="5.55243">
        <ele>285.8</ele>
        <time>2024-09-01T09:47:48Z</time>
      </trkpt>
      <trkpt lat="47.84039" lon="5.55228">
        <ele>286.5</ele>
        <time>2024-09-01T09:47:54Z</time>
      </trkpt>
      <trkpt lat="47.84065" lon="5.55207">
        <ele>287.5</ele>
        <time>2024-09-01T09:48:01Z</time>
      </trkpt>
      <trkpt lat="47.84068" lon="5.55205">
        <ele>287.6</ele>
        <time>2024-09-01T09:48:02Z</time>
      </trkpt>
      <trkpt lat="47.84071" lon="5.55202">
        <ele>287.7</ele>
        <time>2024-09-01T09:48:03Z</time>
      </trkpt>
      <trkpt lat="47.84086" lon="5.55183">
        <ele>288</ele>
        <time>2024-09-01T09:48:08Z</time>
      </trkpt>
      <trkpt lat="47.84104" lon="5.55162">
        <ele>288.8</ele>
        <time>2024-09-01T09:48:14Z</time>
      </trkpt>
      <trkpt lat="47.84125" lon="5.55148">
        <ele>289.4</ele>
        <time>2024-09-01T09:48:20Z</time>
      </trkpt>
      <trkpt lat="47.84144" lon="5.55132">
        <ele>289.5</ele>
        <time>2024-09-01T09:48:27Z</time>
      </trkpt>
      <trkpt lat="47.84156" lon="5.55115">
        <ele>288.4</ele>
        <time>2024-09-01T09:48:31Z</time>
      </trkpt>
      <trkpt lat="47.84158" lon="5.55108">
        <ele>288.2</ele>
        <time>2024-09-01T09:48:33Z</time>
      </trkpt>
      <trkpt lat="47.8416" lon="5.55102">
        <ele>288.2</ele>
        <time>2024-09-01T09:48:34Z</time>
      </trkpt>
      <trkpt lat="47.84162" lon="5.5509">
        <ele>288.2</ele>
        <time>2024-09-01T09:48:36Z</time>
      </trkpt>
      <trkpt lat="47.84163" lon="5.55084">
        <ele>288.2</ele>
        <time>2024-09-01T09:48:37Z</time>
      </trkpt>
      <trkpt lat="47.8416" lon="5.55036">
        <ele>288.2</ele>
        <time>2024-09-01T09:48:44Z</time>
      </trkpt>
      <trkpt lat="47.84161" lon="5.55029">
        <ele>288.2</ele>
        <time>2024-09-01T09:48:45Z</time>
      </trkpt>
      <trkpt lat="47.84163" lon="5.55015">
        <ele>288.3</ele>
        <time>2024-09-01T09:48:47Z</time>
      </trkpt>
      <trkpt lat="47.84166" lon="5.55008">
        <ele>288.3</ele>
        <time>2024-09-01T09:48:48Z</time>
      </trkpt>
      <trkpt lat="47.8417" lon="5.55003">
        <ele>288.3</ele>
        <time>2024-09-01T09:48:49Z</time>
      </trkpt>
      <trkpt lat="47.84183" lon="5.5499">
        <ele>288.5</ele>
        <time>2024-09-01T09:48:52Z</time>
      </trkpt>
      <trkpt lat="47.8421" lon="5.54963">
        <ele>288.9</ele>
        <time>2024-09-01T09:48:58Z</time>
      </trkpt>
      <trkpt lat="47.84246" lon="5.54921">
        <ele>289.8</ele>
        <time>2024-09-01T09:49:06Z</time>
      </trkpt>
      <trkpt lat="47.84266" lon="5.54882">
        <ele>290.5</ele>
        <time>2024-09-01T09:49:12Z</time>
      </trkpt>
      <trkpt lat="47.84279" lon="5.54856">
        <ele>291</ele>
        <time>2024-09-01T09:49:16Z</time>
      </trkpt>
      <trkpt lat="47.84283" lon="5.54842">
        <ele>291.2</ele>
        <time>2024-09-01T09:49:18Z</time>
      </trkpt>
      <trkpt lat="47.84296" lon="5.54782">
        <ele>292.1</ele>
        <time>2024-09-01T09:49:26Z</time>
      </trkpt>
      <trkpt lat="47.84304" lon="5.54732">
        <ele>293</ele>
        <time>2024-09-01T09:49:33Z</time>
      </trkpt>
      <trkpt lat="47.84314" lon="5.54665">
        <ele>294.1</ele>
        <time>2024-09-01T09:49:42Z</time>
      </trkpt>
      <trkpt lat="47.84323" lon="5.54605">
        <ele>294.9</ele>
        <time>2024-09-01T09:49:50Z</time>
      </trkpt>
      <trkpt lat="47.84331" lon="5.54554">
        <ele>295.7</ele>
        <time>2024-09-01T09:49:57Z</time>
      </trkpt>
      <trkpt lat="47.8434" lon="5.54501">
        <ele>296.7</ele>
        <time>2024-09-01T09:50:04Z</time>
      </trkpt>
      <trkpt lat="47.84348" lon="5.54447">
        <ele>297.7</ele>
        <time>2024-09-01T09:50:12Z</time>
      </trkpt>
      <trkpt lat="47.84357" lon="5.54388">
        <ele>299.3</ele>
        <time>2024-09-01T09:50:21Z</time>
      </trkpt>
      <trkpt lat="47.84367" lon="5.54334">
        <ele>300.8</ele>
        <time>2024-09-01T09:50:30Z</time>
      </trkpt>
      <trkpt lat="47.84374" lon="5.54299">
        <ele>301.7</ele>
        <time>2024-09-01T09:50:36Z</time>
      </trkpt>
      <trkpt lat="47.84376" lon="5.54294">
        <ele>301.8</ele>
        <time>2024-09-01T09:50:37Z</time>
      </trkpt>
      <trkpt lat="47.84394" lon="5.54244">
        <ele>303.3</ele>
        <time>2024-09-01T09:50:46Z</time>
      </trkpt>
      <trkpt lat="47.8441" lon="5.54198">
        <ele>304.9</ele>
        <time>2024-09-01T09:50:55Z</time>
      </trkpt>
      <trkpt lat="47.84432" lon="5.54139">
        <ele>306.7</ele>
        <time>2024-09-01T09:51:07Z</time>
      </trkpt>
      <trkpt lat="47.84451" lon="5.54105">
        <ele>307.2</ele>
        <time>2024-09-01T09:51:14Z</time>
      </trkpt>
      <trkpt lat="47.84476" lon="5.54061">
        <ele>306.4</ele>
        <time>2024-09-01T09:51:21Z</time>
      </trkpt>
      <trkpt lat="47.84505" lon="5.54019">
        <ele>305.6</ele>
        <time>2024-09-01T09:51:27Z</time>
      </trkpt>
      <trkpt lat="47.84541" lon="5.53984">
        <ele>305.8</ele>
        <time>2024-09-01T09:51:33Z</time>
      </trkpt>
      <trkpt lat="47.8459" lon="5.53947">
        <ele>307</ele>
        <time>2024-09-01T09:51:41Z</time>
      </trkpt>
      <trkpt lat="47.8463" lon="5.53916">
        <ele>308.4</ele>
        <time>2024-09-01T09:51:48Z</time>
      </trkpt>
      <trkpt lat="47.84672" lon="5.53869">
        <ele>309.8</ele>
        <time>2024-09-01T09:51:57Z</time>
      </trkpt>
      <trkpt lat="47.84703" lon="5.53825">
        <ele>310.8</ele>
        <time>2024-09-01T09:52:04Z</time>
      </trkpt>
      <trkpt lat="47.84737" lon="5.53772">
        <ele>311.8</ele>
        <time>2024-09-01T09:52:12Z</time>
      </trkpt>
      <trkpt lat="47.84756" lon="5.53741">
        <ele>312.4</ele>
        <time>2024-09-01T09:52:17Z</time>
      </trkpt>
      <trkpt lat="47.84759" lon="5.53735">
        <ele>312.6</ele>
        <time>2024-09-01T09:52:18Z</time>
      </trkpt>
      <trkpt lat="47.84787" lon="5.53688">
        <ele>313.6</ele>
        <time>2024-09-01T09:52:26Z</time>
      </trkpt>
      <trkpt lat="47.84817" lon="5.53638">
        <ele>314.6</ele>
        <time>2024-09-01T09:52:34Z</time>
      </trkpt>
      <trkpt lat="47.84847" lon="5.53587">
        <ele>315.5</ele>
        <time>2024-09-01T09:52:42Z</time>
      </trkpt>
      <trkpt lat="47.84881" lon="5.53539">
        <ele>316.4</ele>
        <time>2024-09-01T09:52:51Z</time>
      </trkpt>
      <trkpt lat="47.84913" lon="5.53498">
        <ele>317.2</ele>
        <time>2024-09-01T09:52:59Z</time>
      </trkpt>
      <trkpt lat="47.84946" lon="5.53457">
        <ele>318.7</ele>
        <time>2024-09-01T09:53:07Z</time>
      </trkpt>
      <trkpt lat="47.84971" lon="5.53424">
        <ele>319.9</ele>
        <time>2024-09-01T09:53:14Z</time>
      </trkpt>
      <trkpt lat="47.84995" lon="5.53394">
        <ele>321.2</ele>
        <time>2024-09-01T09:53:21Z</time>
      </trkpt>
      <trkpt lat="47.85029" lon="5.53351">
        <ele>322.8</ele>
        <time>2024-09-01T09:53:31Z</time>
      </trkpt>
      <trkpt lat="47.85056" lon="5.53312">
        <ele>323.1</ele>
        <time>2024-09-01T09:53:39Z</time>
      </trkpt>
      <trkpt lat="47.85088" lon="5.53265">
        <ele>322.9</ele>
        <time>2024-09-01T09:53:47Z</time>
      </trkpt>
      <trkpt lat="47.8512" lon="5.53219">
        <ele>322.9</ele>
        <time>2024-09-01T09:53:55Z</time>
      </trkpt>
      <trkpt lat="47.85148" lon="5.53174">
        <ele>322.9</ele>
        <time>2024-09-01T09:54:03Z</time>
      </trkpt>
      <trkpt lat="47.85168" lon="5.5313">
        <ele>322.5</ele>
        <time>2024-09-01T09:54:09Z</time>
      </trkpt>
      <trkpt lat="47.85203" lon="5.53058">
        <ele>320.9</ele>
        <time>2024-09-01T09:54:18Z</time>
      </trkpt>
      <trkpt lat="47.85234" lon="5.52995">
        <ele>319.7</ele>
        <time>2024-09-01T09:54:25Z</time>
      </trkpt>
      <trkpt lat="47.85271" lon="5.52924">
        <ele>318.3</ele>
        <time>2024-09-01T09:54:33Z</time>
      </trkpt>
      <trkpt lat="47.85285" lon="5.52897">
        <ele>317.8</ele>
        <time>2024-09-01T09:54:36Z</time>
      </trkpt>
      <trkpt lat="47.85319" lon="5.52832">
        <ele>317.1</ele>
        <time>2024-09-01T09:54:43Z</time>
      </trkpt>
      <trkpt lat="47.85324" lon="5.52822">
        <ele>317</ele>
        <time>2024-09-01T09:54:44Z</time>
      </trkpt>
      <trkpt lat="47.8536" lon="5.52753">
        <ele>316.7</ele>
        <time>2024-09-01T09:54:51Z</time>
      </trkpt>
      <trkpt lat="47.85365" lon="5.52744">
        <ele>316.7</ele>
        <time>2024-09-01T09:54:52Z</time>
      </trkpt>
      <trkpt lat="47.85399" lon="5.52682">
        <ele>316.6</ele>
        <time>2024-09-01T09:54:59Z</time>
      </trkpt>
      <trkpt lat="47.85437" lon="5.52624">
        <ele>316.8</ele>
        <time>2024-09-01T09:55:06Z</time>
      </trkpt>
      <trkpt lat="47.85443" lon="5.52616">
        <ele>316.9</ele>
        <time>2024-09-01T09:55:07Z</time>
      </trkpt>
      <trkpt lat="47.85478" lon="5.52561">
        <ele>317.2</ele>
        <time>2024-09-01T09:55:14Z</time>
      </trkpt>
      <trkpt lat="47.85517" lon="5.52502">
        <ele>317.4</ele>
        <time>2024-09-01T09:55:22Z</time>
      </trkpt>
      <trkpt lat="47.85559" lon="5.52437">
        <ele>316.2</ele>
        <time>2024-09-01T09:55:31Z</time>
      </trkpt>
      <trkpt lat="47.85564" lon="5.5243">
        <ele>316.1</ele>
        <time>2024-09-01T09:55:32Z</time>
      </trkpt>
      <trkpt lat="47.85597" lon="5.52376">
        <ele>315.3</ele>
        <time>2024-09-01T09:55:39Z</time>
      </trkpt>
      <trkpt lat="47.85632" lon="5.52313">
        <ele>315</ele>
        <time>2024-09-01T09:55:46Z</time>
      </trkpt>
      <trkpt lat="47.85637" lon="5.52304">
        <ele>315</ele>
        <time>2024-09-01T09:55:47Z</time>
      </trkpt>
      <trkpt lat="47.8566" lon="5.5225">
        <ele>315.2</ele>
        <time>2024-09-01T09:55:53Z</time>
      </trkpt>
      <trkpt lat="47.85686" lon="5.52188">
        <ele>315.6</ele>
        <time>2024-09-01T09:56:00Z</time>
      </trkpt>
      <trkpt lat="47.85716" lon="5.52117">
        <ele>316.3</ele>
        <time>2024-09-01T09:56:08Z</time>
      </trkpt>
      <trkpt lat="47.85745" lon="5.52051">
        <ele>317</ele>
        <time>2024-09-01T09:56:16Z</time>
      </trkpt>
      <trkpt lat="47.85773" lon="5.51975">
        <ele>317.6</ele>
        <time>2024-09-01T09:56:25Z</time>
      </trkpt>
      <trkpt lat="47.85784" lon="5.51943">
        <ele>318</ele>
        <time>2024-09-01T09:56:29Z</time>
      </trkpt>
      <trkpt lat="47.85788" lon="5.51925">
        <ele>318.2</ele>
        <time>2024-09-01T09:56:31Z</time>
      </trkpt>
      <trkpt lat="47.85796" lon="5.51862">
        <ele>317.8</ele>
        <time>2024-09-01T09:56:38Z</time>
      </trkpt>
      <trkpt lat="47.85801" lon="5.51801">
        <ele>316.9</ele>
        <time>2024-09-01T09:56:44Z</time>
      </trkpt>
      <trkpt lat="47.85798" lon="5.51724">
        <ele>315.8</ele>
        <time>2024-09-01T09:56:51Z</time>
      </trkpt>
      <trkpt lat="47.85794" lon="5.51649">
        <ele>314.9</ele>
        <time>2024-09-01T09:56:58Z</time>
      </trkpt>
      <trkpt lat="47.85782" lon="5.51559">
        <ele>313.6</ele>
        <time>2024-09-01T09:57:06Z</time>
      </trkpt>
      <trkpt lat="47.8578" lon="5.51548">
        <ele>313.5</ele>
        <time>2024-09-01T09:57:07Z</time>
      </trkpt>
      <trkpt lat="47.85771" lon="5.51468">
        <ele>312</ele>
        <time>2024-09-01T09:57:14Z</time>
      </trkpt>
      <trkpt lat="47.85768" lon="5.51433">
        <ele>311.4</ele>
        <time>2024-09-01T09:57:17Z</time>
      </trkpt>
      <trkpt lat="47.85759" lon="5.51344">
        <ele>311.5</ele>
        <time>2024-09-01T09:57:25Z</time>
      </trkpt>
      <trkpt lat="47.85758" lon="5.51282">
        <ele>313.6</ele>
        <time>2024-09-01T09:57:31Z</time>
      </trkpt>
      <trkpt lat="47.85761" lon="5.51232">
        <ele>315.2</ele>
        <time>2024-09-01T09:57:37Z</time>
      </trkpt>
      <trkpt lat="47.85764" lon="5.51174">
        <ele>315.1</ele>
        <time>2024-09-01T09:57:44Z</time>
      </trkpt>
      <trkpt lat="47.85765" lon="5.51105">
        <ele>314.3</ele>
        <time>2024-09-01T09:57:51Z</time>
      </trkpt>
      <trkpt lat="47.85763" lon="5.51036">
        <ele>313.8</ele>
        <time>2024-09-01T09:57:58Z</time>
      </trkpt>
      <trkpt lat="47.85758" lon="5.50964">
        <ele>313.2</ele>
        <time>2024-09-01T09:58:05Z</time>
      </trkpt>
      <trkpt lat="47.85754" lon="5.50902">
        <ele>312.9</ele>
        <time>2024-09-01T09:58:11Z</time>
      </trkpt>
      <trkpt lat="47.85747" lon="5.50816">
        <ele>312.6</ele>
        <time>2024-09-01T09:58:19Z</time>
      </trkpt>
      <trkpt lat="47.85746" lon="5.50793">
        <ele>312.6</ele>
        <time>2024-09-01T09:58:21Z</time>
      </trkpt>
      <trkpt lat="47.85741" lon="5.50728">
        <ele>312.6</ele>
        <time>2024-09-01T09:58:27Z</time>
      </trkpt>
      <trkpt lat="47.85735" lon="5.50646">
        <ele>312.7</ele>
        <time>2024-09-01T09:58:35Z</time>
      </trkpt>
      <trkpt lat="47.85734" lon="5.50571">
        <ele>312.5</ele>
        <time>2024-09-01T09:58:43Z</time>
      </trkpt>
      <trkpt lat="47.85733" lon="5.50486">
        <ele>311.3</ele>
        <time>2024-09-01T09:58:51Z</time>
      </trkpt>
      <trkpt lat="47.85733" lon="5.50475">
        <ele>311.2</ele>
        <time>2024-09-01T09:58:52Z</time>
      </trkpt>
      <trkpt lat="47.85731" lon="5.5039">
        <ele>310.2</ele>
        <time>2024-09-01T09:59:00Z</time>
      </trkpt>
      <trkpt lat="47.8573" lon="5.50379">
        <ele>310.1</ele>
        <time>2024-09-01T09:59:01Z</time>
      </trkpt>
      <trkpt lat="47.85719" lon="5.50328">
        <ele>309.6</ele>
        <time>2024-09-01T09:59:06Z</time>
      </trkpt>
      <trkpt lat="47.857" lon="5.50263">
        <ele>309.2</ele>
        <time>2024-09-01T09:59:13Z</time>
      </trkpt>
      <trkpt lat="47.85689" lon="5.50182">
        <ele>308.7</ele>
        <time>2024-09-01T09:59:21Z</time>
      </trkpt>
      <trkpt lat="47.85682" lon="5.50126">
        <ele>308.9</ele>
        <time>2024-09-01T09:59:27Z</time>
      </trkpt>
      <trkpt lat="47.8568" lon="5.50107">
        <ele>309.2</ele>
        <time>2024-09-01T09:59:29Z</time>
      </trkpt>
      <trkpt lat="47.85682" lon="5.50088">
        <ele>309.3</ele>
        <time>2024-09-01T09:59:31Z</time>
      </trkpt>
      <trkpt lat="47.85685" lon="5.5008">
        <ele>309.4</ele>
        <time>2024-09-01T09:59:32Z</time>
      </trkpt>
      <trkpt lat="47.85701" lon="5.50026">
        <ele>309.8</ele>
        <time>2024-09-01T09:59:38Z</time>
      </trkpt>
      <trkpt lat="47.8572" lon="5.49964">
        <ele>310.9</ele>
        <time>2024-09-01T09:59:45Z</time>
      </trkpt>
      <trkpt lat="47.85737" lon="5.49906">
        <ele>311.3</ele>
        <time>2024-09-01T09:59:52Z</time>
      </trkpt>
      <trkpt lat="47.85748" lon="5.49858">
        <ele>311.6</ele>
        <time>2024-09-01T09:59:58Z</time>
      </trkpt>
      <trkpt lat="47.85759" lon="5.49789">
        <ele>312.7</ele>
        <time>2024-09-01T10:00:06Z</time>
      </trkpt>
      <trkpt lat="47.85765" lon="5.49719">
        <ele>312.5</ele>
        <time>2024-09-01T10:00:14Z</time>
      </trkpt>
      <trkpt lat="47.85765" lon="5.49659">
        <ele>312</ele>
        <time>2024-09-01T10:00:21Z</time>
      </trkpt>
      <trkpt lat="47.85765" lon="5.49598">
        <ele>312.6</ele>
        <time>2024-09-01T10:00:28Z</time>
      </trkpt>
      <trkpt lat="47.85765" lon="5.49557">
        <ele>313.9</ele>
        <time>2024-09-01T10:00:33Z</time>
      </trkpt>
      <trkpt lat="47.85765" lon="5.49539">
        <ele>314.3</ele>
        <time>2024-09-01T10:00:35Z</time>
      </trkpt>
      <trkpt lat="47.8576" lon="5.49479">
        <ele>316.1</ele>
        <time>2024-09-01T10:00:42Z</time>
      </trkpt>
      <trkpt lat="47.85754" lon="5.49419">
        <ele>317.3</ele>
        <time>2024-09-01T10:00:50Z</time>
      </trkpt>
      <trkpt lat="47.85751" lon="5.49392">
        <ele>317.9</ele>
        <time>2024-09-01T10:00:54Z</time>
      </trkpt>
      <trkpt lat="47.85749" lon="5.49373">
        <ele>318.4</ele>
        <time>2024-09-01T10:00:57Z</time>
      </trkpt>
      <trkpt lat="47.85743" lon="5.49315">
        <ele>320.6</ele>
        <time>2024-09-01T10:01:06Z</time>
      </trkpt>
      <trkpt lat="47.85738" lon="5.49268">
        <ele>322</ele>
        <time>2024-09-01T10:01:14Z</time>
      </trkpt>
      <trkpt lat="47.85739" lon="5.49229">
        <ele>323.1</ele>
        <time>2024-09-01T10:01:21Z</time>
      </trkpt>
      <trkpt lat="47.85746" lon="5.49189">
        <ele>324.5</ele>
        <time>2024-09-01T10:01:29Z</time>
      </trkpt>
      <trkpt lat="47.85759" lon="5.49164">
        <ele>324.9</ele>
        <time>2024-09-01T10:01:35Z</time>
      </trkpt>
      <trkpt lat="47.85773" lon="5.49138">
        <ele>324.4</ele>
        <time>2024-09-01T10:01:41Z</time>
      </trkpt>
      <trkpt lat="47.85799" lon="5.49108">
        <ele>322.9</ele>
        <time>2024-09-01T10:01:48Z</time>
      </trkpt>
      <trkpt lat="47.8583" lon="5.49079">
        <ele>321.5</ele>
        <time>2024-09-01T10:01:54Z</time>
      </trkpt>
      <trkpt lat="47.85865" lon="5.49046">
        <ele>319.8</ele>
        <time>2024-09-01T10:02:00Z</time>
      </trkpt>
      <trkpt lat="47.85872" lon="5.4904">
        <ele>319.5</ele>
        <time>2024-09-01T10:02:01Z</time>
      </trkpt>
      <trkpt lat="47.85883" lon="5.49025">
        <ele>319</ele>
        <time>2024-09-01T10:02:03Z</time>
      </trkpt>
      <trkpt lat="47.85887" lon="5.49014">
        <ele>318.9</ele>
        <time>2024-09-01T10:02:04Z</time>
      </trkpt>
      <trkpt lat="47.8589" lon="5.49004">
        <ele>318.8</ele>
        <time>2024-09-01T10:02:05Z</time>
      </trkpt>
      <trkpt lat="47.85894" lon="5.48971">
        <ele>318.7</ele>
        <time>2024-09-01T10:02:08Z</time>
      </trkpt>
      <trkpt lat="47.85904" lon="5.489">
        <ele>319.9</ele>
        <time>2024-09-01T10:02:15Z</time>
      </trkpt>
      <trkpt lat="47.8591" lon="5.48883">
        <ele>320.1</ele>
        <time>2024-09-01T10:02:17Z</time>
      </trkpt>
      <trkpt lat="47.85917" lon="5.48865">
        <ele>320.4</ele>
        <time>2024-09-01T10:02:19Z</time>
      </trkpt>
      <trkpt lat="47.85926" lon="5.48851">
        <ele>320.6</ele>
        <time>2024-09-01T10:02:21Z</time>
      </trkpt>
      <trkpt lat="47.85938" lon="5.48839">
        <ele>320.7</ele>
        <time>2024-09-01T10:02:23Z</time>
      </trkpt>
      <trkpt lat="47.85944" lon="5.48835">
        <ele>320.8</ele>
        <time>2024-09-01T10:02:24Z</time>
      </trkpt>
      <trkpt lat="47.85958" lon="5.48829">
        <ele>320.9</ele>
        <time>2024-09-01T10:02:26Z</time>
      </trkpt>
      <trkpt lat="47.8597" lon="5.48823">
        <ele>321</ele>
        <time>2024-09-01T10:02:28Z</time>
      </trkpt>
      <trkpt lat="47.86016" lon="5.48812">
        <ele>321.7</ele>
        <time>2024-09-01T10:02:35Z</time>
      </trkpt>
      <trkpt lat="47.86046" lon="5.48805">
        <ele>322.7</ele>
        <time>2024-09-01T10:02:40Z</time>
      </trkpt>
      <trkpt lat="47.8605" lon="5.48801">
        <ele>322.9</ele>
        <time>2024-09-01T10:02:41Z</time>
      </trkpt>
      <trkpt lat="47.86051" lon="5.48794">
        <ele>323.1</ele>
        <time>2024-09-01T10:02:42Z</time>
      </trkpt>
      <trkpt lat="47.86052" lon="5.48781">
        <ele>323.1</ele>
        <time>2024-09-01T10:02:44Z</time>
      </trkpt>
      <trkpt lat="47.86053" lon="5.48766">
        <ele>323.1</ele>
        <time>2024-09-01T10:02:46Z</time>
      </trkpt>
      <trkpt lat="47.86055" lon="5.48744">
        <ele>323.3</ele>
        <time>2024-09-01T10:02:49Z</time>
      </trkpt>
      <trkpt lat="47.86055" lon="5.48735">
        <ele>323.3</ele>
        <time>2024-09-01T10:02:50Z</time>
      </trkpt>
      <trkpt lat="47.86059" lon="5.48712">
        <ele>323.8</ele>
        <time>2024-09-01T10:02:53Z</time>
      </trkpt>
      <trkpt lat="47.86075" lon="5.48652">
        <ele>325</ele>
        <time>2024-09-01T10:03:01Z</time>
      </trkpt>
      <trkpt lat="47.86088" lon="5.48604">
        <ele>325.5</ele>
        <time>2024-09-01T10:03:08Z</time>
      </trkpt>
      <trkpt lat="47.861" lon="5.4856">
        <ele>326.2</ele>
        <time>2024-09-01T10:03:15Z</time>
      </trkpt>
      <trkpt lat="47.86102" lon="5.48554">
        <ele>326.2</ele>
        <time>2024-09-01T10:03:16Z</time>
      </trkpt>
      <trkpt lat="47.86109" lon="5.48543">
        <ele>326.4</ele>
        <time>2024-09-01T10:03:18Z</time>
      </trkpt>
      <trkpt lat="47.86113" lon="5.48541">
        <ele>326.5</ele>
        <time>2024-09-01T10:03:19Z</time>
      </trkpt>
      <trkpt lat="47.86143" lon="5.48524">
        <ele>327</ele>
        <time>2024-09-01T10:03:25Z</time>
      </trkpt>
      <trkpt lat="47.86166" lon="5.48511">
        <ele>327.6</ele>
        <time>2024-09-01T10:03:30Z</time>
      </trkpt>
      <trkpt lat="47.8617" lon="5.48508">
        <ele>327.7</ele>
        <time>2024-09-01T10:03:31Z</time>
      </trkpt>
      <trkpt lat="47.86174" lon="5.48506">
        <ele>327.8</ele>
        <time>2024-09-01T10:03:32Z</time>
      </trkpt>
      <trkpt lat="47.86178" lon="5.48488">
        <ele>327.7</ele>
        <time>2024-09-01T10:03:34Z</time>
      </trkpt>
      <trkpt lat="47.86178" lon="5.48481">
        <ele>327.6</ele>
        <time>2024-09-01T10:03:35Z</time>
      </trkpt>
      <trkpt lat="47.86178" lon="5.48462">
        <ele>327.5</ele>
        <time>2024-09-01T10:03:38Z</time>
      </trkpt>
      <trkpt lat="47.86177" lon="5.48442">
        <ele>327.4</ele>
        <time>2024-09-01T10:03:41Z</time>
      </trkpt>
      <trkpt lat="47.86182" lon="5.48393">
        <ele>327.8</ele>
        <time>2024-09-01T10:03:48Z</time>
      </trkpt>
      <trkpt lat="47.86186" lon="5.48365">
        <ele>328.3</ele>
        <time>2024-09-01T10:03:53Z</time>
      </trkpt>
      <trkpt lat="47.8619" lon="5.48337">
        <ele>328.9</ele>
        <time>2024-09-01T10:04:00Z</time>
      </trkpt>
      <trkpt lat="47.86195" lon="5.48302">
        <ele>329.7</ele>
        <time>2024-09-01T10:04:07Z</time>
      </trkpt>
      <trkpt lat="47.86199" lon="5.48264">
        <ele>330.7</ele>
        <time>2024-09-01T10:04:13Z</time>
      </trkpt>
      <trkpt lat="47.862" lon="5.48257">
        <ele>330.9</ele>
        <time>2024-09-01T10:04:14Z</time>
      </trkpt>
      <trkpt lat="47.86201" lon="5.48218">
        <ele>331.9</ele>
        <time>2024-09-01T10:04:20Z</time>
      </trkpt>
      <trkpt lat="47.86191" lon="5.48167">
        <ele>333.1</ele>
        <time>2024-09-01T10:04:28Z</time>
      </trkpt>
      <trkpt lat="47.86183" lon="5.48132">
        <ele>334</ele>
        <time>2024-09-01T10:04:34Z</time>
      </trkpt>
      <trkpt lat="47.86173" lon="5.48082">
        <ele>335.3</ele>
        <time>2024-09-01T10:04:42Z</time>
      </trkpt>
      <trkpt lat="47.86165" lon="5.48042">
        <ele>336.2</ele>
        <time>2024-09-01T10:04:49Z</time>
      </trkpt>
      <trkpt lat="47.86153" lon="5.47986">
        <ele>337.4</ele>
        <time>2024-09-01T10:04:58Z</time>
      </trkpt>
      <trkpt lat="47.86146" lon="5.47951">
        <ele>338.2</ele>
        <time>2024-09-01T10:05:04Z</time>
      </trkpt>
      <trkpt lat="47.86136" lon="5.47907">
        <ele>339.4</ele>
        <time>2024-09-01T10:05:12Z</time>
      </trkpt>
      <trkpt lat="47.86124" lon="5.47857">
        <ele>340.7</ele>
        <time>2024-09-01T10:05:21Z</time>
      </trkpt>
      <trkpt lat="47.86112" lon="5.47827">
        <ele>341.8</ele>
        <time>2024-09-01T10:05:28Z</time>
      </trkpt>
      <trkpt lat="47.86113" lon="5.47787">
        <ele>344.1</ele>
        <time>2024-09-01T10:05:36Z</time>
      </trkpt>
      <trkpt lat="47.86108" lon="5.4775">
        <ele>346.8</ele>
        <time>2024-09-01T10:05:45Z</time>
      </trkpt>
      <trkpt lat="47.86104" lon="5.47724">
        <ele>349.1</ele>
        <time>2024-09-01T10:05:52Z</time>
      </trkpt>
      <trkpt lat="47.86097" lon="5.47708">
        <ele>350.2</ele>
        <time>2024-09-01T10:05:57Z</time>
      </trkpt>
      <trkpt lat="47.86088" lon="5.47713">
        <ele>349.5</ele>
        <time>2024-09-01T10:06:01Z</time>
      </trkpt>
      <trkpt lat="47.86072" lon="5.47722">
        <ele>348.3</ele>
        <time>2024-09-01T10:06:07Z</time>
      </trkpt>
      <trkpt lat="47.86071" lon="5.47723">
        <ele>348.1</ele>
        <time>2024-09-01T10:06:10Z</time>
      </trkpt>
      <trkpt lat="47.8606" lon="5.47736">
        <ele>347.1</ele>
        <time>2024-09-01T10:09:47Z</time>
      </trkpt>
      <trkpt lat="47.86065" lon="5.47756">
        <ele>345.6</ele>
        <time>2024-09-01T10:09:53Z</time>
      </trkpt>
      <trkpt lat="47.86082" lon="5.47781">
        <ele>344</ele>
        <time>2024-09-01T10:10:00Z</time>
      </trkpt>
      <trkpt lat="47.86097" lon="5.47804">
        <ele>342.8</ele>
        <time>2024-09-01T10:10:05Z</time>
      </trkpt>
      <trkpt lat="47.8612" lon="5.47847">
        <ele>341.1</ele>
        <time>2024-09-01T10:10:12Z</time>
      </trkpt>
      <trkpt lat="47.86135" lon="5.47902">
        <ele>339.5</ele>
        <time>2024-09-01T10:10:18Z</time>
      </trkpt>
      <trkpt lat="47.86153" lon="5.47982">
        <ele>337.5</ele>
        <time>2024-09-01T10:10:26Z</time>
      </trkpt>
      <trkpt lat="47.86168" lon="5.48057">
        <ele>335.9</ele>
        <time>2024-09-01T10:10:33Z</time>
      </trkpt>
      <trkpt lat="47.86186" lon="5.48142">
        <ele>333.7</ele>
        <time>2024-09-01T10:10:41Z</time>
      </trkpt>
      <trkpt lat="47.86202" lon="5.48225">
        <ele>331.7</ele>
        <time>2024-09-01T10:10:49Z</time>
      </trkpt>
      <trkpt lat="47.86198" lon="5.48281">
        <ele>330.3</ele>
        <time>2024-09-01T10:10:54Z</time>
      </trkpt>
      <trkpt lat="47.86192" lon="5.48323">
        <ele>329.3</ele>
        <time>2024-09-01T10:10:58Z</time>
      </trkpt>
      <trkpt lat="47.86189" lon="5.48347">
        <ele>328.7</ele>
        <time>2024-09-01T10:11:01Z</time>
      </trkpt>
      <trkpt lat="47.86187" lon="5.48361">
        <ele>328.4</ele>
        <time>2024-09-01T10:11:03Z</time>
      </trkpt>
      <trkpt lat="47.86182" lon="5.48398">
        <ele>327.7</ele>
        <time>2024-09-01T10:11:09Z</time>
      </trkpt>
      <trkpt lat="47.86181" lon="5.48405">
        <ele>327.6</ele>
        <time>2024-09-01T10:11:10Z</time>
      </trkpt>
      <trkpt lat="47.86179" lon="5.4842">
        <ele>327.5</ele>
        <time>2024-09-01T10:11:12Z</time>
      </trkpt>
      <trkpt lat="47.86177" lon="5.48457">
        <ele>327.5</ele>
        <time>2024-09-01T10:11:17Z</time>
      </trkpt>
      <trkpt lat="47.86178" lon="5.48471">
        <ele>327.5</ele>
        <time>2024-09-01T10:11:19Z</time>
      </trkpt>
      <trkpt lat="47.86178" lon="5.48487">
        <ele>327.7</ele>
        <time>2024-09-01T10:11:22Z</time>
      </trkpt>
      <trkpt lat="47.86183" lon="5.48502">
        <ele>328</ele>
        <time>2024-09-01T10:11:26Z</time>
      </trkpt>
      <trkpt lat="47.86197" lon="5.485">
        <ele>328</ele>
        <time>2024-09-01T10:11:30Z</time>
      </trkpt>
      <trkpt lat="47.86226" lon="5.48497">
        <ele>328.2</ele>
        <time>2024-09-01T10:11:36Z</time>
      </trkpt>
      <trkpt lat="47.86267" lon="5.48492">
        <ele>329.2</ele>
        <time>2024-09-01T10:11:44Z</time>
      </trkpt>
      <trkpt lat="47.863" lon="5.48489">
        <ele>330.7</ele>
        <time>2024-09-01T10:11:51Z</time>
      </trkpt>
      <trkpt lat="47.86332" lon="5.48485">
        <ele>332.2</ele>
        <time>2024-09-01T10:11:58Z</time>
      </trkpt>
      <trkpt lat="47.86365" lon="5.48481">
        <ele>334</ele>
        <time>2024-09-01T10:12:05Z</time>
      </trkpt>
      <trkpt lat="47.86379" lon="5.4848">
        <ele>334.8</ele>
        <time>2024-09-01T10:12:08Z</time>
      </trkpt>
      <trkpt lat="47.86395" lon="5.48483">
        <ele>335.8</ele>
        <time>2024-09-01T10:12:12Z</time>
      </trkpt>
      <trkpt lat="47.86415" lon="5.48487">
        <ele>336.9</ele>
        <time>2024-09-01T10:12:17Z</time>
      </trkpt>
      <trkpt lat="47.86423" lon="5.48489">
        <ele>337.3</ele>
        <time>2024-09-01T10:12:19Z</time>
      </trkpt>
      <trkpt lat="47.86455" lon="5.48515">
        <ele>339</ele>
        <time>2024-09-01T10:12:28Z</time>
      </trkpt>
      <trkpt lat="47.86483" lon="5.48538">
        <ele>340.6</ele>
        <time>2024-09-01T10:12:36Z</time>
      </trkpt>
      <trkpt lat="47.86499" lon="5.48551">
        <ele>341.4</ele>
        <time>2024-09-01T10:12:41Z</time>
      </trkpt>
      <trkpt lat="47.86526" lon="5.48572">
        <ele>342.7</ele>
        <time>2024-09-01T10:12:49Z</time>
      </trkpt>
      <trkpt lat="47.8655" lon="5.4859">
        <ele>343.8</ele>
        <time>2024-09-01T10:12:56Z</time>
      </trkpt>
      <trkpt lat="47.8658" lon="5.48603">
        <ele>345.2</ele>
        <time>2024-09-01T10:13:04Z</time>
      </trkpt>
      <trkpt lat="47.86607" lon="5.48615">
        <ele>346.3</ele>
        <time>2024-09-01T10:13:12Z</time>
      </trkpt>
      <trkpt lat="47.86633" lon="5.48626">
        <ele>347.4</ele>
        <time>2024-09-01T10:13:19Z</time>
      </trkpt>
      <trkpt lat="47.86655" lon="5.48636">
        <ele>348.5</ele>
        <time>2024-09-01T10:13:25Z</time>
      </trkpt>
      <trkpt lat="47.86681" lon="5.48647">
        <ele>349.4</ele>
        <time>2024-09-01T10:13:32Z</time>
      </trkpt>
      <trkpt lat="47.86713" lon="5.48661">
        <ele>350.4</ele>
        <time>2024-09-01T10:13:40Z</time>
      </trkpt>
      <trkpt lat="47.86747" lon="5.48676">
        <ele>351.2</ele>
        <time>2024-09-01T10:13:48Z</time>
      </trkpt>
      <trkpt lat="47.86771" lon="5.48687">
        <ele>351.5</ele>
        <time>2024-09-01T10:13:54Z</time>
      </trkpt>
      <trkpt lat="47.86799" lon="5.48699">
        <ele>351.3</ele>
        <time>2024-09-01T10:14:01Z</time>
      </trkpt>
      <trkpt lat="47.86834" lon="5.48714">
        <ele>350.7</ele>
        <time>2024-09-01T10:14:07Z</time>
      </trkpt>
      <trkpt lat="47.8688" lon="5.48735">
        <ele>349.6</ele>
        <time>2024-09-01T10:14:14Z</time>
      </trkpt>
      <trkpt lat="47.86928" lon="5.48756">
        <ele>348.3</ele>
        <time>2024-09-01T10:14:21Z</time>
      </trkpt>
      <trkpt lat="47.86978" lon="5.48792">
        <ele>347.1</ele>
        <time>2024-09-01T10:14:28Z</time>
      </trkpt>
      <trkpt lat="47.87032" lon="5.48833">
        <ele>346.6</ele>
        <time>2024-09-01T10:14:36Z</time>
      </trkpt>
      <trkpt lat="47.87039" lon="5.48837">
        <ele>346.5</ele>
        <time>2024-09-01T10:14:37Z</time>
      </trkpt>
      <trkpt lat="47.87062" lon="5.48867">
        <ele>346</ele>
        <time>2024-09-01T10:14:41Z</time>
      </trkpt>
      <trkpt lat="47.87068" lon="5.48876">
        <ele>345.7</ele>
        <time>2024-09-01T10:14:42Z</time>
      </trkpt>
      <trkpt lat="47.87097" lon="5.48937">
        <ele>343.5</ele>
        <time>2024-09-01T10:14:48Z</time>
      </trkpt>
      <trkpt lat="47.87128" lon="5.48985">
        <ele>341.5</ele>
        <time>2024-09-01T10:14:53Z</time>
      </trkpt>
      <trkpt lat="47.87169" lon="5.49037">
        <ele>339.9</ele>
        <time>2024-09-01T10:14:59Z</time>
      </trkpt>
      <trkpt lat="47.87175" lon="5.49045">
        <ele>339.7</ele>
        <time>2024-09-01T10:15:00Z</time>
      </trkpt>
      <trkpt lat="47.87212" lon="5.49092">
        <ele>337.6</ele>
        <time>2024-09-01T10:15:06Z</time>
      </trkpt>
      <trkpt lat="47.87256" lon="5.49146">
        <ele>334.4</ele>
        <time>2024-09-01T10:15:12Z</time>
      </trkpt>
      <trkpt lat="47.87304" lon="5.49207">
        <ele>330.4</ele>
        <time>2024-09-01T10:15:18Z</time>
      </trkpt>
      <trkpt lat="47.87313" lon="5.49217">
        <ele>329.6</ele>
        <time>2024-09-01T10:15:19Z</time>
      </trkpt>
      <trkpt lat="47.87357" lon="5.49272">
        <ele>326.2</ele>
        <time>2024-09-01T10:15:24Z</time>
      </trkpt>
      <trkpt lat="47.87393" lon="5.49315">
        <ele>324</ele>
        <time>2024-09-01T10:15:28Z</time>
      </trkpt>
      <trkpt lat="47.87438" lon="5.49366">
        <ele>321.7</ele>
        <time>2024-09-01T10:15:33Z</time>
      </trkpt>
      <trkpt lat="47.87463" lon="5.49395">
        <ele>320.1</ele>
        <time>2024-09-01T10:15:36Z</time>
      </trkpt>
      <trkpt lat="47.87513" lon="5.49451">
        <ele>316.7</ele>
        <time>2024-09-01T10:15:42Z</time>
      </trkpt>
      <trkpt lat="47.8752" lon="5.49461">
        <ele>316.6</ele>
        <time>2024-09-01T10:15:43Z</time>
      </trkpt>
      <trkpt lat="47.87541" lon="5.49495">
        <ele>316.5</ele>
        <time>2024-09-01T10:15:46Z</time>
      </trkpt>
      <trkpt lat="47.8755" lon="5.49504">
        <ele>316.4</ele>
        <time>2024-09-01T10:15:47Z</time>
      </trkpt>
      <trkpt lat="47.87567" lon="5.49523">
        <ele>316.2</ele>
        <time>2024-09-01T10:15:49Z</time>
      </trkpt>
      <trkpt lat="47.87581" lon="5.49542">
        <ele>316.3</ele>
        <time>2024-09-01T10:15:51Z</time>
      </trkpt>
      <trkpt lat="47.87585" lon="5.49567">
        <ele>316.8</ele>
        <time>2024-09-01T10:15:53Z</time>
      </trkpt>
      <trkpt lat="47.87587" lon="5.49578">
        <ele>317</ele>
        <time>2024-09-01T10:15:54Z</time>
      </trkpt>
      <trkpt lat="47.87588" lon="5.49631">
        <ele>318.7</ele>
        <time>2024-09-01T10:15:59Z</time>
      </trkpt>
      <trkpt lat="47.87591" lon="5.49649">
        <ele>319.4</ele>
        <time>2024-09-01T10:16:01Z</time>
      </trkpt>
      <trkpt lat="47.87596" lon="5.49665">
        <ele>320.1</ele>
        <time>2024-09-01T10:16:03Z</time>
      </trkpt>
      <trkpt lat="47.87599" lon="5.49672">
        <ele>320.4</ele>
        <time>2024-09-01T10:16:04Z</time>
      </trkpt>
      <trkpt lat="47.87605" lon="5.49684">
        <ele>320.9</ele>
        <time>2024-09-01T10:16:06Z</time>
      </trkpt>
      <trkpt lat="47.87621" lon="5.49708">
        <ele>321.9</ele>
        <time>2024-09-01T10:16:10Z</time>
      </trkpt>
      <trkpt lat="47.87656" lon="5.49755">
        <ele>323.2</ele>
        <time>2024-09-01T10:16:18Z</time>
      </trkpt>
      <trkpt lat="47.87688" lon="5.49803">
        <ele>324.5</ele>
        <time>2024-09-01T10:16:26Z</time>
      </trkpt>
      <trkpt lat="47.87701" lon="5.49828">
        <ele>324.9</ele>
        <time>2024-09-01T10:16:30Z</time>
      </trkpt>
      <trkpt lat="47.87708" lon="5.49841">
        <ele>325.2</ele>
        <time>2024-09-01T10:16:32Z</time>
      </trkpt>
      <trkpt lat="47.87725" lon="5.49881">
        <ele>325.8</ele>
        <time>2024-09-01T10:16:38Z</time>
      </trkpt>
      <trkpt lat="47.8774" lon="5.49928">
        <ele>326</ele>
        <time>2024-09-01T10:16:45Z</time>
      </trkpt>
      <trkpt lat="47.87761" lon="5.4998">
        <ele>326.2</ele>
        <time>2024-09-01T10:16:53Z</time>
      </trkpt>
      <trkpt lat="47.87791" lon="5.5003">
        <ele>326.8</ele>
        <time>2024-09-01T10:17:01Z</time>
      </trkpt>
      <trkpt lat="47.87826" lon="5.50071">
        <ele>327.5</ele>
        <time>2024-09-01T10:17:09Z</time>
      </trkpt>
      <trkpt lat="47.87853" lon="5.501">
        <ele>328.3</ele>
        <time>2024-09-01T10:17:15Z</time>
      </trkpt>
      <trkpt lat="47.87884" lon="5.50129">
        <ele>329.3</ele>
        <time>2024-09-01T10:17:22Z</time>
      </trkpt>
      <trkpt lat="47.87915" lon="5.50158">
        <ele>329.8</ele>
        <time>2024-09-01T10:17:29Z</time>
      </trkpt>
      <trkpt lat="47.87943" lon="5.50185">
        <ele>329.7</ele>
        <time>2024-09-01T10:17:35Z</time>
      </trkpt>
      <trkpt lat="47.87979" lon="5.50225">
        <ele>328.8</ele>
        <time>2024-09-01T10:17:43Z</time>
      </trkpt>
      <trkpt lat="47.88013" lon="5.50278">
        <ele>327.7</ele>
        <time>2024-09-01T10:17:51Z</time>
      </trkpt>
      <trkpt lat="47.8804" lon="5.50345">
        <ele>326.4</ele>
        <time>2024-09-01T10:17:59Z</time>
      </trkpt>
      <trkpt lat="47.88062" lon="5.50404">
        <ele>325.8</ele>
        <time>2024-09-01T10:18:06Z</time>
      </trkpt>
      <trkpt lat="47.88068" lon="5.50416">
        <ele>325.7</ele>
        <time>2024-09-01T10:18:08Z</time>
      </trkpt>
      <trkpt lat="47.88073" lon="5.50421">
        <ele>325.7</ele>
        <time>2024-09-01T10:18:09Z</time>
      </trkpt>
      <trkpt lat="47.88082" lon="5.50431">
        <ele>325.5</ele>
        <time>2024-09-01T10:18:11Z</time>
      </trkpt>
      <trkpt lat="47.88105" lon="5.50456">
        <ele>324.9</ele>
        <time>2024-09-01T10:18:17Z</time>
      </trkpt>
      <trkpt lat="47.88121" lon="5.50473">
        <ele>324.3</ele>
        <time>2024-09-01T10:18:22Z</time>
      </trkpt>
      <trkpt lat="47.88126" lon="5.50484">
        <ele>323.6</ele>
        <time>2024-09-01T10:18:24Z</time>
      </trkpt>
      <trkpt lat="47.88135" lon="5.50509">
        <ele>322.4</ele>
        <time>2024-09-01T10:18:29Z</time>
      </trkpt>
      <trkpt lat="47.88131" lon="5.5052">
        <ele>321.8</ele>
        <time>2024-09-01T10:18:31Z</time>
      </trkpt>
      <trkpt lat="47.88128" lon="5.50526">
        <ele>321.5</ele>
        <time>2024-09-01T10:18:32Z</time>
      </trkpt>
      <trkpt lat="47.88111" lon="5.50575">
        <ele>319.2</ele>
        <time>2024-09-01T10:18:39Z</time>
      </trkpt>
      <trkpt lat="47.88096" lon="5.50609">
        <ele>317.5</ele>
        <time>2024-09-01T10:18:45Z</time>
      </trkpt>
      <trkpt lat="47.88074" lon="5.5065">
        <ele>315.3</ele>
        <time>2024-09-01T10:18:53Z</time>
      </trkpt>
      <trkpt lat="47.88051" lon="5.50694">
        <ele>313</ele>
        <time>2024-09-01T10:19:00Z</time>
      </trkpt>
      <trkpt lat="47.88021" lon="5.5075">
        <ele>310</ele>
        <time>2024-09-01T10:19:08Z</time>
      </trkpt>
      <trkpt lat="47.88011" lon="5.50771">
        <ele>308.9</ele>
        <time>2024-09-01T10:19:12Z</time>
      </trkpt>
      <trkpt lat="47.88007" lon="5.50795">
        <ele>307.8</ele>
        <time>2024-09-01T10:19:17Z</time>
      </trkpt>
      <trkpt lat="47.88009" lon="5.50796">
        <ele>307.8</ele>
        <time>2024-09-01T10:19:20Z</time>
      </trkpt>
      <trkpt lat="47.88009" lon="5.50794">
        <ele>307.9</ele>
        <time>2024-09-01T10:19:21Z</time>
      </trkpt>
      <trkpt lat="47.88008" lon="5.50791">
        <ele>308</ele>
        <time>2024-09-01T10:20:25Z</time>
      </trkpt>
      <trkpt lat="47.88008" lon="5.50789">
        <ele>308.1</ele>
        <time>2024-09-01T10:20:27Z</time>
      </trkpt>
      <trkpt lat="47.8801" lon="5.50774">
        <ele>308.7</ele>
        <time>2024-09-01T10:20:33Z</time>
      </trkpt>
      <trkpt lat="47.88015" lon="5.50761">
        <ele>309.4</ele>
        <time>2024-09-01T10:20:39Z</time>
      </trkpt>
      <trkpt lat="47.88023" lon="5.50746">
        <ele>310.2</ele>
        <time>2024-09-01T10:20:46Z</time>
      </trkpt>
      <trkpt lat="47.88036" lon="5.5072">
        <ele>311.5</ele>
        <time>2024-09-01T10:20:54Z</time>
      </trkpt>
      <trkpt lat="47.88046" lon="5.50702">
        <ele>312.5</ele>
        <time>2024-09-01T10:21:00Z</time>
      </trkpt>
      <trkpt lat="47.8806" lon="5.50677">
        <ele>313.9</ele>
        <time>2024-09-01T10:21:09Z</time>
      </trkpt>
      <trkpt lat="47.8807" lon="5.50657">
        <ele>314.9</ele>
        <time>2024-09-01T10:21:16Z</time>
      </trkpt>
      <trkpt lat="47.88081" lon="5.50638">
        <ele>316</ele>
        <time>2024-09-01T10:21:23Z</time>
      </trkpt>
      <trkpt lat="47.8809" lon="5.5062">
        <ele>316.9</ele>
        <time>2024-09-01T10:21:30Z</time>
      </trkpt>
      <trkpt lat="47.88104" lon="5.50594">
        <ele>318.3</ele>
        <time>2024-09-01T10:21:39Z</time>
      </trkpt>
      <trkpt lat="47.88114" lon="5.50569">
        <ele>319.6</ele>
        <time>2024-09-01T10:21:46Z</time>
      </trkpt>
      <trkpt lat="47.88122" lon="5.50544">
        <ele>320.7</ele>
        <time>2024-09-01T10:21:52Z</time>
      </trkpt>
      <trkpt lat="47.88131" lon="5.50519">
        <ele>321.9</ele>
        <time>2024-09-01T10:21:59Z</time>
      </trkpt>
      <trkpt lat="47.88139" lon="5.50496">
        <ele>323.1</ele>
        <time>2024-09-01T10:22:07Z</time>
      </trkpt>
      <trkpt lat="47.88142" lon="5.50485">
        <ele>323.6</ele>
        <time>2024-09-01T10:22:14Z</time>
      </trkpt>
      <trkpt lat="47.88147" lon="5.50485">
        <ele>323.7</ele>
        <time>2024-09-01T10:22:47Z</time>
      </trkpt>
      <trkpt lat="47.88152" lon="5.50486">
        <ele>323.6</ele>
        <time>2024-09-01T10:22:49Z</time>
      </trkpt>
      <trkpt lat="47.88173" lon="5.5049">
        <ele>323</ele>
        <time>2024-09-01T10:22:55Z</time>
      </trkpt>
      <trkpt lat="47.88203" lon="5.50495">
        <ele>322.3</ele>
        <time>2024-09-01T10:23:02Z</time>
      </trkpt>
      <trkpt lat="47.88222" lon="5.50509">
        <ele>322</ele>
        <time>2024-09-01T10:23:08Z</time>
      </trkpt>
      <trkpt lat="47.88219" lon="5.50528">
        <ele>321.9</ele>
        <time>2024-09-01T10:23:12Z</time>
      </trkpt>
      <trkpt lat="47.88216" lon="5.50543">
        <ele>321.9</ele>
        <time>2024-09-01T10:23:18Z</time>
      </trkpt>
      <trkpt lat="47.88216" lon="5.50543">
        <ele>321.9</ele>
        <time>2024-09-01T10:23:19Z</time>
      </trkpt>
      <trkpt lat="47.88213" lon="5.5054">
        <ele>321.9</ele>
        <time>2024-09-01T10:25:43Z</time>
      </trkpt>
      <trkpt lat="47.88217" lon="5.50539">
        <ele>321.9</ele>
        <time>2024-09-01T10:25:45Z</time>
      </trkpt>
      <trkpt lat="47.8823" lon="5.50538">
        <ele>321.9</ele>
        <time>2024-09-01T10:25:51Z</time>
      </trkpt>
      <trkpt lat="47.88245" lon="5.50543">
        <ele>321.9</ele>
        <time>2024-09-01T10:25:57Z</time>
      </trkpt>
      <trkpt lat="47.88245" lon="5.50558">
        <ele>321.9</ele>
        <time>2024-09-01T10:26:02Z</time>
      </trkpt>
      <trkpt lat="47.88244" lon="5.50582">
        <ele>322</ele>
        <time>2024-09-01T10:26:08Z</time>
      </trkpt>
      <trkpt lat="47.88237" lon="5.50617">
        <ele>322.2</ele>
        <time>2024-09-01T10:26:16Z</time>
      </trkpt>
      <trkpt lat="47.88232" lon="5.50641">
        <ele>322.2</ele>
        <time>2024-09-01T10:26:21Z</time>
      </trkpt>
      <trkpt lat="47.88225" lon="5.50674">
        <ele>322.1</ele>
        <time>2024-09-01T10:26:28Z</time>
      </trkpt>
      <trkpt lat="47.88221" lon="5.50695">
        <ele>322.1</ele>
        <time>2024-09-01T10:26:35Z</time>
      </trkpt>
      <trkpt lat="47.88221" lon="5.50695">
        <ele>322.1</ele>
        <time>2024-09-01T10:26:37Z</time>
      </trkpt>
      <trkpt lat="47.88218" lon="5.50706">
        <ele>322.1</ele>
        <time>2024-09-01T10:26:52Z</time>
      </trkpt>
      <trkpt lat="47.88218" lon="5.50709">
        <ele>322.1</ele>
        <time>2024-09-01T10:26:53Z</time>
      </trkpt>
      <trkpt lat="47.88217" lon="5.50712">
        <ele>322.1</ele>
        <time>2024-09-01T10:26:54Z</time>
      </trkpt>
      <trkpt lat="47.88214" lon="5.50729">
        <ele>322.2</ele>
        <time>2024-09-01T10:26:59Z</time>
      </trkpt>
      <trkpt lat="47.88208" lon="5.50757">
        <ele>322.4</ele>
        <time>2024-09-01T10:27:05Z</time>
      </trkpt>
      <trkpt lat="47.88205" lon="5.50773">
        <ele>322.7</ele>
        <time>2024-09-01T10:27:10Z</time>
      </trkpt>
      <trkpt lat="47.88207" lon="5.50784">
        <ele>322.8</ele>
        <time>2024-09-01T10:27:15Z</time>
      </trkpt>
      <trkpt lat="47.8821" lon="5.50803">
        <ele>323.3</ele>
        <time>2024-09-01T10:27:20Z</time>
      </trkpt>
      <trkpt lat="47.8822" lon="5.50821">
        <ele>324.1</ele>
        <time>2024-09-01T10:27:26Z</time>
      </trkpt>
      <trkpt lat="47.88237" lon="5.50835">
        <ele>324.9</ele>
        <time>2024-09-01T10:27:32Z</time>
      </trkpt>
      <trkpt lat="47.88256" lon="5.50848">
        <ele>325.6</ele>
        <time>2024-09-01T10:27:38Z</time>
      </trkpt>
      <trkpt lat="47.88279" lon="5.50865">
        <ele>326.5</ele>
        <time>2024-09-01T10:27:45Z</time>
      </trkpt>
      <trkpt lat="47.88307" lon="5.50887">
        <ele>327.4</ele>
        <time>2024-09-01T10:27:53Z</time>
      </trkpt>
      <trkpt lat="47.88333" lon="5.50905">
        <ele>328.1</ele>
        <time>2024-09-01T10:28:00Z</time>
      </trkpt>
      <trkpt lat="47.8836" lon="5.50921">
        <ele>328.7</ele>
        <time>2024-09-01T10:28:07Z</time>
      </trkpt>
      <trkpt lat="47.8839" lon="5.50938">
        <ele>329.3</ele>
        <time>2024-09-01T10:28:14Z</time>
      </trkpt>
      <trkpt lat="47.88431" lon="5.50961">
        <ele>330.1</ele>
        <time>2024-09-01T10:28:23Z</time>
      </trkpt>
      <trkpt lat="47.88457" lon="5.50975">
        <ele>330.6</ele>
        <time>2024-09-01T10:28:29Z</time>
      </trkpt>
      <trkpt lat="47.88492" lon="5.50991">
        <ele>331</ele>
        <time>2024-09-01T10:28:37Z</time>
      </trkpt>
      <trkpt lat="47.88529" lon="5.50997">
        <ele>331.3</ele>
        <time>2024-09-01T10:28:45Z</time>
      </trkpt>
      <trkpt lat="47.88562" lon="5.51">
        <ele>331.5</ele>
        <time>2024-09-01T10:28:53Z</time>
      </trkpt>
      <trkpt lat="47.88568" lon="5.51">
        <ele>331.5</ele>
        <time>2024-09-01T10:28:54Z</time>
      </trkpt>
      <trkpt lat="47.88584" lon="5.50984">
        <ele>331.4</ele>
        <time>2024-09-01T10:28:59Z</time>
      </trkpt>
      <trkpt lat="47.88604" lon="5.50968">
        <ele>331.1</ele>
        <time>2024-09-01T10:29:04Z</time>
      </trkpt>
      <trkpt lat="47.88635" lon="5.50933">
        <ele>330.9</ele>
        <time>2024-09-01T10:29:11Z</time>
      </trkpt>
      <trkpt lat="47.8867" lon="5.50886">
        <ele>330.9</ele>
        <time>2024-09-01T10:29:19Z</time>
      </trkpt>
      <trkpt lat="47.887" lon="5.50841">
        <ele>330.7</ele>
        <time>2024-09-01T10:29:26Z</time>
      </trkpt>
      <trkpt lat="47.88734" lon="5.50777">
        <ele>329.3</ele>
        <time>2024-09-01T10:29:34Z</time>
      </trkpt>
      <trkpt lat="47.88738" lon="5.50768">
        <ele>329.2</ele>
        <time>2024-09-01T10:29:35Z</time>
      </trkpt>
      <trkpt lat="47.88764" lon="5.50705">
        <ele>327.9</ele>
        <time>2024-09-01T10:29:42Z</time>
      </trkpt>
      <trkpt lat="47.88789" lon="5.50631">
        <ele>327</ele>
        <time>2024-09-01T10:29:49Z</time>
      </trkpt>
      <trkpt lat="47.88811" lon="5.50555">
        <ele>326.1</ele>
        <time>2024-09-01T10:29:56Z</time>
      </trkpt>
      <trkpt lat="47.88832" lon="5.50482">
        <ele>325.9</ele>
        <time>2024-09-01T10:30:03Z</time>
      </trkpt>
      <trkpt lat="47.88851" lon="5.50406">
        <ele>325.8</ele>
        <time>2024-09-01T10:30:10Z</time>
      </trkpt>
      <trkpt lat="47.88853" lon="5.50396">
        <ele>325.7</ele>
        <time>2024-09-01T10:30:11Z</time>
      </trkpt>
      <trkpt lat="47.88872" lon="5.50315">
        <ele>325.8</ele>
        <time>2024-09-01T10:30:19Z</time>
      </trkpt>
      <trkpt lat="47.88884" lon="5.50242">
        <ele>325.9</ele>
        <time>2024-09-01T10:30:26Z</time>
      </trkpt>
      <trkpt lat="47.88894" lon="5.50162">
        <ele>326.5</ele>
        <time>2024-09-01T10:30:34Z</time>
      </trkpt>
      <trkpt lat="47.88903" lon="5.5011">
        <ele>327</ele>
        <time>2024-09-01T10:30:40Z</time>
      </trkpt>
      <trkpt lat="47.88915" lon="5.50069">
        <ele>327.3</ele>
        <time>2024-09-01T10:30:45Z</time>
      </trkpt>
      <trkpt lat="47.88923" lon="5.50056">
        <ele>327.2</ele>
        <time>2024-09-01T10:30:47Z</time>
      </trkpt>
      <trkpt lat="47.88932" lon="5.50042">
        <ele>327</ele>
        <time>2024-09-01T10:30:49Z</time>
      </trkpt>
      <trkpt lat="47.88939" lon="5.50039">
        <ele>326.8</ele>
        <time>2024-09-01T10:30:50Z</time>
      </trkpt>
      <trkpt lat="47.88945" lon="5.50035">
        <ele>326.7</ele>
        <time>2024-09-01T10:30:51Z</time>
      </trkpt>
      <trkpt lat="47.88958" lon="5.50027">
        <ele>326.3</ele>
        <time>2024-09-01T10:30:53Z</time>
      </trkpt>
      <trkpt lat="47.88966" lon="5.50025">
        <ele>326.1</ele>
        <time>2024-09-01T10:30:54Z</time>
      </trkpt>
      <trkpt lat="47.88973" lon="5.50027">
        <ele>326</ele>
        <time>2024-09-01T10:30:55Z</time>
      </trkpt>
      <trkpt lat="47.89" lon="5.50032">
        <ele>325.8</ele>
        <time>2024-09-01T10:30:59Z</time>
      </trkpt>
      <trkpt lat="47.89045" lon="5.50041">
        <ele>325.1</ele>
        <time>2024-09-01T10:31:06Z</time>
      </trkpt>
      <trkpt lat="47.89064" lon="5.50043">
        <ele>324.7</ele>
        <time>2024-09-01T10:31:09Z</time>
      </trkpt>
      <trkpt lat="47.89077" lon="5.50039">
        <ele>324.4</ele>
        <time>2024-09-01T10:31:11Z</time>
      </trkpt>
      <trkpt lat="47.89089" lon="5.50029">
        <ele>324</ele>
        <time>2024-09-01T10:31:13Z</time>
      </trkpt>
      <trkpt lat="47.89094" lon="5.50022">
        <ele>323.8</ele>
        <time>2024-09-01T10:31:14Z</time>
      </trkpt>
      <trkpt lat="47.89098" lon="5.50012">
        <ele>323.5</ele>
        <time>2024-09-01T10:31:15Z</time>
      </trkpt>
      <trkpt lat="47.89103" lon="5.49991">
        <ele>323</ele>
        <time>2024-09-01T10:31:17Z</time>
      </trkpt>
      <trkpt lat="47.89105" lon="5.49935">
        <ele>322</ele>
        <time>2024-09-01T10:31:22Z</time>
      </trkpt>
      <trkpt lat="47.8911" lon="5.49916">
        <ele>321.8</ele>
        <time>2024-09-01T10:31:24Z</time>
      </trkpt>
      <trkpt lat="47.89115" lon="5.4991">
        <ele>321.7</ele>
        <time>2024-09-01T10:31:25Z</time>
      </trkpt>
      <trkpt lat="47.89121" lon="5.49903">
        <ele>321.6</ele>
        <time>2024-09-01T10:31:26Z</time>
      </trkpt>
      <trkpt lat="47.89137" lon="5.49886">
        <ele>321.5</ele>
        <time>2024-09-01T10:31:29Z</time>
      </trkpt>
      <trkpt lat="47.89166" lon="5.49865">
        <ele>321.3</ele>
        <time>2024-09-01T10:31:34Z</time>
      </trkpt>
      <trkpt lat="47.89171" lon="5.49862">
        <ele>321.4</ele>
        <time>2024-09-01T10:31:35Z</time>
      </trkpt>
      <trkpt lat="47.89176" lon="5.49861">
        <ele>321.5</ele>
        <time>2024-09-01T10:31:36Z</time>
      </trkpt>
      <trkpt lat="47.89186" lon="5.49868">
        <ele>321.8</ele>
        <time>2024-09-01T10:31:38Z</time>
      </trkpt>
      <trkpt lat="47.89188" lon="5.4988">
        <ele>321.8</ele>
        <time>2024-09-01T10:31:40Z</time>
      </trkpt>
      <trkpt lat="47.8919" lon="5.49894">
        <ele>321.9</ele>
        <time>2024-09-01T10:31:42Z</time>
      </trkpt>
      <trkpt lat="47.89191" lon="5.49901">
        <ele>322</ele>
        <time>2024-09-01T10:31:43Z</time>
      </trkpt>
      <trkpt lat="47.89196" lon="5.4993">
        <ele>322.3</ele>
        <time>2024-09-01T10:31:47Z</time>
      </trkpt>
      <trkpt lat="47.89199" lon="5.49944">
        <ele>322.5</ele>
        <time>2024-09-01T10:31:49Z</time>
      </trkpt>
      <trkpt lat="47.89204" lon="5.49975">
        <ele>323</ele>
        <time>2024-09-01T10:31:53Z</time>
      </trkpt>
      <trkpt lat="47.89206" lon="5.49983">
        <ele>323.1</ele>
        <time>2024-09-01T10:31:54Z</time>
      </trkpt>
      <trkpt lat="47.89211" lon="5.50025">
        <ele>323.3</ele>
        <time>2024-09-01T10:31:59Z</time>
      </trkpt>
      <trkpt lat="47.8922" lon="5.501">
        <ele>322.8</ele>
        <time>2024-09-01T10:32:07Z</time>
      </trkpt>
      <trkpt lat="47.89223" lon="5.50127">
        <ele>322.8</ele>
        <time>2024-09-01T10:32:10Z</time>
      </trkpt>
      <trkpt lat="47.89229" lon="5.50143">
        <ele>322.8</ele>
        <time>2024-09-01T10:32:12Z</time>
      </trkpt>
      <trkpt lat="47.89242" lon="5.5016">
        <ele>322.8</ele>
        <time>2024-09-01T10:32:15Z</time>
      </trkpt>
      <trkpt lat="47.89251" lon="5.50175">
        <ele>322.6</ele>
        <time>2024-09-01T10:32:17Z</time>
      </trkpt>
      <trkpt lat="47.89269" lon="5.50217">
        <ele>321.9</ele>
        <time>2024-09-01T10:32:22Z</time>
      </trkpt>
      <trkpt lat="47.89297" lon="5.50288">
        <ele>321.8</ele>
        <time>2024-09-01T10:32:30Z</time>
      </trkpt>
      <trkpt lat="47.89304" lon="5.50314">
        <ele>322.2</ele>
        <time>2024-09-01T10:32:33Z</time>
      </trkpt>
      <trkpt lat="47.89307" lon="5.50332">
        <ele>322.6</ele>
        <time>2024-09-01T10:32:35Z</time>
      </trkpt>
      <trkpt lat="47.89307" lon="5.50342">
        <ele>322.9</ele>
        <time>2024-09-01T10:32:36Z</time>
      </trkpt>
      <trkpt lat="47.89307" lon="5.50368">
        <ele>323.6</ele>
        <time>2024-09-01T10:32:39Z</time>
      </trkpt>
      <trkpt lat="47.893" lon="5.50421">
        <ele>324.6</ele>
        <time>2024-09-01T10:32:45Z</time>
      </trkpt>
      <trkpt lat="47.89291" lon="5.50495">
        <ele>325.5</ele>
        <time>2024-09-01T10:32:53Z</time>
      </trkpt>
      <trkpt lat="47.89282" lon="5.50567">
        <ele>326</ele>
        <time>2024-09-01T10:33:01Z</time>
      </trkpt>
      <trkpt lat="47.89275" lon="5.50641">
        <ele>326.3</ele>
        <time>2024-09-01T10:33:09Z</time>
      </trkpt>
      <trkpt lat="47.89278" lon="5.50701">
        <ele>326.2</ele>
        <time>2024-09-01T10:33:15Z</time>
      </trkpt>
      <trkpt lat="47.89284" lon="5.50766">
        <ele>326.3</ele>
        <time>2024-09-01T10:33:22Z</time>
      </trkpt>
      <trkpt lat="47.89291" lon="5.50835">
        <ele>326.5</ele>
        <time>2024-09-01T10:33:29Z</time>
      </trkpt>
      <trkpt lat="47.89297" lon="5.50892">
        <ele>326.8</ele>
        <time>2024-09-01T10:33:35Z</time>
      </trkpt>
      <trkpt lat="47.89303" lon="5.5096">
        <ele>327.5</ele>
        <time>2024-09-01T10:33:42Z</time>
      </trkpt>
      <trkpt lat="47.89311" lon="5.51035">
        <ele>328.4</ele>
        <time>2024-09-01T10:33:50Z</time>
      </trkpt>
      <trkpt lat="47.89318" lon="5.51106">
        <ele>329.7</ele>
        <time>2024-09-01T10:33:58Z</time>
      </trkpt>
      <trkpt lat="47.89325" lon="5.51181">
        <ele>331.2</ele>
        <time>2024-09-01T10:34:07Z</time>
      </trkpt>
      <trkpt lat="47.89336" lon="5.51256">
        <ele>333</ele>
        <time>2024-09-01T10:34:16Z</time>
      </trkpt>
      <trkpt lat="47.89349" lon="5.51314">
        <ele>335.1</ele>
        <time>2024-09-01T10:34:24Z</time>
      </trkpt>
      <trkpt lat="47.8936" lon="5.51356">
        <ele>336.6</ele>
        <time>2024-09-01T10:34:31Z</time>
      </trkpt>
      <trkpt lat="47.89373" lon="5.51405">
        <ele>337.9</ele>
        <time>2024-09-01T10:34:39Z</time>
      </trkpt>
      <trkpt lat="47.89387" lon="5.51457">
        <ele>339</ele>
        <time>2024-09-01T10:34:47Z</time>
      </trkpt>
      <trkpt lat="47.8939" lon="5.51471">
        <ele>339.2</ele>
        <time>2024-09-01T10:34:49Z</time>
      </trkpt>
      <trkpt lat="47.894" lon="5.51504">
        <ele>339.7</ele>
        <time>2024-09-01T10:34:54Z</time>
      </trkpt>
      <trkpt lat="47.8941" lon="5.5152">
        <ele>339.9</ele>
        <time>2024-09-01T10:34:57Z</time>
      </trkpt>
      <trkpt lat="47.89418" lon="5.51528">
        <ele>340</ele>
        <time>2024-09-01T10:34:59Z</time>
      </trkpt>
      <trkpt lat="47.89425" lon="5.51535">
        <ele>340.2</ele>
        <time>2024-09-01T10:35:01Z</time>
      </trkpt>
      <trkpt lat="47.89433" lon="5.51541">
        <ele>340.3</ele>
        <time>2024-09-01T10:35:03Z</time>
      </trkpt>
      <trkpt lat="47.89438" lon="5.51542">
        <ele>340.3</ele>
        <time>2024-09-01T10:35:04Z</time>
      </trkpt>
      <trkpt lat="47.89478" lon="5.51556">
        <ele>340.6</ele>
        <time>2024-09-01T10:35:12Z</time>
      </trkpt>
      <trkpt lat="47.89491" lon="5.51561">
        <ele>340.7</ele>
        <time>2024-09-01T10:35:15Z</time>
      </trkpt>
      <trkpt lat="47.89503" lon="5.51574">
        <ele>340.7</ele>
        <time>2024-09-01T10:35:18Z</time>
      </trkpt>
      <trkpt lat="47.89524" lon="5.516">
        <ele>340.5</ele>
        <time>2024-09-01T10:35:23Z</time>
      </trkpt>
      <trkpt lat="47.89531" lon="5.51613">
        <ele>340.4</ele>
        <time>2024-09-01T10:35:25Z</time>
      </trkpt>
      <trkpt lat="47.89538" lon="5.51635">
        <ele>340.3</ele>
        <time>2024-09-01T10:35:28Z</time>
      </trkpt>
      <trkpt lat="47.89547" lon="5.51685">
        <ele>340</ele>
        <time>2024-09-01T10:35:34Z</time>
      </trkpt>
      <trkpt lat="47.89547" lon="5.51702">
        <ele>339.9</ele>
        <time>2024-09-01T10:35:36Z</time>
      </trkpt>
      <trkpt lat="47.89547" lon="5.51727">
        <ele>339.8</ele>
        <time>2024-09-01T10:35:39Z</time>
      </trkpt>
      <trkpt lat="47.89545" lon="5.51765">
        <ele>339.7</ele>
        <time>2024-09-01T10:35:44Z</time>
      </trkpt>
      <trkpt lat="47.89544" lon="5.51778">
        <ele>339.7</ele>
        <time>2024-09-01T10:35:46Z</time>
      </trkpt>
      <trkpt lat="47.89556" lon="5.51787">
        <ele>339.8</ele>
        <time>2024-09-01T10:35:48Z</time>
      </trkpt>
      <trkpt lat="47.89561" lon="5.51787">
        <ele>339.8</ele>
        <time>2024-09-01T10:35:49Z</time>
      </trkpt>
      <trkpt lat="47.89561" lon="5.51787">
        <ele>339.8</ele>
        <time>2024-09-01T10:35:50Z</time>
      </trkpt>
      <trkpt lat="47.89582" lon="5.51788">
        <ele>340.2</ele>
        <time>2024-09-01T10:35:53Z</time>
      </trkpt>
      <trkpt lat="47.89618" lon="5.5179">
        <ele>341.4</ele>
        <time>2024-09-01T10:36:00Z</time>
      </trkpt>
      <trkpt lat="47.89643" lon="5.51793">
        <ele>342.1</ele>
        <time>2024-09-01T10:36:05Z</time>
      </trkpt>
      <trkpt lat="47.89648" lon="5.51796">
        <ele>342.2</ele>
        <time>2024-09-01T10:36:06Z</time>
      </trkpt>
      <trkpt lat="47.89656" lon="5.51804">
        <ele>342.2</ele>
        <time>2024-09-01T10:36:08Z</time>
      </trkpt>
      <trkpt lat="47.89663" lon="5.51817">
        <ele>342</ele>
        <time>2024-09-01T10:36:10Z</time>
      </trkpt>
      <trkpt lat="47.89668" lon="5.51834">
        <ele>341.7</ele>
        <time>2024-09-01T10:36:12Z</time>
      </trkpt>
      <trkpt lat="47.89672" lon="5.51852">
        <ele>341.3</ele>
        <time>2024-09-01T10:36:14Z</time>
      </trkpt>
      <trkpt lat="47.89682" lon="5.51897">
        <ele>340.3</ele>
        <time>2024-09-01T10:36:19Z</time>
      </trkpt>
      <trkpt lat="47.89682" lon="5.51905">
        <ele>340</ele>
        <time>2024-09-01T10:36:20Z</time>
      </trkpt>
      <trkpt lat="47.89678" lon="5.51921">
        <ele>339.6</ele>
        <time>2024-09-01T10:36:22Z</time>
      </trkpt>
      <trkpt lat="47.89662" lon="5.51992">
        <ele>337.3</ele>
        <time>2024-09-01T10:36:29Z</time>
      </trkpt>
      <trkpt lat="47.89655" lon="5.52036">
        <ele>335.9</ele>
        <time>2024-09-01T10:36:33Z</time>
      </trkpt>
      <trkpt lat="47.89655" lon="5.52047">
        <ele>335.6</ele>
        <time>2024-09-01T10:36:34Z</time>
      </trkpt>
      <trkpt lat="47.89659" lon="5.52107">
        <ele>334.6</ele>
        <time>2024-09-01T10:36:39Z</time>
      </trkpt>
      <trkpt lat="47.89665" lon="5.52172">
        <ele>334.6</ele>
        <time>2024-09-01T10:36:45Z</time>
      </trkpt>
      <trkpt lat="47.89666" lon="5.5218">
        <ele>334.7</ele>
        <time>2024-09-01T10:36:46Z</time>
      </trkpt>
      <trkpt lat="47.89664" lon="5.52198">
        <ele>335</ele>
        <time>2024-09-01T10:36:48Z</time>
      </trkpt>
      <trkpt lat="47.89654" lon="5.52198">
        <ele>334.9</ele>
        <time>2024-09-01T10:36:50Z</time>
      </trkpt>
      <trkpt lat="47.89648" lon="5.52198">
        <ele>334.9</ele>
        <time>2024-09-01T10:36:51Z</time>
      </trkpt>
      <trkpt lat="47.89643" lon="5.52198">
        <ele>334.8</ele>
        <time>2024-09-01T10:36:52Z</time>
      </trkpt>
      <trkpt lat="47.89634" lon="5.5221">
        <ele>334.7</ele>
        <time>2024-09-01T10:36:54Z</time>
      </trkpt>
      <trkpt lat="47.89629" lon="5.52216">
        <ele>334.7</ele>
        <time>2024-09-01T10:36:55Z</time>
      </trkpt>
      <trkpt lat="47.89621" lon="5.52227">
        <ele>334.5</ele>
        <time>2024-09-01T10:36:57Z</time>
      </trkpt>
      <trkpt lat="47.89615" lon="5.52242">
        <ele>334.6</ele>
        <time>2024-09-01T10:36:59Z</time>
      </trkpt>
      <trkpt lat="47.89613" lon="5.5225">
        <ele>334.8</ele>
        <time>2024-09-01T10:37:00Z</time>
      </trkpt>
      <trkpt lat="47.89605" lon="5.5229">
        <ele>335.9</ele>
        <time>2024-09-01T10:37:06Z</time>
      </trkpt>
      <trkpt lat="47.89602" lon="5.52321">
        <ele>336.5</ele>
        <time>2024-09-01T10:37:10Z</time>
      </trkpt>
      <trkpt lat="47.89602" lon="5.52328">
        <ele>336.6</ele>
        <time>2024-09-01T10:37:11Z</time>
      </trkpt>
      <trkpt lat="47.89604" lon="5.52335">
        <ele>336.6</ele>
        <time>2024-09-01T10:37:12Z</time>
      </trkpt>
      <trkpt lat="47.89613" lon="5.52367">
        <ele>336.7</ele>
        <time>2024-09-01T10:37:16Z</time>
      </trkpt>
      <trkpt lat="47.89621" lon="5.52377">
        <ele>336.8</ele>
        <time>2024-09-01T10:37:18Z</time>
      </trkpt>
      <trkpt lat="47.89625" lon="5.52378">
        <ele>336.9</ele>
        <time>2024-09-01T10:37:19Z</time>
      </trkpt>
      <trkpt lat="47.8963" lon="5.52378">
        <ele>336.9</ele>
        <time>2024-09-01T10:37:20Z</time>
      </trkpt>
      <trkpt lat="47.89653" lon="5.52376">
        <ele>337.1</ele>
        <time>2024-09-01T10:37:24Z</time>
      </trkpt>
      <trkpt lat="47.89658" lon="5.52375">
        <ele>337.1</ele>
        <time>2024-09-01T10:37:25Z</time>
      </trkpt>
      <trkpt lat="47.89679" lon="5.52362">
        <ele>337.4</ele>
        <time>2024-09-01T10:37:29Z</time>
      </trkpt>
      <trkpt lat="47.897" lon="5.52349">
        <ele>337.6</ele>
        <time>2024-09-01T10:37:34Z</time>
      </trkpt>
      <trkpt lat="47.89708" lon="5.52342">
        <ele>337.7</ele>
        <time>2024-09-01T10:37:38Z</time>
      </trkpt>
      <trkpt lat="47.89703" lon="5.52324">
        <ele>337.4</ele>
        <time>2024-09-01T10:37:43Z</time>
      </trkpt>
      <trkpt lat="47.89702" lon="5.52319">
        <ele>337.4</ele>
        <time>2024-09-01T10:37:44Z</time>
      </trkpt>
      <trkpt lat="47.89694" lon="5.52291">
        <ele>336.9</ele>
        <time>2024-09-01T10:37:48Z</time>
      </trkpt>
      <trkpt lat="47.89678" lon="5.52235">
        <ele>335.6</ele>
        <time>2024-09-01T10:37:55Z</time>
      </trkpt>
      <trkpt lat="47.8967" lon="5.52205">
        <ele>335.2</ele>
        <time>2024-09-01T10:37:59Z</time>
      </trkpt>
      <trkpt lat="47.89668" lon="5.52199">
        <ele>335.1</ele>
        <time>2024-09-01T10:38:00Z</time>
      </trkpt>
      <trkpt lat="47.89665" lon="5.52198">
        <ele>335</ele>
        <time>2024-09-01T10:38:01Z</time>
      </trkpt>
      <trkpt lat="47.89654" lon="5.52198">
        <ele>334.9</ele>
        <time>2024-09-01T10:38:03Z</time>
      </trkpt>
      <trkpt lat="47.89642" lon="5.52198">
        <ele>334.8</ele>
        <time>2024-09-01T10:38:05Z</time>
      </trkpt>
      <trkpt lat="47.89636" lon="5.52206">
        <ele>334.7</ele>
        <time>2024-09-01T10:38:07Z</time>
      </trkpt>
      <trkpt lat="47.89629" lon="5.52216">
        <ele>334.7</ele>
        <time>2024-09-01T10:38:09Z</time>
      </trkpt>
      <trkpt lat="47.89621" lon="5.52226">
        <ele>334.5</ele>
        <time>2024-09-01T10:38:12Z</time>
      </trkpt>
      <trkpt lat="47.89619" lon="5.5223">
        <ele>334.5</ele>
        <time>2024-09-01T10:38:15Z</time>
      </trkpt>
    </trkseg>
  </trk>
</gpx>